Time,TemperatureF,DewpointF,PressureIn,WindDirection,WindDirectionDegrees,WindSpeedMPH,WindSpeedGustMPH,Humidity,HourlyPrecipIn,Conditions,Clouds,dailyrainin,SoftwareType,DateUTC
2013-05-03 00:00:00,49.4,46.9,30.16,East,96,2.0,7.0,91,0.00,,---,0.01,VWS V14.01,2013-05-03 04:00:00,
2013-05-03 00:01:00,49.4,46.9,30.16,East,96,2.0,2.0,91,0.00,,---,0.00,VWS V14.01,2013-05-03 04:01:00,
2013-05-03 00:02:00,49.4,46.9,30.16,East,96,2.0,2.0,91,0.00,,---,0.00,VWS V14.01,2013-05-03 04:02:00,
2013-05-03 00:03:00,49.4,46.9,30.16,East,86,0.0,2.0,91,0.00,,---,0.00,VWS V14.01,2013-05-03 04:03:00,
2013-05-03 00:04:00,49.5,47.0,30.16,ESE,106,0.0,2.0,91,0.00,,---,0.00,VWS V14.01,2013-05-03 04:04:00,
2013-05-03 00:05:00,49.5,47.0,30.16,ESE,106,0.0,2.0,91,0.00,,---,0.00,VWS V14.01,2013-05-03 04:05:00,
2013-05-03 00:06:00,49.5,47.0,30.16,ESE,103,0.0,2.0,91,0.00,,---,0.00,VWS V14.01,2013-05-03 04:06:00,
2013-05-03 00:07:00,49.6,47.1,30.16,ESE,115,5.0,5.0,91,0.00,,---,0.00,VWS V14.01,2013-05-03 04:07:00,
2013-05-03 00:08:00,49.6,47.1,30.16,East,86,5.0,5.0,91,0.00,,---,0.00,VWS V14.01,2013-05-03 04:08:00,
2013-05-03 00:09:00,49.6,47.1,30.16,East,83,0.0,5.0,91,0.00,,---,0.00,VWS V14.01,2013-05-03 04:09:00,
2013-05-03 00:10:00,49.6,47.1,30.16,East,83,0.0,5.0,91,0.00,,---,0.00,VWS V14.01,2013-05-03 04:10:00,
2013-05-03 00:11:00,49.8,47.0,30.16,East,97,2.0,2.0,90,0.00,,---,0.00,VWS V14.01,2013-05-03 04:11:00,
2013-05-03 00:12:00,49.8,47.0,30.16,ESE,111,2.0,6.0,90,0.00,,---,0.00,VWS V14.01,2013-05-03 04:12:00,
2013-05-03 00:13:00,49.8,47.0,30.16,East,100,0.0,6.0,90,0.00,,---,0.00,VWS V14.01,2013-05-03 04:13:00,
2013-05-03 00:14:00,49.8,47.0,30.16,East,97,0.0,6.0,90,0.00,,---,0.00,VWS V14.01,2013-05-03 04:14:00,
2013-05-03 00:15:00,49.8,47.0,30.16,ESE,111,5.0,6.0,90,0.00,,---,0.00,VWS V14.01,2013-05-03 04:15:00,
2013-05-03 00:16:00,49.8,47.0,30.16,East,101,0.0,6.0,90,0.00,,---,0.00,VWS V14.01,2013-05-03 04:16:00,
2013-05-03 00:17:00,49.8,47.0,30.16,East,101,0.0,6.0,90,0.00,,---,0.00,VWS V14.01,2013-05-03 04:17:00,
2013-05-03 00:18:00,49.9,47.1,30.16,SE,139,2.0,6.0,90,0.00,,---,0.00,VWS V14.01,2013-05-03 04:18:00,
2013-05-03 00:19:00,49.9,47.1,30.16,East,94,0.0,6.0,90,0.00,,---,0.00,VWS V14.01,2013-05-03 04:19:00,
2013-05-03 00:20:00,49.9,47.1,30.16,ESE,108,0.0,6.0,90,0.00,,---,0.00,VWS V14.01,2013-05-03 04:20:00,
2013-05-03 00:21:00,49.9,47.1,30.16,SE,124,5.0,6.0,90,0.00,,---,0.00,VWS V14.01,2013-05-03 04:21:00,
2013-05-03 00:22:00,50.1,47.3,30.16,East,98,3.0,6.0,90,0.00,,---,0.00,VWS V14.01,2013-05-03 04:22:00,
2013-05-03 00:23:00,50.1,47.0,30.16,East,89,0.0,6.0,89,0.00,,---,0.00,VWS V14.01,2013-05-03 04:23:00,
2013-05-03 00:24:00,50.1,47.0,30.16,ESE,113,2.0,6.0,89,0.00,,---,0.00,VWS V14.01,2013-05-03 04:24:00,
2013-05-03 00:25:00,50.1,47.0,30.16,East,90,0.0,6.0,89,0.00,,---,0.00,VWS V14.01,2013-05-03 04:25:00,
2013-05-03 00:26:00,50.1,47.0,30.16,ESE,106,3.0,6.0,89,0.00,,---,0.00,VWS V14.01,2013-05-03 04:26:00,
2013-05-03 00:27:00,50.1,47.0,30.16,ESE,107,6.0,6.0,89,0.00,,---,0.00,VWS V14.01,2013-05-03 04:27:00,
2013-05-03 00:28:00,50.1,47.0,30.16,East,86,0.0,6.0,89,0.00,,---,0.00,VWS V14.01,2013-05-03 04:28:00,
2013-05-03 00:29:00,50.1,47.0,30.16,East,94,0.0,6.0,89,0.00,,---,0.00,VWS V14.01,2013-05-03 04:29:00,
2013-05-03 00:30:00,50.1,47.0,30.15,East,94,0.0,6.0,89,0.00,,---,0.00,VWS V14.01,2013-05-03 04:30:00,
2013-05-03 00:31:00,50.2,47.1,30.15,East,86,0.0,0.0,89,0.00,,---,0.00,VWS V14.01,2013-05-03 04:31:00,
2013-05-03 00:32:00,50.2,47.1,30.15,East,86,0.0,0.0,89,0.00,,---,0.00,VWS V14.01,2013-05-03 04:32:00,
2013-05-03 00:33:00,50.2,47.1,30.15,East,94,0.0,5.0,89,0.00,,---,0.00,VWS V14.01,2013-05-03 04:33:00,
2013-05-03 00:34:00,50.4,47.3,30.15,East,94,0.0,5.0,89,0.00,,---,0.00,VWS V14.01,2013-05-03 04:34:00,
2013-05-03 00:35:00,50.4,47.3,30.15,East,94,0.0,5.0,89,0.00,,---,0.00,VWS V14.01,2013-05-03 04:35:00,
2013-05-03 00:36:00,50.4,47.3,30.15,ESE,111,0.0,5.0,89,0.00,,---,0.00,VWS V14.01,2013-05-03 04:36:00,
2013-05-03 00:37:00,50.4,47.3,30.15,East,82,0.0,5.0,89,0.00,,---,0.00,VWS V14.01,2013-05-03 04:37:00,
2013-05-03 00:38:00,50.5,47.4,30.15,East,84,0.0,5.0,89,0.00,,---,0.00,VWS V14.01,2013-05-03 04:38:00,
2013-05-03 00:39:00,50.5,47.4,30.15,East,89,0.0,5.0,89,0.00,,---,0.00,VWS V14.01,2013-05-03 04:39:00,
2013-05-03 00:40:00,50.5,47.4,30.15,East,89,0.0,5.0,89,0.00,,---,0.00,VWS V14.01,2013-05-03 04:40:00,
2013-05-03 00:41:00,50.5,47.4,30.15,East,97,2.0,2.0,89,0.00,,---,0.00,VWS V14.01,2013-05-03 04:41:00,
2013-05-03 00:42:00,50.7,47.6,30.15,East,97,2.0,4.0,89,0.00,,---,0.00,VWS V14.01,2013-05-03 04:42:00,
2013-05-03 00:43:00,50.7,47.6,30.15,East,97,0.0,4.0,89,0.00,,---,0.00,VWS V14.01,2013-05-03 04:43:00,
2013-05-03 00:44:00,50.7,47.6,30.15,East,97,0.0,4.0,89,0.00,,---,0.00,VWS V14.01,2013-05-03 04:44:00,
2013-05-03 00:45:00,50.8,47.7,30.14,East,100,3.0,4.0,89,0.00,,---,0.00,VWS V14.01,2013-05-03 04:45:00,
2013-05-03 00:46:00,50.8,47.7,30.14,ENE,66,0.0,5.0,89,0.00,,---,0.00,VWS V14.01,2013-05-03 04:46:00,
2013-05-03 00:47:00,50.8,47.7,30.14,ENE,66,0.0,5.0,89,0.00,,---,0.00,VWS V14.01,2013-05-03 04:47:00,
2013-05-03 00:48:00,50.8,47.7,30.14,ENE,60,0.0,5.0,89,0.00,,---,0.00,VWS V14.01,2013-05-03 04:48:00,
2013-05-03 00:49:00,50.8,47.7,30.14,East,83,0.0,5.0,89,0.00,,---,0.00,VWS V14.01,2013-05-03 04:49:00,
2013-05-03 00:50:00,51.0,47.9,30.14,ESE,104,0.0,5.0,89,0.00,,---,0.00,VWS V14.01,2013-05-03 04:50:00,
2013-05-03 00:51:00,51.0,47.9,30.14,East,100,4.0,4.0,89,0.00,,---,0.00,VWS V14.01,2013-05-03 04:51:00,
2013-05-03 00:52:00,51.0,47.9,30.14,East,97,0.0,4.0,89,0.00,,---,0.00,VWS V14.01,2013-05-03 04:52:00,
2013-05-03 00:53:00,51.0,47.9,30.14,East,97,0.0,4.0,89,0.00,,---,0.00,VWS V14.01,2013-05-03 04:53:00,
2013-05-03 00:54:00,51.0,47.9,30.14,ESE,113,0.0,4.0,89,0.00,,---,0.00,VWS V14.01,2013-05-03 04:54:00,
2013-05-03 00:55:00,51.0,47.0,30.14,East,101,2.0,5.0,86,0.00,,---,0.00,VWS V14.01,2013-05-03 04:55:00,
2013-05-03 00:56:00,51.0,47.0,30.14,East,97,1.0,5.0,86,0.00,,---,0.00,VWS V14.01,2013-05-03 04:56:00,
2013-05-03 00:57:00,51.0,47.0,30.14,ESE,103,4.0,5.0,86,0.00,,---,0.00,VWS V14.01,2013-05-03 04:57:00,
2013-05-03 00:58:00,51.1,47.1,30.14,East,98,0.0,6.0,86,0.00,,---,0.00,VWS V14.01,2013-05-03 04:58:00,
2013-05-03 00:59:00,51.1,47.1,30.14,East,98,0.0,6.0,86,0.00,,---,0.00,VWS V14.01,2013-05-03 04:59:00,
2013-05-03 01:00:00,51.1,47.1,30.14,East,98,0.0,6.0,86,0.00,,---,0.00,VWS V14.01,2013-05-03 05:00:00,
2013-05-03 01:01:00,51.3,47.3,30.14,East,98,0.0,0.0,86,0.00,,---,0.00,VWS V14.01,2013-05-03 05:01:00,
2013-05-03 01:02:00,51.3,47.3,30.14,East,101,3.0,3.0,86,0.00,,---,0.00,VWS V14.01,2013-05-03 05:02:00,
2013-05-03 01:03:00,51.3,47.3,30.14,East,101,3.0,3.0,86,0.00,,---,0.00,VWS V14.01,2013-05-03 05:03:00,
2013-05-03 01:04:00,51.4,47.0,30.14,East,97,1.0,3.0,85,0.00,,---,0.00,VWS V14.01,2013-05-03 05:04:00,
2013-05-03 01:05:00,51.4,47.0,30.14,East,89,0.0,3.0,85,0.00,,---,0.00,VWS V14.01,2013-05-03 05:05:00,
2013-05-03 01:06:00,51.4,47.0,30.14,East,89,0.0,3.0,85,0.00,,---,0.00,VWS V14.01,2013-05-03 05:06:00,
2013-05-03 01:07:00,51.6,47.2,30.14,East,89,0.0,3.0,85,0.00,,---,0.00,VWS V14.01,2013-05-03 05:07:00,
2013-05-03 01:08:00,51.6,47.2,30.14,East,94,0.0,10.0,85,0.00,,---,0.00,VWS V14.01,2013-05-03 05:08:00,
2013-05-03 01:09:00,51.6,47.2,30.14,ESE,115,0.0,10.0,85,0.00,,---,0.00,VWS V14.01,2013-05-03 05:09:00,
2013-05-03 01:10:00,51.6,47.2,30.14,ESE,115,0.0,10.0,85,0.00,,---,0.00,VWS V14.01,2013-05-03 05:10:00,
2013-05-03 01:11:00,51.6,47.2,30.14,ESE,115,0.0,0.0,85,0.00,,---,0.00,VWS V14.01,2013-05-03 05:11:00,
2013-05-03 01:12:00,51.7,47.3,30.14,East,94,1.0,1.0,85,0.00,,---,0.00,VWS V14.01,2013-05-03 05:12:00,
2013-05-03 01:13:00,51.7,47.3,30.14,East,94,0.0,1.0,85,0.00,,---,0.00,VWS V14.01,2013-05-03 05:13:00,
2013-05-03 01:14:00,51.7,47.3,30.14,East,96,3.0,3.0,85,0.00,,---,0.00,VWS V14.01,2013-05-03 05:14:00,
2013-05-03 01:15:00,51.7,47.3,30.13,East,96,0.0,3.0,85,0.00,,---,0.00,VWS V14.01,2013-05-03 05:15:00,
2013-05-03 01:16:00,51.7,47.3,30.13,East,86,0.0,3.0,85,0.00,,---,0.00,VWS V14.01,2013-05-03 05:16:00,
2013-05-03 01:17:00,51.7,47.0,30.13,ENE,72,0.0,3.0,84,0.00,,---,0.00,VWS V14.01,2013-05-03 05:17:00,
2013-05-03 01:18:00,51.7,47.0,30.13,ESE,115,0.0,3.0,84,0.00,,---,0.00,VWS V14.01,2013-05-03 05:18:00,
2013-05-03 01:19:00,51.9,47.2,30.13,ESE,115,5.0,7.0,84,0.00,,---,0.00,VWS V14.01,2013-05-03 05:19:00,
2013-05-03 01:20:00,51.9,47.2,30.13,ESE,114,3.0,10.0,84,0.00,,---,0.00,VWS V14.01,2013-05-03 05:20:00,
2013-05-03 01:21:00,51.7,47.0,30.13,ESE,107,0.0,3.0,84,0.00,,---,0.00,VWS V14.01,2013-05-03 05:21:00,
2013-05-03 01:22:00,51.9,47.2,30.13,East,90,0.0,5.0,84,0.00,,---,0.00,VWS V14.01,2013-05-03 05:22:00,
2013-05-03 01:23:00,51.9,47.2,30.13,East,90,2.0,5.0,84,0.00,,---,0.00,VWS V14.01,2013-05-03 05:23:00,
2013-05-03 01:24:00,51.9,47.2,30.13,East,89,6.0,6.0,84,0.00,,---,0.00,VWS V14.01,2013-05-03 05:24:00,
2013-05-03 01:25:00,51.9,47.2,30.13,East,97,2.0,6.0,84,0.00,,---,0.00,VWS V14.01,2013-05-03 05:25:00,
2013-05-03 01:26:00,51.9,47.2,30.13,East,79,2.0,6.0,84,0.00,,---,0.00,VWS V14.01,2013-05-03 05:26:00,
2013-05-03 01:27:00,51.9,47.2,30.13,East,79,2.0,6.0,84,0.00,,---,0.00,VWS V14.01,2013-05-03 05:27:00,
2013-05-03 01:28:00,51.9,47.2,30.13,East,94,0.0,6.0,84,0.00,,---,0.00,VWS V14.01,2013-05-03 05:28:00,
2013-05-03 01:29:00,51.9,47.2,30.13,ESE,103,0.0,6.0,84,0.00,,---,0.00,VWS V14.01,2013-05-03 05:29:00,
2013-05-03 01:30:00,51.9,47.2,30.13,East,101,0.0,6.0,84,0.00,,---,0.00,VWS V14.01,2013-05-03 05:30:00,
2013-05-03 01:31:00,51.9,46.9,30.13,ENE,77,0.0,5.0,83,0.00,,---,0.00,VWS V14.01,2013-05-03 05:31:00,
2013-05-03 01:32:00,51.9,46.9,30.13,ENE,77,0.0,5.0,83,0.00,,---,0.00,VWS V14.01,2013-05-03 05:32:00,
2013-05-03 01:33:00,51.9,46.9,30.13,ENE,77,0.0,5.0,83,0.00,,---,0.00,VWS V14.01,2013-05-03 05:33:00,
2013-05-03 01:34:00,52.0,47.0,30.13,ENE,77,0.0,5.0,83,0.00,,---,0.00,VWS V14.01,2013-05-03 05:34:00,
2013-05-03 01:35:00,52.0,47.3,30.13,East,93,0.0,5.0,84,0.00,,---,0.00,VWS V14.01,2013-05-03 05:35:00,
2013-05-03 01:36:00,52.0,47.3,30.13,East,93,0.0,5.0,84,0.00,,---,0.00,VWS V14.01,2013-05-03 05:36:00,
2013-05-03 01:37:00,52.0,47.3,30.13,East,80,0.0,5.0,84,0.00,,---,0.00,VWS V14.01,2013-05-03 05:37:00,
2013-05-03 01:38:00,52.0,47.3,30.13,East,83,3.0,5.0,84,0.00,,---,0.00,VWS V14.01,2013-05-03 05:38:00,
2013-05-03 01:39:00,52.0,47.3,30.13,ENE,72,0.0,5.0,84,0.00,,---,0.00,VWS V14.01,2013-05-03 05:39:00,
2013-05-03 01:40:00,52.0,47.3,30.13,ENE,72,0.0,5.0,84,0.00,,---,0.00,VWS V14.01,2013-05-03 05:40:00,
2013-05-03 01:41:00,52.0,47.3,30.13,East,91,0.0,0.0,84,0.00,,---,0.00,VWS V14.01,2013-05-03 05:41:00,
2013-05-03 01:42:00,52.0,47.3,30.13,ESE,107,0.0,0.0,84,0.00,,---,0.00,VWS V14.01,2013-05-03 05:42:00,
2013-05-03 01:43:00,52.0,47.3,30.13,SE,125,10.0,10.0,84,0.00,,---,0.00,VWS V14.01,2013-05-03 05:43:00,
2013-05-03 01:44:00,52.2,47.5,30.13,East,96,3.0,10.0,84,0.00,,---,0.00,VWS V14.01,2013-05-03 05:44:00,
2013-05-03 01:45:00,52.2,47.5,30.12,ESE,104,0.0,10.0,84,0.00,,---,0.00,VWS V14.01,2013-05-03 05:45:00,
2013-05-03 01:46:00,52.2,47.5,30.12,East,98,0.0,10.0,84,0.00,,---,0.00,VWS V14.01,2013-05-03 05:46:00,
2013-05-03 01:47:00,52.2,47.5,30.12,ESE,117,3.0,10.0,84,0.00,,---,0.00,VWS V14.01,2013-05-03 05:47:00,
2013-05-03 01:48:00,52.2,47.5,30.12,ESE,111,2.0,10.0,84,0.00,,---,0.00,VWS V14.01,2013-05-03 05:48:00,
2013-05-03 01:49:00,52.2,47.5,30.12,ENE,73,2.0,10.0,84,0.00,,---,0.00,VWS V14.01,2013-05-03 05:49:00,
2013-05-03 01:50:00,52.2,47.5,30.12,East,100,0.0,10.0,84,0.00,,---,0.00,VWS V14.01,2013-05-03 05:50:00,
2013-05-03 01:51:00,52.2,47.5,30.12,ENE,72,1.0,6.0,84,0.00,,---,0.00,VWS V14.01,2013-05-03 05:51:00,
2013-05-03 01:52:00,52.2,47.5,30.12,ENE,73,0.0,6.0,84,0.00,,---,0.00,VWS V14.01,2013-05-03 05:52:00,
2013-05-03 01:53:00,52.2,47.5,30.12,ESE,104,2.0,6.0,84,0.00,,---,0.00,VWS V14.01,2013-05-03 05:53:00,
2013-05-03 01:54:00,52.2,47.8,30.12,ESE,103,0.0,6.0,85,0.00,,---,0.00,VWS V14.01,2013-05-03 05:54:00,
2013-05-03 01:55:00,52.2,47.8,30.12,East,101,0.0,6.0,85,0.00,,---,0.00,VWS V14.01,2013-05-03 05:55:00,
2013-05-03 01:56:00,52.2,47.8,30.12,East,87,0.0,6.0,85,0.00,,---,0.00,VWS V14.01,2013-05-03 05:56:00,
2013-05-03 01:57:00,52.2,47.8,30.12,East,90,0.0,6.0,85,0.00,,---,0.00,VWS V14.01,2013-05-03 05:57:00,
2013-05-03 01:58:00,52.0,48.0,30.12,East,90,0.0,6.0,86,0.00,,---,0.00,VWS V14.01,2013-05-03 05:58:00,
2013-05-03 01:59:00,52.0,48.0,30.12,East,90,0.0,6.0,86,0.00,,---,0.00,VWS V14.01,2013-05-03 05:59:00,
2013-05-03 02:00:00,52.0,48.3,30.12,East,90,0.0,6.0,87,0.00,,---,0.00,VWS V14.01,2013-05-03 06:00:00,
2013-05-03 02:01:00,52.0,48.3,30.12,ESE,103,0.0,1.0,87,0.00,,---,0.00,VWS V14.01,2013-05-03 06:01:00,
2013-05-03 02:02:00,52.0,48.3,30.12,ESE,103,1.0,2.0,87,0.00,,---,0.00,VWS V14.01,2013-05-03 06:02:00,
2013-05-03 02:03:00,52.0,48.3,30.12,East,101,0.0,2.0,87,0.00,,---,0.00,VWS V14.01,2013-05-03 06:03:00,
2013-05-03 02:04:00,52.0,48.3,30.12,ESE,103,0.0,2.0,87,0.00,,---,0.00,VWS V14.01,2013-05-03 06:04:00,
2013-05-03 02:05:00,52.0,48.3,30.12,ESE,103,0.0,2.0,87,0.00,,---,0.00,VWS V14.01,2013-05-03 06:05:00,
2013-05-03 02:06:00,52.0,48.3,30.12,ESE,103,0.0,2.0,87,0.00,,---,0.00,VWS V14.01,2013-05-03 06:06:00,
2013-05-03 02:07:00,51.9,48.2,30.12,East,90,0.0,2.0,87,0.00,,---,0.00,VWS V14.01,2013-05-03 06:07:00,
2013-05-03 02:08:00,51.9,48.2,30.12,ESE,121,0.0,2.0,87,0.00,,---,0.00,VWS V14.01,2013-05-03 06:08:00,
2013-05-03 02:09:00,51.7,48.3,30.12,ESE,121,0.0,2.0,88,0.00,,---,0.00,VWS V14.01,2013-05-03 06:09:00,
2013-05-03 02:10:00,51.7,48.3,30.12,ESE,121,0.0,2.0,88,0.00,,---,0.00,VWS V14.01,2013-05-03 06:10:00,
2013-05-03 02:11:00,51.7,48.3,30.12,East,93,0.0,0.0,88,0.00,,---,0.00,VWS V14.01,2013-05-03 06:11:00,
2013-05-03 02:12:00,51.7,48.3,30.12,East,80,0.0,0.0,88,0.00,,---,0.00,VWS V14.01,2013-05-03 06:12:00,
2013-05-03 02:13:00,51.7,48.3,30.12,East,80,0.0,0.0,88,0.00,,---,0.00,VWS V14.01,2013-05-03 06:13:00,
2013-05-03 02:14:00,51.7,48.3,30.12,East,84,0.0,0.0,88,0.00,,---,0.00,VWS V14.01,2013-05-03 06:14:00,
2013-05-03 02:15:00,51.7,48.3,30.12,East,96,0.0,0.0,88,0.00,,---,0.00,VWS V14.01,2013-05-03 06:15:00,
2013-05-03 02:16:00,51.7,48.3,30.12,East,93,0.0,2.0,88,0.00,,---,0.00,VWS V14.01,2013-05-03 06:16:00,
2013-05-03 02:17:00,51.6,48.2,30.12,East,93,0.0,2.0,88,0.00,,---,0.00,VWS V14.01,2013-05-03 06:17:00,
2013-05-03 02:18:00,51.6,48.2,30.12,East,93,0.0,2.0,88,0.00,,---,0.00,VWS V14.01,2013-05-03 06:18:00,
2013-05-03 02:19:00,51.6,48.2,30.12,East,94,0.0,2.0,88,0.00,,---,0.00,VWS V14.01,2013-05-03 06:19:00,
2013-05-03 02:20:00,51.6,48.5,30.12,East,96,0.0,2.0,89,0.00,,---,0.00,VWS V14.01,2013-05-03 06:20:00,
2013-05-03 02:21:00,51.6,48.5,30.12,East,96,2.0,2.0,89,0.00,,---,0.00,VWS V14.01,2013-05-03 06:21:00,
2013-05-03 02:22:00,51.6,48.5,30.12,East,96,0.0,3.0,89,0.00,,---,0.00,VWS V14.01,2013-05-03 06:22:00,
2013-05-03 02:23:00,51.6,48.5,30.12,East,96,0.0,3.0,89,0.00,,---,0.00,VWS V14.01,2013-05-03 06:23:00,
2013-05-03 02:24:00,51.4,48.3,30.12,East,97,0.0,3.0,89,0.00,,---,0.00,VWS V14.01,2013-05-03 06:24:00,
2013-05-03 02:25:00,51.4,48.3,30.12,ENE,69,3.0,3.0,89,0.00,,---,0.00,VWS V14.01,2013-05-03 06:25:00,
2013-05-03 02:26:00,51.4,48.3,30.12,ENE,70,2.0,3.0,89,0.00,,---,0.00,VWS V14.01,2013-05-03 06:26:00,
2013-05-03 02:27:00,51.4,48.3,30.12,ESE,110,3.0,6.0,89,0.00,,---,0.00,VWS V14.01,2013-05-03 06:27:00,
2013-05-03 02:28:00,51.4,48.6,30.12,East,101,2.0,6.0,90,0.00,,---,0.00,VWS V14.01,2013-05-03 06:28:00,
2013-05-03 02:29:00,51.4,48.6,30.12,East,101,0.0,6.0,90,0.00,,---,0.00,VWS V14.01,2013-05-03 06:29:00,
2013-05-03 02:30:00,51.4,48.6,30.12,East,98,0.0,6.0,90,0.00,,---,0.00,VWS V14.01,2013-05-03 06:30:00,
2013-05-03 02:31:00,51.3,48.5,30.12,East,93,3.0,6.0,90,0.00,,---,0.00,VWS V14.01,2013-05-03 06:31:00,
2013-05-03 02:32:00,51.3,48.5,30.12,East,83,3.0,6.0,90,0.00,,---,0.00,VWS V14.01,2013-05-03 06:32:00,
2013-05-03 02:33:00,51.3,48.5,30.12,ENE,73,0.0,6.0,90,0.00,,---,0.00,VWS V14.01,2013-05-03 06:33:00,
2013-05-03 02:34:00,51.3,48.5,30.12,East,96,0.0,6.0,90,0.00,,---,0.00,VWS V14.01,2013-05-03 06:34:00,
2013-05-03 02:35:00,51.3,48.5,30.12,East,96,2.0,6.0,90,0.00,,---,0.00,VWS V14.01,2013-05-03 06:35:00,
2013-05-03 02:36:00,51.3,48.5,30.12,ESE,106,2.0,6.0,90,0.00,,---,0.00,VWS V14.01,2013-05-03 06:36:00,
2013-05-03 02:37:00,51.3,48.5,30.12,ESE,106,2.0,6.0,90,0.00,,---,0.00,VWS V14.01,2013-05-03 06:37:00,
2013-05-03 02:38:00,51.3,48.5,30.12,East,98,8.0,8.0,90,0.00,,---,0.00,VWS V14.01,2013-05-03 06:38:00,
2013-05-03 02:39:00,51.3,48.8,30.12,East,84,0.0,8.0,91,0.00,,---,0.00,VWS V14.01,2013-05-03 06:39:00,
2013-05-03 02:40:00,51.1,48.6,30.12,East,96,7.0,8.0,91,0.00,,---,0.00,VWS V14.01,2013-05-03 06:40:00,
2013-05-03 02:41:00,51.1,48.6,30.12,ESE,115,3.0,6.0,91,0.00,,---,0.00,VWS V14.01,2013-05-03 06:41:00,
2013-05-03 02:42:00,51.1,48.6,30.12,East,84,0.0,6.0,91,0.00,,---,0.00,VWS V14.01,2013-05-03 06:42:00,
2013-05-03 02:43:00,51.1,48.6,30.12,East,94,0.0,6.0,91,0.00,,---,0.00,VWS V14.01,2013-05-03 06:43:00,
2013-05-03 02:44:00,51.1,48.6,30.12,East,94,5.0,6.0,91,0.00,,---,0.00,VWS V14.01,2013-05-03 06:44:00,
2013-05-03 02:45:00,51.1,48.6,30.11,East,94,0.0,6.0,91,0.00,,---,0.00,VWS V14.01,2013-05-03 06:45:00,
2013-05-03 02:46:00,51.1,48.6,30.11,ENE,70,5.0,7.0,91,0.00,,---,0.00,VWS V14.01,2013-05-03 06:46:00,
2013-05-03 02:47:00,51.1,48.6,30.11,East,83,1.0,7.0,91,0.00,,---,0.00,VWS V14.01,2013-05-03 06:47:00,
2013-05-03 02:48:00,51.1,48.6,30.11,ENE,76,0.0,7.0,91,0.00,,---,0.00,VWS V14.01,2013-05-03 06:48:00,
2013-05-03 02:49:00,51.1,48.6,30.11,ESE,122,6.0,7.0,91,0.00,,---,0.00,VWS V14.01,2013-05-03 06:49:00,
2013-05-03 02:50:00,51.1,48.6,30.11,ENE,77,5.0,7.0,91,0.00,,---,0.00,VWS V14.01,2013-05-03 06:50:00,
2013-05-03 02:51:00,51.1,48.6,30.11,East,90,1.0,6.0,91,0.00,,---,0.00,VWS V14.01,2013-05-03 06:51:00,
2013-05-03 02:52:00,51.0,48.5,30.11,East,90,6.0,6.0,91,0.00,,---,0.00,VWS V14.01,2013-05-03 06:52:00,
2013-05-03 02:53:00,51.0,48.5,30.11,ESE,111,1.0,6.0,91,0.00,,---,0.00,VWS V14.01,2013-05-03 06:53:00,
2013-05-03 02:54:00,51.0,48.5,30.11,ESE,104,0.0,6.0,91,0.00,,---,0.00,VWS V14.01,2013-05-03 06:54:00,
2013-05-03 02:55:00,51.0,48.5,30.11,East,94,2.0,6.0,91,0.00,,---,0.00,VWS V14.01,2013-05-03 06:55:00,
2013-05-03 02:56:00,51.0,48.5,30.11,East,97,7.0,7.0,91,0.00,,---,0.00,VWS V14.01,2013-05-03 06:56:00,
2013-05-03 02:57:00,50.8,48.3,30.11,NE,56,2.0,7.0,91,0.00,,---,0.00,VWS V14.01,2013-05-03 06:57:00,
2013-05-03 02:58:00,50.8,48.3,30.11,East,83,0.0,7.0,91,0.00,,---,0.00,VWS V14.01,2013-05-03 06:58:00,
2013-05-03 02:59:00,50.8,48.3,30.11,East,91,5.0,8.0,91,0.00,,---,0.00,VWS V14.01,2013-05-03 06:59:00,
2013-05-03 03:00:00,50.8,48.3,30.11,East,94,3.0,8.0,91,0.00,,---,0.00,VWS V14.01,2013-05-03 07:00:00,
2013-05-03 03:01:00,50.8,48.3,30.11,East,94,3.0,3.0,91,0.00,,---,0.00,VWS V14.01,2013-05-03 07:01:00,
2013-05-03 03:02:00,50.8,48.3,30.11,East,90,0.0,3.0,91,0.00,,---,0.00,VWS V14.01,2013-05-03 07:02:00,
2013-05-03 03:03:00,50.8,48.3,30.11,East,86,6.0,6.0,91,0.00,,---,0.00,VWS V14.01,2013-05-03 07:03:00,
2013-05-03 03:04:00,50.8,48.3,30.11,East,86,2.0,6.0,91,0.00,,---,0.00,VWS V14.01,2013-05-03 07:04:00,
2013-05-03 03:05:00,50.7,48.2,30.11,East,96,0.0,7.0,91,0.00,,---,0.00,VWS V14.01,2013-05-03 07:05:00,
2013-05-03 03:06:00,50.7,48.2,30.11,East,100,3.0,7.0,91,0.00,,---,0.00,VWS V14.01,2013-05-03 07:06:00,
2013-05-03 03:07:00,50.7,48.2,30.11,East,101,0.0,7.0,91,0.00,,---,0.00,VWS V14.01,2013-05-03 07:07:00,
2013-05-03 03:08:00,50.7,48.5,30.11,East,87,0.0,7.0,92,0.00,,---,0.00,VWS V14.01,2013-05-03 07:08:00,
2013-05-03 03:09:00,50.7,48.5,30.11,East,84,0.0,7.0,92,0.00,,---,0.00,VWS V14.01,2013-05-03 07:09:00,
2013-05-03 03:10:00,50.8,48.6,30.11,East,94,0.0,7.0,92,0.00,,---,0.00,VWS V14.01,2013-05-03 07:10:00,
2013-05-03 03:11:00,50.8,48.6,30.11,East,94,0.0,0.0,92,0.00,,---,0.00,VWS V14.01,2013-05-03 07:11:00,
2013-05-03 03:12:00,50.8,48.6,30.11,East,94,0.0,0.0,92,0.00,,---,0.00,VWS V14.01,2013-05-03 07:12:00,
2013-05-03 03:13:00,50.7,48.5,30.11,East,86,4.0,7.0,92,0.00,,---,0.00,VWS V14.01,2013-05-03 07:13:00,
2013-05-03 03:14:00,50.7,48.5,30.11,East,96,6.0,7.0,92,0.00,,---,0.00,VWS V14.01,2013-05-03 07:14:00,
2013-05-03 03:15:00,50.7,48.5,30.10,East,84,0.0,7.0,92,0.00,,---,0.00,VWS V14.01,2013-05-03 07:15:00,
2013-05-03 03:16:00,50.7,48.5,30.10,ESE,107,0.0,7.0,92,0.00,,---,0.00,VWS V14.01,2013-05-03 07:16:00,
2013-05-03 03:17:00,50.7,48.5,30.10,ESE,108,0.0,7.0,92,0.00,,---,0.00,VWS V14.01,2013-05-03 07:17:00,
2013-05-03 03:18:00,50.7,48.5,30.10,East,101,0.0,7.0,92,0.00,,---,0.00,VWS V14.01,2013-05-03 07:18:00,
2013-05-03 03:19:00,50.7,48.5,30.10,East,100,0.0,7.0,92,0.00,,---,0.00,VWS V14.01,2013-05-03 07:19:00,
2013-05-03 03:20:00,50.7,48.5,30.10,East,90,5.0,7.0,92,0.00,,---,0.00,VWS V14.01,2013-05-03 07:20:00,
2013-05-03 03:21:00,50.7,48.5,30.10,East,98,3.0,6.0,92,0.00,,---,0.00,VWS V14.01,2013-05-03 07:21:00,
2013-05-03 03:22:00,50.7,48.5,30.10,East,94,0.0,6.0,92,0.00,,---,0.00,VWS V14.01,2013-05-03 07:22:00,
2013-05-03 03:23:00,50.7,48.5,30.10,East,97,0.0,6.0,92,0.00,,---,0.00,VWS V14.01,2013-05-03 07:23:00,
2013-05-03 03:24:00,50.7,48.5,30.10,ESE,107,4.0,7.0,92,0.00,,---,0.00,VWS V14.01,2013-05-03 07:24:00,
2013-05-03 03:25:00,50.7,48.5,30.10,ENE,63,1.0,7.0,92,0.00,,---,0.00,VWS V14.01,2013-05-03 07:25:00,
2013-05-03 03:26:00,50.7,48.5,30.10,ESE,118,3.0,7.0,92,0.00,,---,0.00,VWS V14.01,2013-05-03 07:26:00,
2013-05-03 03:27:00,50.7,48.5,30.10,ESE,113,0.0,7.0,92,0.00,,---,0.00,VWS V14.01,2013-05-03 07:27:00,
2013-05-03 03:28:00,50.8,48.6,30.10,ESE,113,2.0,7.0,92,0.00,,---,0.00,VWS V14.01,2013-05-03 07:28:00,
2013-05-03 03:29:00,50.8,48.6,30.10,East,83,5.0,7.0,92,0.00,,---,0.00,VWS V14.01,2013-05-03 07:29:00,
2013-05-03 03:30:00,50.8,48.6,30.10,East,91,0.0,7.0,92,0.00,,---,0.00,VWS V14.01,2013-05-03 07:30:00,
2013-05-03 03:31:00,50.8,48.6,30.10,East,91,0.0,0.0,92,0.00,,---,0.00,VWS V14.01,2013-05-03 07:31:00,
2013-05-03 03:32:00,50.8,48.6,30.10,East,98,0.0,0.0,92,0.00,,---,0.00,VWS V14.01,2013-05-03 07:32:00,
2013-05-03 03:33:00,50.8,48.6,30.10,East,97,3.0,5.0,92,0.00,,---,0.00,VWS V14.01,2013-05-03 07:33:00,
2013-05-03 03:34:00,50.8,48.6,30.10,East,96,2.0,5.0,92,0.00,,---,0.00,VWS V14.01,2013-05-03 07:34:00,
2013-05-03 03:35:00,50.8,48.6,30.10,East,96,0.0,5.0,92,0.00,,---,0.00,VWS V14.01,2013-05-03 07:35:00,
2013-05-03 03:36:00,50.8,48.6,30.10,East,96,0.0,6.0,92,0.00,,---,0.00,VWS V14.01,2013-05-03 07:36:00,
2013-05-03 03:37:00,50.8,48.6,30.10,East,96,0.0,6.0,92,0.00,,---,0.00,VWS V14.01,2013-05-03 07:37:00,
2013-05-03 03:38:00,50.8,48.6,30.10,East,96,0.0,6.0,92,0.00,,---,0.00,VWS V14.01,2013-05-03 07:38:00,
2013-05-03 03:39:00,51.0,48.8,30.10,East,96,0.0,6.0,92,0.00,,---,0.00,VWS V14.01,2013-05-03 07:39:00,
2013-05-03 03:40:00,51.0,48.8,30.10,East,96,0.0,6.0,92,0.00,,---,0.00,VWS V14.01,2013-05-03 07:40:00,
2013-05-03 03:41:00,51.0,48.8,30.10,ESE,108,5.0,5.0,92,0.00,,---,0.00,VWS V14.01,2013-05-03 07:41:00,
2013-05-03 03:42:00,51.0,48.8,30.10,ENE,72,0.0,6.0,92,0.00,,---,0.00,VWS V14.01,2013-05-03 07:42:00,
2013-05-03 03:43:00,51.0,48.8,30.10,ESE,114,0.0,6.0,92,0.00,,---,0.00,VWS V14.01,2013-05-03 07:43:00,
2013-05-03 03:44:00,51.0,48.8,30.10,ESE,114,0.0,6.0,92,0.00,,---,0.00,VWS V14.01,2013-05-03 07:44:00,
2013-05-03 03:45:00,51.0,48.8,30.10,East,96,3.0,6.0,92,0.00,,---,0.00,VWS V14.01,2013-05-03 07:45:00,
2013-05-03 03:46:00,51.1,48.9,30.10,SE,125,4.0,6.0,92,0.00,,---,0.00,VWS V14.01,2013-05-03 07:46:00,
2013-05-03 03:47:00,51.1,48.9,30.10,SE,125,0.0,6.0,92,0.00,,---,0.00,VWS V14.01,2013-05-03 07:47:00,
2013-05-03 03:48:00,51.1,48.9,30.10,ESE,103,0.0,6.0,92,0.00,,---,0.00,VWS V14.01,2013-05-03 07:48:00,
2013-05-03 03:49:00,51.1,48.9,30.10,East,97,0.0,6.0,92,0.00,,---,0.00,VWS V14.01,2013-05-03 07:49:00,
2013-05-03 03:50:00,51.3,49.1,30.10,East,96,0.0,6.0,92,0.00,,---,0.00,VWS V14.01,2013-05-03 07:50:00,
2013-05-03 03:51:00,51.3,49.1,30.10,East,94,1.0,8.0,92,0.00,,---,0.00,VWS V14.01,2013-05-03 07:51:00,
2013-05-03 03:52:00,51.3,49.1,30.10,East,94,3.0,8.0,92,0.00,,---,0.00,VWS V14.01,2013-05-03 07:52:00,
2013-05-03 03:53:00,51.3,49.1,30.10,East,90,0.0,8.0,92,0.00,,---,0.00,VWS V14.01,2013-05-03 07:53:00,
2013-05-03 03:54:00,51.3,49.1,30.10,East,94,0.0,8.0,92,0.00,,---,0.00,VWS V14.01,2013-05-03 07:54:00,
2013-05-03 03:55:00,51.4,49.2,30.10,East,100,7.0,8.0,92,0.00,,---,0.00,VWS V14.01,2013-05-03 07:55:00,
2013-05-03 03:56:00,51.4,49.2,30.10,ESE,121,5.0,8.0,92,0.00,,---,0.00,VWS V14.01,2013-05-03 07:56:00,
2013-05-03 03:57:00,51.4,49.2,30.10,ENE,67,2.0,10.0,92,0.00,,---,0.00,VWS V14.01,2013-05-03 07:57:00,
2013-05-03 03:58:00,51.4,49.2,30.10,ESE,113,3.0,10.0,92,0.00,,---,0.00,VWS V14.01,2013-05-03 07:58:00,
2013-05-03 03:59:00,51.4,49.2,30.10,East,87,5.0,10.0,92,0.00,,---,0.00,VWS V14.01,2013-05-03 07:59:00,
2013-05-03 04:00:00,51.4,49.2,30.10,East,90,6.0,10.0,92,0.00,,---,0.00,VWS V14.01,2013-05-03 08:00:00,
2013-05-03 04:01:00,51.6,49.4,30.10,East,98,5.0,5.0,92,0.00,,---,0.00,VWS V14.01,2013-05-03 08:01:00,
2013-05-03 04:02:00,51.6,49.4,30.10,East,94,0.0,5.0,92,0.00,,---,0.00,VWS V14.01,2013-05-03 08:02:00,
2013-05-03 04:03:00,51.6,49.4,30.10,East,94,0.0,5.0,92,0.00,,---,0.00,VWS V14.01,2013-05-03 08:03:00,
2013-05-03 04:04:00,51.6,49.4,30.10,East,94,0.0,5.0,92,0.00,,---,0.00,VWS V14.01,2013-05-03 08:04:00,
2013-05-03 04:05:00,51.6,49.4,30.10,East,97,6.0,7.0,92,0.00,,---,0.00,VWS V14.01,2013-05-03 08:05:00,
2013-05-03 04:06:00,51.6,49.4,30.10,East,93,0.0,7.0,92,0.00,,---,0.00,VWS V14.01,2013-05-03 08:06:00,
2013-05-03 04:07:00,51.6,49.4,30.10,East,93,2.0,7.0,92,0.00,,---,0.00,VWS V14.01,2013-05-03 08:07:00,
2013-05-03 04:08:00,51.6,49.4,30.10,ESE,103,0.0,7.0,92,0.00,,---,0.00,VWS V14.01,2013-05-03 08:08:00,
2013-05-03 04:09:00,51.6,49.4,30.10,East,93,0.0,7.0,92,0.00,,---,0.00,VWS V14.01,2013-05-03 08:09:00,
2013-05-03 04:10:00,51.6,49.4,30.10,ESE,103,0.0,7.0,92,0.00,,---,0.00,VWS V14.01,2013-05-03 08:10:00,
2013-05-03 04:11:00,51.7,49.5,30.10,East,82,0.0,6.0,92,0.00,,---,0.00,VWS V14.01,2013-05-03 08:11:00,
2013-05-03 04:12:00,51.7,49.5,30.10,ENE,76,5.0,6.0,92,0.00,,---,0.00,VWS V14.01,2013-05-03 08:12:00,
2013-05-03 04:13:00,51.7,49.5,30.10,East,98,2.0,6.0,92,0.00,,---,0.00,VWS V14.01,2013-05-03 08:13:00,
2013-05-03 04:14:00,51.7,49.5,30.10,ENE,77,2.0,6.0,92,0.00,,---,0.00,VWS V14.01,2013-05-03 08:14:00,
2013-05-03 04:15:00,51.7,49.5,30.09,East,97,1.0,6.0,92,0.00,,---,0.00,VWS V14.01,2013-05-03 08:15:00,
2013-05-03 04:16:00,51.7,49.5,30.09,East,94,0.0,6.0,92,0.00,,---,0.00,VWS V14.01,2013-05-03 08:16:00,
2013-05-03 04:17:00,51.7,49.5,30.09,East,82,5.0,6.0,92,0.00,,---,0.00,VWS V14.01,2013-05-03 08:17:00,
2013-05-03 04:18:00,51.7,49.5,30.09,East,82,5.0,6.0,92,0.00,,---,0.00,VWS V14.01,2013-05-03 08:18:00,
2013-05-03 04:19:00,51.7,49.5,30.09,East,89,6.0,6.0,92,0.00,,---,0.00,VWS V14.01,2013-05-03 08:19:00,
2013-05-03 04:20:00,51.7,49.2,30.09,East,89,7.0,7.0,91,0.00,,---,0.00,VWS V14.01,2013-05-03 08:20:00,
2013-05-03 04:21:00,51.7,49.2,30.09,East,89,7.0,7.0,91,0.00,,---,0.00,VWS V14.01,2013-05-03 08:21:00,
2013-05-03 04:22:00,51.7,49.2,30.09,East,98,3.0,7.0,91,0.00,,---,0.00,VWS V14.01,2013-05-03 08:22:00,
2013-05-03 04:23:00,51.7,49.2,30.09,East,98,3.0,7.0,91,0.00,,---,0.00,VWS V14.01,2013-05-03 08:23:00,
2013-05-03 04:24:00,51.7,49.2,30.09,East,94,3.0,7.0,91,0.00,,---,0.00,VWS V14.01,2013-05-03 08:24:00,
2013-05-03 04:25:00,51.9,49.4,30.09,East,96,0.0,7.0,91,0.00,,---,0.00,VWS V14.01,2013-05-03 08:25:00,
2013-05-03 04:26:00,51.9,49.4,30.09,East,96,0.0,7.0,91,0.00,,---,0.00,VWS V14.01,2013-05-03 08:26:00,
2013-05-03 04:27:00,51.9,49.4,30.09,East,96,0.0,7.0,91,0.00,,---,0.00,VWS V14.01,2013-05-03 08:27:00,
2013-05-03 04:28:00,52.0,49.5,30.09,East,94,0.0,7.0,91,0.00,,---,0.00,VWS V14.01,2013-05-03 08:28:00,
2013-05-03 04:29:00,52.0,49.2,30.09,East,93,2.0,7.0,90,0.00,,---,0.00,VWS V14.01,2013-05-03 08:29:00,
2013-05-03 04:30:00,52.0,49.2,30.09,East,93,2.0,7.0,90,0.00,,---,0.00,VWS V14.01,2013-05-03 08:30:00,
2013-05-03 04:31:00,52.2,49.4,30.09,ESE,106,0.0,2.0,90,0.00,,---,0.00,VWS V14.01,2013-05-03 08:31:00,
2013-05-03 04:32:00,52.2,49.4,30.09,ESE,110,0.0,2.0,90,0.00,,---,0.00,VWS V14.01,2013-05-03 08:32:00,
2013-05-03 04:33:00,52.2,49.4,30.09,ESE,108,0.0,2.0,90,0.00,,---,0.00,VWS V14.01,2013-05-03 08:33:00,
2013-05-03 04:34:00,52.2,49.4,30.09,SE,127,3.0,3.0,90,0.00,,---,0.00,VWS V14.01,2013-05-03 08:34:00,
2013-05-03 04:35:00,52.3,49.5,30.09,ESE,106,0.0,3.0,90,0.00,,---,0.00,VWS V14.01,2013-05-03 08:35:00,
2013-05-03 04:36:00,52.3,49.5,30.09,East,79,0.0,3.0,90,0.00,,---,0.00,VWS V14.01,2013-05-03 08:36:00,
2013-05-03 04:37:00,52.3,49.5,30.09,East,84,4.0,4.0,90,0.00,,---,0.00,VWS V14.01,2013-05-03 08:37:00,
2013-05-03 04:38:00,52.3,49.2,30.09,East,101,2.0,4.0,89,0.00,,---,0.00,VWS V14.01,2013-05-03 08:38:00,
2013-05-03 04:39:00,52.3,49.2,30.09,East,101,0.0,4.0,89,0.00,,---,0.00,VWS V14.01,2013-05-03 08:39:00,
2013-05-03 04:40:00,52.3,49.2,30.09,East,101,0.0,4.0,89,0.00,,---,0.00,VWS V14.01,2013-05-03 08:40:00,
2013-05-03 04:41:00,52.3,49.2,30.09,East,97,0.0,0.0,89,0.00,,---,0.00,VWS V14.01,2013-05-03 08:41:00,
2013-05-03 04:42:00,52.5,49.4,30.09,East,97,0.0,0.0,89,0.00,,---,0.00,VWS V14.01,2013-05-03 08:42:00,
2013-05-03 04:43:00,52.5,49.4,30.09,East,97,0.0,0.0,89,0.00,,---,0.00,VWS V14.01,2013-05-03 08:43:00,
2013-05-03 04:44:00,52.5,49.4,30.09,East,97,0.0,0.0,89,0.00,,---,0.00,VWS V14.01,2013-05-03 08:44:00,
2013-05-03 04:45:00,52.5,49.4,30.09,East,98,3.0,3.0,89,0.00,,---,0.00,VWS V14.01,2013-05-03 08:45:00,
2013-05-03 04:46:00,52.5,49.4,30.09,East,101,0.0,3.0,89,0.00,,---,0.00,VWS V14.01,2013-05-03 08:46:00,
2013-05-03 04:47:00,52.5,49.4,30.09,East,101,0.0,3.0,89,0.00,,---,0.00,VWS V14.01,2013-05-03 08:47:00,
2013-05-03 04:48:00,52.5,49.4,30.09,East,94,0.0,3.0,89,0.00,,---,0.00,VWS V14.01,2013-05-03 08:48:00,
2013-05-03 04:49:00,52.5,49.4,30.09,ESE,104,4.0,5.0,89,0.00,,---,0.00,VWS V14.01,2013-05-03 08:49:00,
2013-05-03 04:50:00,52.5,49.4,30.09,ESE,103,3.0,5.0,89,0.00,,---,0.00,VWS V14.01,2013-05-03 08:50:00,
2013-05-03 04:51:00,52.5,49.4,30.09,ESE,114,0.0,3.0,89,0.00,,---,0.00,VWS V14.01,2013-05-03 08:51:00,
2013-05-03 04:52:00,52.6,49.5,30.09,ESE,113,3.0,3.0,89,0.00,,---,0.00,VWS V14.01,2013-05-03 08:52:00,
2013-05-03 04:53:00,52.6,49.5,30.09,SE,125,0.0,3.0,89,0.00,,---,0.00,VWS V14.01,2013-05-03 08:53:00,
2013-05-03 04:54:00,52.6,49.5,30.09,SE,125,0.0,3.0,89,0.00,,---,0.00,VWS V14.01,2013-05-03 08:54:00,
2013-05-03 04:55:00,52.6,49.5,30.09,ESE,103,0.0,3.0,89,0.00,,---,0.00,VWS V14.01,2013-05-03 08:55:00,
2013-05-03 04:56:00,52.6,49.2,30.09,ESE,104,0.0,3.0,88,0.00,,---,0.00,VWS V14.01,2013-05-03 08:56:00,
2013-05-03 04:57:00,52.6,49.2,30.09,ESE,103,2.0,3.0,88,0.00,,---,0.00,VWS V14.01,2013-05-03 08:57:00,
2013-05-03 04:58:00,52.6,49.2,30.09,ENE,63,3.0,3.0,88,0.00,,---,0.00,VWS V14.01,2013-05-03 08:58:00,
2013-05-03 04:59:00,52.6,49.2,30.09,ENE,63,0.0,3.0,88,0.00,,---,0.00,VWS V14.01,2013-05-03 08:59:00,
2013-05-03 05:00:00,52.6,49.2,30.09,East,84,1.0,3.0,88,0.00,,---,0.00,VWS V14.01,2013-05-03 09:00:00,
2013-05-03 05:01:00,52.6,49.2,30.09,East,84,5.0,6.0,88,0.00,,---,0.00,VWS V14.01,2013-05-03 09:01:00,
2013-05-03 05:02:00,52.6,49.2,30.09,East,84,0.0,6.0,88,0.00,,---,0.00,VWS V14.01,2013-05-03 09:02:00,
2013-05-03 05:03:00,52.6,49.2,30.09,East,101,1.0,6.0,88,0.00,,---,0.00,VWS V14.01,2013-05-03 09:03:00,
2013-05-03 05:04:00,52.6,49.2,30.09,East,101,0.0,6.0,88,0.00,,---,0.00,VWS V14.01,2013-05-03 09:04:00,
2013-05-03 05:05:00,52.6,49.2,30.09,East,101,0.0,6.0,88,0.00,,---,0.00,VWS V14.01,2013-05-03 09:05:00,
2013-05-03 05:06:00,52.6,49.2,30.09,East,101,0.0,6.0,88,0.00,,---,0.00,VWS V14.01,2013-05-03 09:06:00,
2013-05-03 05:07:00,52.8,49.3,30.09,ESE,106,2.0,6.0,88,0.00,,---,0.00,VWS V14.01,2013-05-03 09:07:00,
2013-05-03 05:08:00,52.8,49.3,30.09,ESE,104,1.0,6.0,88,0.00,,---,0.00,VWS V14.01,2013-05-03 09:08:00,
2013-05-03 05:09:00,52.8,49.3,30.09,ESE,104,0.0,6.0,88,0.00,,---,0.00,VWS V14.01,2013-05-03 09:09:00,
2013-05-03 05:10:00,52.8,49.0,30.09,ESE,103,0.0,6.0,87,0.00,,---,0.00,VWS V14.01,2013-05-03 09:10:00,
2013-05-03 05:11:00,52.6,48.8,30.09,ESE,104,0.0,0.0,87,0.00,,---,0.00,VWS V14.01,2013-05-03 09:11:00,
2013-05-03 05:12:00,52.6,48.8,30.09,ESE,103,4.0,5.0,87,0.00,,---,0.00,VWS V14.01,2013-05-03 09:12:00,
2013-05-03 05:13:00,52.6,48.8,30.09,East,90,0.0,5.0,87,0.00,,---,0.00,VWS V14.01,2013-05-03 09:13:00,
2013-05-03 05:14:00,52.6,48.8,30.09,East,90,0.0,5.0,87,0.00,,---,0.00,VWS V14.01,2013-05-03 09:14:00,
2013-05-03 05:15:00,52.6,48.8,30.09,East,98,3.0,5.0,87,0.00,,---,0.00,VWS V14.01,2013-05-03 09:15:00,
2013-05-03 05:16:00,52.6,48.8,30.09,East,91,2.0,5.0,87,0.00,,---,0.00,VWS V14.01,2013-05-03 09:16:00,
2013-05-03 05:17:00,52.8,49.0,30.09,East,90,0.0,5.0,87,0.00,,---,0.00,VWS V14.01,2013-05-03 09:17:00,
2013-05-03 05:18:00,52.8,49.0,30.09,East,89,0.0,5.0,87,0.00,,---,0.00,VWS V14.01,2013-05-03 09:18:00,
2013-05-03 05:19:00,52.8,49.0,30.09,East,94,0.0,5.0,87,0.00,,---,0.00,VWS V14.01,2013-05-03 09:19:00,
2013-05-03 05:20:00,52.8,49.0,30.09,East,94,0.0,5.0,87,0.00,,---,0.00,VWS V14.01,2013-05-03 09:20:00,
2013-05-03 05:21:00,52.8,49.0,30.09,East,94,0.0,0.0,87,0.00,,---,0.00,VWS V14.01,2013-05-03 09:21:00,
2013-05-03 05:22:00,52.8,49.0,30.09,East,94,0.0,0.0,87,0.00,,---,0.00,VWS V14.01,2013-05-03 09:22:00,
2013-05-03 05:23:00,52.8,49.0,30.09,East,94,0.0,0.0,87,0.00,,---,0.00,VWS V14.01,2013-05-03 09:23:00,
2013-05-03 05:24:00,52.9,49.1,30.09,East,93,0.0,1.0,87,0.00,,---,0.00,VWS V14.01,2013-05-03 09:24:00,
2013-05-03 05:25:00,52.9,49.1,30.09,East,93,0.0,1.0,87,0.00,,---,0.00,VWS V14.01,2013-05-03 09:25:00,
2013-05-03 05:26:00,52.9,49.1,30.09,East,93,0.0,1.0,87,0.00,,---,0.00,VWS V14.01,2013-05-03 09:26:00,
2013-05-03 05:27:00,52.9,49.1,30.09,East,93,0.0,1.0,87,0.00,,---,0.00,VWS V14.01,2013-05-03 09:27:00,
2013-05-03 05:28:00,52.9,49.1,30.09,East,94,0.0,6.0,87,0.00,,---,0.00,VWS V14.01,2013-05-03 09:28:00,
2013-05-03 05:29:00,52.9,49.1,30.09,ENE,67,3.0,6.0,87,0.00,,---,0.00,VWS V14.01,2013-05-03 09:29:00,
2013-05-03 05:30:00,52.9,49.1,30.08,ESE,114,0.0,6.0,87,0.00,,---,0.00,VWS V14.01,2013-05-03 09:30:00,
2013-05-03 05:31:00,52.9,49.1,30.08,ESE,114,0.0,0.0,87,0.00,,---,0.00,VWS V14.01,2013-05-03 09:31:00,
2013-05-03 05:32:00,52.9,49.1,30.08,ESE,114,0.0,0.0,87,0.00,,---,0.00,VWS V14.01,2013-05-03 09:32:00,
2013-05-03 05:33:00,52.9,48.8,30.08,ESE,103,0.0,0.0,86,0.00,,---,0.00,VWS V14.01,2013-05-03 09:33:00,
2013-05-03 05:34:00,52.9,48.8,30.08,East,91,0.0,1.0,86,0.00,,---,0.00,VWS V14.01,2013-05-03 09:34:00,
2013-05-03 05:35:00,52.9,48.8,30.08,East,90,0.0,1.0,86,0.00,,---,0.00,VWS V14.01,2013-05-03 09:35:00,
2013-05-03 05:36:00,52.9,48.8,30.08,East,97,0.0,2.0,86,0.00,,---,0.00,VWS V14.01,2013-05-03 09:36:00,
2013-05-03 05:37:00,52.9,48.8,30.08,East,97,0.0,2.0,86,0.00,,---,0.00,VWS V14.01,2013-05-03 09:37:00,
2013-05-03 05:38:00,52.9,48.8,30.08,ENE,69,0.0,5.0,86,0.00,,---,0.00,VWS V14.01,2013-05-03 09:38:00,
2013-05-03 05:39:00,52.9,48.8,30.08,East,98,2.0,5.0,86,0.00,,---,0.00,VWS V14.01,2013-05-03 09:39:00,
2013-05-03 05:40:00,53.1,49.0,30.08,East,100,0.0,5.0,86,0.00,,---,0.00,VWS V14.01,2013-05-03 09:40:00,
2013-05-03 05:41:00,53.1,49.0,30.08,East,100,0.0,0.0,86,0.00,,---,0.00,VWS V14.01,2013-05-03 09:41:00,
2013-05-03 05:42:00,53.1,49.0,30.08,East,100,0.0,0.0,86,0.00,,---,0.00,VWS V14.01,2013-05-03 09:42:00,
2013-05-03 05:43:00,53.1,49.0,30.08,ESE,111,1.0,3.0,86,0.00,,---,0.00,VWS V14.01,2013-05-03 09:43:00,
2013-05-03 05:44:00,53.1,49.0,30.08,East,98,5.0,5.0,86,0.00,,---,0.00,VWS V14.01,2013-05-03 09:44:00,
2013-05-03 05:45:00,53.2,49.1,30.08,East,101,0.0,5.0,86,0.00,,---,0.00,VWS V14.01,2013-05-03 09:45:00,
2013-05-03 05:46:00,53.2,49.1,30.08,East,101,0.0,5.0,86,0.00,,---,0.00,VWS V14.01,2013-05-03 09:46:00,
2013-05-03 05:47:00,53.2,49.1,30.08,East,101,0.0,5.0,86,0.00,,---,0.00,VWS V14.01,2013-05-03 09:47:00,
2013-05-03 05:48:00,53.2,49.1,30.08,East,87,0.0,6.0,86,0.00,,---,0.00,VWS V14.01,2013-05-03 09:48:00,
2013-05-03 05:49:00,53.2,49.1,30.08,ENE,65,0.0,6.0,86,0.00,,---,0.00,VWS V14.01,2013-05-03 09:49:00,
2013-05-03 05:50:00,53.2,49.1,30.08,East,86,5.0,6.0,86,0.00,,---,0.00,VWS V14.01,2013-05-03 09:50:00,
2013-05-03 05:51:00,53.2,49.1,30.08,East,100,0.0,5.0,86,0.00,,---,0.00,VWS V14.01,2013-05-03 09:51:00,
2013-05-03 05:52:00,53.3,48.9,30.08,East,98,0.0,5.0,85,0.00,,---,0.00,VWS V14.01,2013-05-03 09:52:00,
2013-05-03 05:53:00,53.3,48.9,30.08,East,98,0.0,5.0,85,0.00,,---,0.00,VWS V14.01,2013-05-03 09:53:00,
2013-05-03 05:54:00,53.3,48.9,30.08,East,87,0.0,5.0,85,0.00,,---,0.00,VWS V14.01,2013-05-03 09:54:00,
2013-05-03 05:55:00,53.3,48.9,30.08,East,91,0.0,5.0,85,0.00,,---,0.00,VWS V14.01,2013-05-03 09:55:00,
2013-05-03 05:56:00,53.5,49.1,30.08,East,91,0.0,5.0,85,0.00,,---,0.00,VWS V14.01,2013-05-03 09:56:00,
2013-05-03 05:57:00,53.5,49.1,30.08,East,91,0.0,5.0,85,0.00,,---,0.00,VWS V14.01,2013-05-03 09:57:00,
2013-05-03 05:58:00,53.5,49.1,30.08,East,83,4.0,5.0,85,0.00,,---,0.00,VWS V14.01,2013-05-03 09:58:00,
2013-05-03 05:59:00,53.5,49.1,30.08,East,97,0.0,5.0,85,0.00,,---,0.00,VWS V14.01,2013-05-03 09:59:00,
2013-05-03 06:00:00,53.5,49.1,30.07,ESE,108,3.0,5.0,85,0.00,,---,0.00,VWS V14.01,2013-05-03 10:00:00,
2013-05-03 06:01:00,53.5,49.1,30.07,ESE,106,0.0,3.0,85,0.00,,---,0.00,VWS V14.01,2013-05-03 10:01:00,
2013-05-03 06:02:00,53.5,49.1,30.07,ESE,104,0.0,3.0,85,0.00,,---,0.00,VWS V14.01,2013-05-03 10:02:00,
2013-05-03 06:03:00,53.5,49.1,30.07,East,96,4.0,6.0,85,0.00,,---,0.00,VWS V14.01,2013-05-03 10:03:00,
2013-05-03 06:04:00,53.5,49.1,30.07,ESE,103,0.0,6.0,85,0.00,,---,0.00,VWS V14.01,2013-05-03 10:04:00,
2013-05-03 06:05:00,53.5,49.1,30.07,ESE,104,0.0,6.0,85,0.00,,---,0.00,VWS V14.01,2013-05-03 10:05:00,
2013-05-03 06:06:00,53.5,49.1,30.07,ESE,108,3.0,6.0,85,0.00,,---,0.00,VWS V14.01,2013-05-03 10:06:00,
2013-05-03 06:07:00,53.5,49.1,30.07,East,100,0.0,6.0,85,0.00,,---,0.00,VWS V14.01,2013-05-03 10:07:00,
2013-05-03 06:08:00,53.5,49.1,30.07,ESE,104,0.0,6.0,85,0.00,,---,0.00,VWS V14.01,2013-05-03 10:08:00,
2013-05-03 06:09:00,53.5,49.1,30.07,ENE,67,3.0,6.0,85,0.00,,---,0.00,VWS V14.01,2013-05-03 10:09:00,
2013-05-03 06:10:00,53.5,49.1,30.07,East,94,3.0,6.0,85,0.00,,---,0.00,VWS V14.01,2013-05-03 10:10:00,
2013-05-03 06:11:00,53.5,49.1,30.07,East,91,0.0,3.0,85,0.00,,---,0.00,VWS V14.01,2013-05-03 10:11:00,
2013-05-03 06:12:00,53.5,49.1,30.07,East,94,2.0,5.0,85,0.00,,---,0.00,VWS V14.01,2013-05-03 10:12:00,
2013-05-03 06:13:00,53.5,49.1,30.07,East,91,4.0,5.0,85,0.00,,---,0.00,VWS V14.01,2013-05-03 10:13:00,
2013-05-03 06:14:00,53.5,49.1,30.07,ESE,104,3.0,6.0,85,0.00,,---,0.00,VWS V14.01,2013-05-03 10:14:00,
2013-05-03 06:15:00,53.5,49.1,30.06,East,96,1.0,6.0,85,0.00,,---,0.00,VWS V14.01,2013-05-03 10:15:00,
2013-05-03 06:16:00,53.5,48.8,30.06,East,87,3.0,6.0,84,0.00,,---,0.00,VWS V14.01,2013-05-03 10:16:00,
2013-05-03 06:17:00,53.5,48.8,30.06,ESE,107,3.0,6.0,84,0.00,,---,0.00,VWS V14.01,2013-05-03 10:17:00,
2013-05-03 06:18:00,53.5,48.8,30.06,ESE,108,2.0,6.0,84,0.00,,---,0.00,VWS V14.01,2013-05-03 10:18:00,
2013-05-03 06:19:00,53.5,48.8,30.06,East,97,2.0,6.0,84,0.00,,---,0.00,VWS V14.01,2013-05-03 10:19:00,
2013-05-03 06:20:00,53.5,49.1,30.06,East,91,3.0,6.0,85,0.00,,---,0.00,VWS V14.01,2013-05-03 10:20:00,
2013-05-03 06:21:00,53.5,49.1,30.06,East,82,0.0,6.0,85,0.00,,---,0.00,VWS V14.01,2013-05-03 10:21:00,
2013-05-03 06:22:00,53.3,48.9,30.06,East,91,2.0,6.0,85,0.00,,---,0.00,VWS V14.01,2013-05-03 10:22:00,
2013-05-03 06:23:00,53.3,48.9,30.06,East,86,5.0,6.0,85,0.00,,---,0.00,VWS V14.01,2013-05-03 10:23:00,
2013-05-03 06:24:00,53.3,48.9,30.06,East,86,5.0,6.0,85,0.00,,---,0.00,VWS V14.01,2013-05-03 10:24:00,
2013-05-03 06:25:00,53.3,48.9,30.06,East,86,5.0,6.0,85,0.00,,---,0.00,VWS V14.01,2013-05-03 10:25:00,
2013-05-03 06:26:00,53.3,48.9,30.06,East,96,0.0,6.0,85,0.00,,---,0.00,VWS V14.01,2013-05-03 10:26:00,
2013-05-03 06:27:00,53.3,48.9,30.06,SE,130,5.0,6.0,85,0.00,,---,0.00,VWS V14.01,2013-05-03 10:27:00,
2013-05-03 06:28:00,53.3,48.9,30.06,SE,130,5.0,6.0,85,0.00,,---,0.00,VWS V14.01,2013-05-03 10:28:00,
2013-05-03 06:29:00,53.3,48.9,30.06,East,90,6.0,6.0,85,0.00,,---,0.00,VWS V14.01,2013-05-03 10:29:00,
2013-05-03 06:30:00,53.3,48.9,30.06,ESE,104,5.0,6.0,85,0.00,,---,0.00,VWS V14.01,2013-05-03 10:30:00,
2013-05-03 06:31:00,53.3,48.9,30.06,ESE,114,6.0,6.0,85,0.00,,---,0.00,VWS V14.01,2013-05-03 10:31:00,
2013-05-03 06:32:00,53.3,48.9,30.06,ENE,76,5.0,6.0,85,0.00,,---,0.00,VWS V14.01,2013-05-03 10:32:00,
2013-05-03 06:33:00,53.3,48.9,30.06,East,97,3.0,6.0,85,0.00,,---,0.00,VWS V14.01,2013-05-03 10:33:00,
2013-05-03 06:34:00,53.3,48.9,30.06,SE,127,3.0,6.0,85,0.00,,---,0.00,VWS V14.01,2013-05-03 10:34:00,
2013-05-03 06:35:00,53.3,48.9,30.06,ENE,77,2.0,6.0,85,0.00,,---,0.00,VWS V14.01,2013-05-03 10:35:00,
2013-05-03 06:36:00,53.3,48.9,30.06,East,98,0.0,6.0,85,0.00,,---,0.00,VWS V14.01,2013-05-03 10:36:00,
2013-05-03 06:37:00,53.3,48.9,30.06,ESE,118,0.0,6.0,85,0.00,,---,0.00,VWS V14.01,2013-05-03 10:37:00,
2013-05-03 06:38:00,53.3,48.9,30.06,East,93,5.0,7.0,85,0.00,,---,0.00,VWS V14.01,2013-05-03 10:38:00,
2013-05-03 06:39:00,53.3,48.9,30.06,East,90,5.0,7.0,85,0.00,,---,0.00,VWS V14.01,2013-05-03 10:39:00,
2013-05-03 06:40:00,53.3,48.9,30.06,East,97,7.0,7.0,85,0.00,,---,0.00,VWS V14.01,2013-05-03 10:40:00,
2013-05-03 06:41:00,53.2,48.8,30.06,East,89,0.0,7.0,85,0.00,,---,0.00,VWS V14.01,2013-05-03 10:41:00,
2013-05-03 06:42:00,53.2,48.8,30.06,ENE,77,3.0,7.0,85,0.00,,---,0.00,VWS V14.01,2013-05-03 10:42:00,
2013-05-03 06:43:00,53.2,48.8,30.06,East,90,0.0,7.0,85,0.00,,---,0.00,VWS V14.01,2013-05-03 10:43:00,
2013-05-03 06:44:00,53.2,48.5,30.06,East,96,6.0,8.0,84,0.00,,---,0.00,VWS V14.01,2013-05-03 10:44:00,
2013-05-03 06:45:00,53.2,48.5,30.07,East,100,5.0,8.0,84,0.00,,---,0.00,VWS V14.01,2013-05-03 10:45:00,
2013-05-03 06:46:00,53.2,48.5,30.07,East,98,3.0,8.0,84,0.00,,---,0.00,VWS V14.01,2013-05-03 10:46:00,
2013-05-03 06:47:00,53.2,48.5,30.07,East,89,1.0,8.0,84,0.00,,---,0.00,VWS V14.01,2013-05-03 10:47:00,
2013-05-03 06:48:00,53.2,48.5,30.07,ESE,111,3.0,8.0,84,0.00,,---,0.00,VWS V14.01,2013-05-03 10:48:00,
2013-05-03 06:49:00,53.2,48.5,30.07,East,93,5.0,8.0,84,0.00,,---,0.00,VWS V14.01,2013-05-03 10:49:00,
2013-05-03 06:50:00,53.2,48.5,30.07,East,90,0.0,8.0,84,0.00,,---,0.00,VWS V14.01,2013-05-03 10:50:00,
2013-05-03 06:51:00,53.2,48.5,30.07,East,90,3.0,3.0,84,0.00,,---,0.00,VWS V14.01,2013-05-03 10:51:00,
2013-05-03 06:52:00,53.2,48.5,30.07,East,94,2.0,3.0,84,0.00,,---,0.00,VWS V14.01,2013-05-03 10:52:00,
2013-05-03 06:53:00,53.3,48.6,30.07,East,94,3.0,5.0,84,0.00,,---,0.00,VWS V14.01,2013-05-03 10:53:00,
2013-05-03 06:54:00,53.3,48.6,30.07,East,91,5.0,5.0,84,0.00,,---,0.00,VWS V14.01,2013-05-03 10:54:00,
2013-05-03 06:55:00,53.3,48.6,30.07,East,79,0.0,5.0,84,0.00,,---,0.00,VWS V14.01,2013-05-03 10:55:00,
2013-05-03 06:56:00,53.2,48.5,30.07,ESE,111,6.0,6.0,84,0.00,,---,0.00,VWS V14.01,2013-05-03 10:56:00,
2013-05-03 06:57:00,53.2,48.5,30.07,East,93,0.0,6.0,84,0.00,,---,0.00,VWS V14.01,2013-05-03 10:57:00,
2013-05-03 06:58:00,53.2,48.5,30.07,East,89,2.0,6.0,84,0.00,,---,0.00,VWS V14.01,2013-05-03 10:58:00,
2013-05-03 06:59:00,53.2,48.5,30.07,East,89,2.0,6.0,84,0.00,,---,0.00,VWS V14.01,2013-05-03 10:59:00,
2013-05-03 07:00:00,53.2,48.5,30.06,East,98,0.0,6.0,84,0.00,,---,0.00,VWS V14.01,2013-05-03 11:00:00,
2013-05-03 07:01:00,53.2,48.5,30.06,ESE,111,0.0,0.0,84,0.00,,---,0.00,VWS V14.01,2013-05-03 11:01:00,
2013-05-03 07:02:00,53.2,48.2,30.06,East,90,2.0,7.0,83,0.00,,---,0.00,VWS V14.01,2013-05-03 11:02:00,
2013-05-03 07:03:00,53.2,48.2,30.06,ESE,118,3.0,7.0,83,0.00,,---,0.00,VWS V14.01,2013-05-03 11:03:00,
2013-05-03 07:04:00,53.2,48.2,30.06,ENE,65,6.0,7.0,83,0.00,,---,0.00,VWS V14.01,2013-05-03 11:04:00,
2013-05-03 07:05:00,53.2,48.2,30.06,NE,49,0.0,8.0,83,0.00,,---,0.00,VWS V14.01,2013-05-03 11:05:00,
2013-05-03 07:06:00,53.2,48.2,30.06,East,97,7.0,8.0,83,0.00,,---,0.00,VWS V14.01,2013-05-03 11:06:00,
2013-05-03 07:07:00,53.2,48.2,30.06,East,94,0.0,8.0,83,0.00,,---,0.00,VWS V14.01,2013-05-03 11:07:00,
2013-05-03 07:08:00,53.2,48.2,30.06,ESE,104,0.0,8.0,83,0.00,,---,0.00,VWS V14.01,2013-05-03 11:08:00,
2013-05-03 07:09:00,53.2,48.2,30.06,East,98,2.0,8.0,83,0.00,,---,0.00,VWS V14.01,2013-05-03 11:09:00,
2013-05-03 07:10:00,53.2,48.2,30.06,ENE,73,6.0,8.0,83,0.00,,---,0.00,VWS V14.01,2013-05-03 11:10:00,
2013-05-03 07:11:00,53.2,48.2,30.06,East,91,5.0,6.0,83,0.00,,---,0.00,VWS V14.01,2013-05-03 11:11:00,
2013-05-03 07:12:00,53.2,48.2,30.06,East,97,5.0,6.0,83,0.00,,---,0.00,VWS V14.01,2013-05-03 11:12:00,
2013-05-03 07:13:00,53.2,48.2,30.06,ENE,76,0.0,6.0,83,0.00,,---,0.00,VWS V14.01,2013-05-03 11:13:00,
2013-05-03 07:14:00,53.2,48.2,30.06,East,94,0.0,6.0,83,0.00,,---,0.00,VWS V14.01,2013-05-03 11:14:00,
2013-05-03 07:15:00,53.2,48.2,30.06,East,98,8.0,8.0,83,0.00,,---,0.00,VWS V14.01,2013-05-03 11:15:00,
2013-05-03 07:16:00,53.2,48.2,30.06,ENE,76,4.0,8.0,83,0.00,,---,0.00,VWS V14.01,2013-05-03 11:16:00,
2013-05-03 07:17:00,53.2,48.2,30.06,East,98,4.0,8.0,83,0.00,,---,0.00,VWS V14.01,2013-05-03 11:17:00,
2013-05-03 07:18:00,53.2,48.2,30.06,East,98,4.0,8.0,83,0.00,,---,0.00,VWS V14.01,2013-05-03 11:18:00,
2013-05-03 07:19:00,53.2,48.2,30.06,East,94,5.0,8.0,83,0.00,,---,0.00,VWS V14.01,2013-05-03 11:19:00,
2013-05-03 07:20:00,53.1,48.1,30.06,ENE,70,5.0,8.0,83,0.00,,---,0.00,VWS V14.01,2013-05-03 11:20:00,
2013-05-03 07:21:00,53.1,48.1,30.06,East,91,6.0,6.0,83,0.00,,---,0.00,VWS V14.01,2013-05-03 11:21:00,
2013-05-03 07:22:00,53.1,48.1,30.06,ENE,73,4.0,7.0,83,0.00,,---,0.00,VWS V14.01,2013-05-03 11:22:00,
2013-05-03 07:23:00,53.1,48.1,30.06,East,94,3.0,7.0,83,0.00,,---,0.00,VWS V14.01,2013-05-03 11:23:00,
2013-05-03 07:24:00,53.1,48.1,30.06,ENE,77,3.0,7.0,83,0.00,,---,0.00,VWS V14.01,2013-05-03 11:24:00,
2013-05-03 07:25:00,53.1,48.1,30.06,East,79,5.0,7.0,83,0.00,,---,0.00,VWS V14.01,2013-05-03 11:25:00,
2013-05-03 07:26:00,52.9,47.9,30.06,East,100,6.0,7.0,83,0.00,,---,0.00,VWS V14.01,2013-05-03 11:26:00,
2013-05-03 07:27:00,52.9,47.9,30.06,East,93,3.0,7.0,83,0.00,,---,0.00,VWS V14.01,2013-05-03 11:27:00,
2013-05-03 07:28:00,52.9,47.9,30.06,East,91,6.0,7.0,83,0.00,,---,0.00,VWS V14.01,2013-05-03 11:28:00,
2013-05-03 07:29:00,52.9,47.9,30.06,East,91,6.0,7.0,83,0.00,,---,0.00,VWS V14.01,2013-05-03 11:29:00,
2013-05-03 07:30:00,52.9,47.9,30.06,East,93,6.0,7.0,83,0.00,,---,0.00,VWS V14.01,2013-05-03 11:30:00,
2013-05-03 07:31:00,52.9,47.9,30.06,ESE,108,5.0,5.0,83,0.00,,---,0.00,VWS V14.01,2013-05-03 11:31:00,
2013-05-03 07:32:00,52.9,47.9,30.06,East,100,0.0,6.0,83,0.00,,---,0.00,VWS V14.01,2013-05-03 11:32:00,
2013-05-03 07:33:00,52.9,47.9,30.06,East,89,7.0,11.0,83,0.00,,---,0.00,VWS V14.01,2013-05-03 11:33:00,
2013-05-03 07:34:00,52.9,47.9,30.06,SE,130,3.0,12.0,83,0.00,,---,0.00,VWS V14.01,2013-05-03 11:34:00,
2013-05-03 07:35:00,52.9,47.9,30.06,ESE,108,3.0,12.0,83,0.00,,---,0.00,VWS V14.01,2013-05-03 11:35:00,
2013-05-03 07:36:00,52.9,47.9,30.06,East,98,0.0,12.0,83,0.00,,---,0.00,VWS V14.01,2013-05-03 11:36:00,
2013-05-03 07:37:00,52.9,47.9,30.06,East,93,1.0,12.0,83,0.00,,---,0.00,VWS V14.01,2013-05-03 11:37:00,
2013-05-03 07:38:00,52.9,47.9,30.06,East,97,0.0,12.0,83,0.00,,---,0.00,VWS V14.01,2013-05-03 11:38:00,
2013-05-03 07:39:00,52.9,47.9,30.06,ENE,58,1.0,12.0,83,0.00,,---,0.00,VWS V14.01,2013-05-03 11:39:00,
2013-05-03 07:40:00,52.9,47.9,30.06,East,79,3.0,12.0,83,0.00,,---,0.00,VWS V14.01,2013-05-03 11:40:00,
2013-05-03 07:41:00,52.9,47.9,30.06,East,79,3.0,3.0,83,0.00,,---,0.00,VWS V14.01,2013-05-03 11:41:00,
2013-05-03 07:42:00,52.9,47.9,30.06,East,79,3.0,3.0,83,0.00,,---,0.00,VWS V14.01,2013-05-03 11:42:00,
2013-05-03 07:43:00,52.9,47.9,30.06,East,101,2.0,3.0,83,0.00,,---,0.00,VWS V14.01,2013-05-03 11:43:00,
2013-05-03 07:44:00,52.9,47.9,30.06,East,94,3.0,6.0,83,0.00,,---,0.00,VWS V14.01,2013-05-03 11:44:00,
2013-05-03 07:45:00,52.8,48.1,30.06,SE,132,7.0,7.0,84,0.00,,---,0.00,VWS V14.01,2013-05-03 11:45:00,
2013-05-03 07:46:00,52.8,48.1,30.06,East,93,4.0,12.0,84,0.00,,---,0.00,VWS V14.01,2013-05-03 11:46:00,
2013-05-03 07:47:00,52.6,47.9,30.06,East,87,3.0,12.0,84,0.00,,---,0.00,VWS V14.01,2013-05-03 11:47:00,
2013-05-03 07:48:00,52.6,47.9,30.06,East,86,4.0,12.0,84,0.00,,---,0.00,VWS V14.01,2013-05-03 11:48:00,
2013-05-03 07:49:00,52.5,47.8,30.06,ESE,104,0.0,12.0,84,0.00,,---,0.00,VWS V14.01,2013-05-03 11:49:00,
2013-05-03 07:50:00,52.5,47.8,30.06,East,91,3.0,12.0,84,0.00,,---,0.00,VWS V14.01,2013-05-03 11:50:00,
2013-05-03 07:51:00,52.5,47.8,30.06,East,89,7.0,7.0,84,0.00,,---,0.00,VWS V14.01,2013-05-03 11:51:00,
2013-05-03 07:52:00,52.3,47.6,30.06,East,100,6.0,7.0,84,0.00,,---,0.00,VWS V14.01,2013-05-03 11:52:00,
2013-05-03 07:53:00,52.3,47.6,30.06,ESE,107,5.0,7.0,84,0.00,,---,0.00,VWS V14.01,2013-05-03 11:53:00,
2013-05-03 07:54:00,52.3,47.6,30.06,East,79,5.0,7.0,84,0.00,,---,0.00,VWS V14.01,2013-05-03 11:54:00,
2013-05-03 07:55:00,52.3,47.9,30.06,East,97,2.0,7.0,85,0.00,,---,0.00,VWS V14.01,2013-05-03 11:55:00,
2013-05-03 07:56:00,52.2,47.8,30.06,East,86,6.0,7.0,85,0.00,,---,0.00,VWS V14.01,2013-05-03 11:56:00,
2013-05-03 07:57:00,52.2,47.8,30.06,East,94,4.0,8.0,85,0.00,,---,0.00,VWS V14.01,2013-05-03 11:57:00,
2013-05-03 07:58:00,52.2,47.8,30.06,ENE,60,10.0,10.0,85,0.00,,---,0.00,VWS V14.01,2013-05-03 11:58:00,
2013-05-03 07:59:00,52.2,47.8,30.06,East,90,5.0,10.0,85,0.00,,---,0.00,VWS V14.01,2013-05-03 11:59:00,
2013-05-03 08:00:00,52.2,47.8,30.07,ESE,106,2.0,10.0,85,0.00,,---,0.00,VWS V14.01,2013-05-03 12:00:00,
2013-05-03 08:01:00,52.2,47.8,30.07,ESE,106,2.0,2.0,85,0.00,,---,0.00,VWS V14.01,2013-05-03 12:01:00,
2013-05-03 08:02:00,52.2,47.8,30.07,ESE,106,2.0,2.0,85,0.00,,---,0.00,VWS V14.01,2013-05-03 12:02:00,
2013-05-03 08:03:00,52.2,47.8,30.07,SE,131,7.0,7.0,85,0.00,,---,0.00,VWS V14.01,2013-05-03 12:03:00,
2013-05-03 08:04:00,52.2,47.5,30.07,East,93,7.0,7.0,84,0.00,,---,0.00,VWS V14.01,2013-05-03 12:04:00,
2013-05-03 08:05:00,52.2,47.5,30.07,East,89,0.0,7.0,84,0.00,,---,0.00,VWS V14.01,2013-05-03 12:05:00,
2013-05-03 08:06:00,52.2,47.5,30.07,ESE,108,2.0,7.0,84,0.00,,---,0.00,VWS V14.01,2013-05-03 12:06:00,
2013-05-03 08:07:00,52.3,47.6,30.07,East,83,7.0,7.0,84,0.00,,---,0.00,VWS V14.01,2013-05-03 12:07:00,
2013-05-03 08:08:00,52.3,47.6,30.07,East,98,3.0,16.0,84,0.00,,---,0.00,VWS V14.01,2013-05-03 12:08:00,
2013-05-03 08:09:00,52.3,47.6,30.07,East,87,5.0,16.0,84,0.00,,---,0.00,VWS V14.01,2013-05-03 12:09:00,
2013-05-03 08:10:00,52.3,47.6,30.07,East,97,7.0,16.0,84,0.00,,---,0.00,VWS V14.01,2013-05-03 12:10:00,
2013-05-03 08:11:00,52.3,47.6,30.07,SE,135,6.0,7.0,84,0.00,,---,0.00,VWS V14.01,2013-05-03 12:11:00,
2013-05-03 08:12:00,52.3,47.6,30.07,East,94,6.0,7.0,84,0.00,,---,0.00,VWS V14.01,2013-05-03 12:12:00,
2013-05-03 08:13:00,52.3,47.6,30.07,East,86,7.0,7.0,84,0.00,,---,0.00,VWS V14.01,2013-05-03 12:13:00,
2013-05-03 08:14:00,52.3,47.6,30.07,East,98,5.0,7.0,84,0.00,,---,0.00,VWS V14.01,2013-05-03 12:14:00,
2013-05-03 08:15:00,52.3,47.6,30.07,ESE,106,0.0,7.0,84,0.00,,---,0.00,VWS V14.01,2013-05-03 12:15:00,
2013-05-03 08:16:00,52.3,47.3,30.07,East,98,11.0,11.0,83,0.00,,---,0.00,VWS V14.01,2013-05-03 12:16:00,
2013-05-03 08:17:00,52.3,47.3,30.07,East,89,3.0,11.0,83,0.00,,---,0.00,VWS V14.01,2013-05-03 12:17:00,
2013-05-03 08:18:00,52.3,47.3,30.07,East,86,3.0,11.0,83,0.00,,---,0.00,VWS V14.01,2013-05-03 12:18:00,
2013-05-03 08:19:00,52.3,47.3,30.07,East,93,5.0,11.0,83,0.00,,---,0.00,VWS V14.01,2013-05-03 12:19:00,
2013-05-03 08:20:00,52.3,47.3,30.07,East,94,4.0,11.0,83,0.00,,---,0.00,VWS V14.01,2013-05-03 12:20:00,
2013-05-03 08:21:00,52.5,47.5,30.07,ESE,103,1.0,7.0,83,0.00,,---,0.00,VWS V14.01,2013-05-03 12:21:00,
2013-05-03 08:22:00,52.5,47.5,30.07,ENE,69,3.0,8.0,83,0.00,,---,0.00,VWS V14.01,2013-05-03 12:22:00,
2013-05-03 08:23:00,52.5,47.2,30.07,East,89,1.0,8.0,82,0.00,,---,0.00,VWS V14.01,2013-05-03 12:23:00,
2013-05-03 08:24:00,52.5,47.2,30.07,East,93,3.0,8.0,82,0.00,,---,0.00,VWS V14.01,2013-05-03 12:24:00,
2013-05-03 08:25:00,52.5,47.2,30.07,ESE,103,2.0,8.0,82,0.00,,---,0.00,VWS V14.01,2013-05-03 12:25:00,
2013-05-03 08:26:00,52.5,47.2,30.07,East,82,1.0,8.0,82,0.00,,---,0.00,VWS V14.01,2013-05-03 12:26:00,
2013-05-03 08:27:00,52.5,47.2,30.07,SE,134,3.0,8.0,82,0.00,,---,0.00,VWS V14.01,2013-05-03 12:27:00,
2013-05-03 08:28:00,52.5,47.2,30.07,East,79,6.0,8.0,82,0.00,,---,0.00,VWS V14.01,2013-05-03 12:28:00,
2013-05-03 08:29:00,52.5,47.2,30.07,ENE,77,6.0,8.0,82,0.00,,---,0.00,VWS V14.01,2013-05-03 12:29:00,
2013-05-03 08:30:00,52.5,47.2,30.07,East,91,6.0,8.0,82,0.00,,---,0.00,VWS V14.01,2013-05-03 12:30:00,
2013-05-03 08:31:00,52.5,47.2,30.07,East,91,6.0,7.0,82,0.00,,---,0.00,VWS V14.01,2013-05-03 12:31:00,
2013-05-03 08:32:00,52.5,47.2,30.07,East,90,5.0,7.0,82,0.00,,---,0.00,VWS V14.01,2013-05-03 12:32:00,
2013-05-03 08:33:00,52.5,47.2,30.07,ESE,106,3.0,7.0,82,0.00,,---,0.00,VWS V14.01,2013-05-03 12:33:00,
2013-05-03 08:34:00,52.5,47.2,30.07,ESE,106,3.0,7.0,82,0.00,,---,0.00,VWS V14.01,2013-05-03 12:34:00,
2013-05-03 08:35:00,52.5,47.2,30.07,East,100,1.0,7.0,82,0.00,,---,0.00,VWS V14.01,2013-05-03 12:35:00,
2013-05-03 08:36:00,52.5,47.2,30.07,East,89,3.0,7.0,82,0.00,,---,0.00,VWS V14.01,2013-05-03 12:36:00,
2013-05-03 08:37:00,52.5,47.2,30.07,East,98,3.0,7.0,82,0.00,,---,0.00,VWS V14.01,2013-05-03 12:37:00,
2013-05-03 08:38:00,52.5,47.5,30.07,East,90,2.0,7.0,83,0.00,,---,0.00,VWS V14.01,2013-05-03 12:38:00,
2013-05-03 08:39:00,52.5,47.5,30.07,East,90,2.0,7.0,83,0.00,,---,0.00,VWS V14.01,2013-05-03 12:39:00,
2013-05-03 08:40:00,52.5,47.5,30.07,East,90,2.0,7.0,83,0.00,,---,0.00,VWS V14.01,2013-05-03 12:40:00,
2013-05-03 08:41:00,52.5,47.5,30.07,East,97,1.0,2.0,83,0.00,,---,0.00,VWS V14.01,2013-05-03 12:41:00,
2013-05-03 08:42:00,52.3,47.3,30.07,East,89,2.0,5.0,83,0.00,,---,0.00,VWS V14.01,2013-05-03 12:42:00,
2013-05-03 08:43:00,52.3,47.0,30.07,East,90,5.0,6.0,82,0.00,,---,0.00,VWS V14.01,2013-05-03 12:43:00,
2013-05-03 08:44:00,52.3,47.0,30.07,East,98,5.0,10.0,82,0.00,,---,0.00,VWS V14.01,2013-05-03 12:44:00,
2013-05-03 08:45:00,52.3,47.0,30.08,East,87,7.0,10.0,82,0.00,,---,0.00,VWS V14.01,2013-05-03 12:45:00,
2013-05-03 08:46:00,52.3,47.0,30.08,East,96,3.0,10.0,82,0.00,,---,0.00,VWS V14.01,2013-05-03 12:46:00,
2013-05-03 08:47:00,52.3,47.0,30.08,ESE,107,7.0,10.0,82,0.00,,---,0.00,VWS V14.01,2013-05-03 12:47:00,
2013-05-03 08:48:00,52.3,47.0,30.08,East,93,5.0,10.0,82,0.00,,---,0.00,VWS V14.01,2013-05-03 12:48:00,
2013-05-03 08:49:00,52.3,47.0,30.08,East,93,5.0,10.0,82,0.00,,---,0.00,VWS V14.01,2013-05-03 12:49:00,
2013-05-03 08:50:00,52.3,47.0,30.08,East,87,5.0,10.0,82,0.00,,---,0.00,VWS V14.01,2013-05-03 12:50:00,
2013-05-03 08:51:00,52.3,47.0,30.08,SE,125,5.0,5.0,82,0.00,,---,0.00,VWS V14.01,2013-05-03 12:51:00,
2013-05-03 08:52:00,52.3,47.0,30.08,East,100,5.0,6.0,82,0.00,,---,0.00,VWS V14.01,2013-05-03 12:52:00,
2013-05-03 08:53:00,52.3,47.0,30.08,East,86,4.0,6.0,82,0.00,,---,0.00,VWS V14.01,2013-05-03 12:53:00,
2013-05-03 08:54:00,52.3,47.0,30.08,ENE,65,3.0,10.0,82,0.00,,---,0.00,VWS V14.01,2013-05-03 12:54:00,
2013-05-03 08:55:00,52.3,47.0,30.08,ESE,115,2.0,10.0,82,0.00,,---,0.00,VWS V14.01,2013-05-03 12:55:00,
2013-05-03 08:56:00,52.3,47.0,30.08,East,98,1.0,10.0,82,0.00,,---,0.00,VWS V14.01,2013-05-03 12:56:00,
2013-05-03 08:57:00,52.3,47.0,30.08,East,96,3.0,10.0,82,0.00,,---,0.00,VWS V14.01,2013-05-03 12:57:00,
2013-05-03 08:58:00,52.3,47.0,30.08,East,91,6.0,10.0,82,0.00,,---,0.00,VWS V14.01,2013-05-03 12:58:00,
2013-05-03 08:59:00,52.3,47.0,30.08,East,93,1.0,10.0,82,0.00,,---,0.00,VWS V14.01,2013-05-03 12:59:00,
2013-05-03 09:00:00,52.3,47.0,30.07,East,93,1.0,10.0,82,0.00,,---,0.00,VWS V14.01,2013-05-03 13:00:00,
2013-05-03 09:01:00,52.3,47.0,30.07,East,93,1.0,1.0,82,0.00,,---,0.00,VWS V14.01,2013-05-03 13:01:00,
2013-05-03 09:02:00,52.3,47.0,30.07,East,93,1.0,1.0,82,0.00,,---,0.00,VWS V14.01,2013-05-03 13:02:00,
2013-05-03 09:03:00,52.3,47.0,30.07,East,82,5.0,6.0,82,0.00,,---,0.00,VWS V14.01,2013-05-03 13:03:00,
2013-05-03 09:04:00,52.3,47.0,30.07,SE,128,6.0,7.0,82,0.00,,---,0.00,VWS V14.01,2013-05-03 13:04:00,
2013-05-03 09:05:00,52.3,47.0,30.07,East,89,6.0,7.0,82,0.00,,---,0.00,VWS V14.01,2013-05-03 13:05:00,
2013-05-03 09:06:00,52.3,47.0,30.07,East,98,6.0,7.0,82,0.00,,---,0.00,VWS V14.01,2013-05-03 13:06:00,
2013-05-03 09:07:00,52.3,47.0,30.07,East,96,5.0,7.0,82,0.00,,---,0.00,VWS V14.01,2013-05-03 13:07:00,
2013-05-03 09:08:00,52.3,47.0,30.07,East,93,6.0,7.0,82,0.00,,---,0.00,VWS V14.01,2013-05-03 13:08:00,
2013-05-03 09:09:00,52.3,47.0,30.07,East,87,4.0,8.0,82,0.00,,---,0.00,VWS V14.01,2013-05-03 13:09:00,
2013-05-03 09:10:00,52.3,47.0,30.07,ESE,107,4.0,8.0,82,0.00,,---,0.00,VWS V14.01,2013-05-03 13:10:00,
2013-05-03 09:11:00,52.3,47.0,30.07,East,93,0.0,7.0,82,0.00,,---,0.00,VWS V14.01,2013-05-03 13:11:00,
2013-05-03 09:12:00,52.3,47.0,30.07,East,93,0.0,7.0,82,0.00,,---,0.00,VWS V14.01,2013-05-03 13:12:00,
2013-05-03 09:13:00,52.3,47.0,30.07,East,91,2.0,7.0,82,0.00,,---,0.00,VWS V14.01,2013-05-03 13:13:00,
2013-05-03 09:14:00,52.3,47.0,30.07,East,89,5.0,7.0,82,0.00,,---,0.00,VWS V14.01,2013-05-03 13:14:00,
2013-05-03 09:15:00,52.3,47.0,30.08,East,89,5.0,7.0,82,0.00,,---,0.00,VWS V14.01,2013-05-03 13:15:00,
2013-05-03 09:16:00,52.3,47.0,30.08,East,96,3.0,7.0,82,0.00,,---,0.00,VWS V14.01,2013-05-03 13:16:00,
2013-05-03 09:17:00,52.3,47.0,30.08,East,100,0.0,7.0,82,0.00,,---,0.00,VWS V14.01,2013-05-03 13:17:00,
2013-05-03 09:18:00,52.3,47.0,30.08,ESE,113,2.0,7.0,82,0.00,,---,0.00,VWS V14.01,2013-05-03 13:18:00,
2013-05-03 09:19:00,52.3,47.0,30.08,East,96,3.0,7.0,82,0.00,,---,0.00,VWS V14.01,2013-05-03 13:19:00,
2013-05-03 09:20:00,52.3,47.0,30.08,East,96,2.0,7.0,82,0.00,,---,0.00,VWS V14.01,2013-05-03 13:20:00,
2013-05-03 09:21:00,52.3,47.0,30.08,East,97,5.0,5.0,82,0.00,,---,0.00,VWS V14.01,2013-05-03 13:21:00,
2013-05-03 09:22:00,52.3,47.0,30.08,East,97,3.0,5.0,82,0.00,,---,0.00,VWS V14.01,2013-05-03 13:22:00,
2013-05-03 09:23:00,52.3,47.0,30.08,East,98,0.0,5.0,82,0.00,,---,0.00,VWS V14.01,2013-05-03 13:23:00,
2013-05-03 09:24:00,52.3,47.0,30.08,ESE,106,0.0,5.0,82,0.00,,---,0.00,VWS V14.01,2013-05-03 13:24:00,
2013-05-03 09:25:00,52.3,47.0,30.08,East,86,0.0,5.0,82,0.00,,---,0.00,VWS V14.01,2013-05-03 13:25:00,
2013-05-03 09:26:00,52.2,46.9,30.08,East,91,0.0,5.0,82,0.00,,---,0.00,VWS V14.01,2013-05-03 13:26:00,
2013-05-03 09:27:00,52.2,46.9,30.08,East,94,3.0,6.0,82,0.00,,---,0.00,VWS V14.01,2013-05-03 13:27:00,
2013-05-03 09:28:00,52.2,47.2,30.08,East,96,6.0,6.0,83,0.00,,---,0.00,VWS V14.01,2013-05-03 13:28:00,
2013-05-03 09:29:00,52.2,47.2,30.08,ESE,106,2.0,6.0,83,0.00,,---,0.00,VWS V14.01,2013-05-03 13:29:00,
2013-05-03 09:30:00,52.2,47.2,30.08,East,86,5.0,6.0,83,0.00,,---,0.00,VWS V14.01,2013-05-03 13:30:00,
2013-05-03 09:31:00,52.2,47.2,30.08,ENE,76,3.0,7.0,83,0.00,,---,0.00,VWS V14.01,2013-05-03 13:31:00,
2013-05-03 09:32:00,52.2,47.2,30.08,East,93,7.0,7.0,83,0.00,,---,0.00,VWS V14.01,2013-05-03 13:32:00,
2013-05-03 09:33:00,52.2,47.2,30.08,East,87,0.0,7.0,83,0.00,,---,0.00,VWS V14.01,2013-05-03 13:33:00,
2013-05-03 09:34:00,52.2,47.2,30.08,ESE,118,3.0,7.0,83,0.00,,---,0.00,VWS V14.01,2013-05-03 13:34:00,
2013-05-03 09:35:00,52.2,47.2,30.08,ESE,121,3.0,7.0,83,0.00,,---,0.00,VWS V14.01,2013-05-03 13:35:00,
2013-05-03 09:36:00,52.2,47.2,30.08,East,98,1.0,7.0,83,0.00,,---,0.00,VWS V14.01,2013-05-03 13:36:00,
2013-05-03 09:37:00,52.2,47.2,30.08,ESE,115,5.0,7.0,83,0.00,,---,0.00,VWS V14.01,2013-05-03 13:37:00,
2013-05-03 09:38:00,52.2,47.2,30.08,East,90,3.0,7.0,83,0.00,,---,0.00,VWS V14.01,2013-05-03 13:38:00,
2013-05-03 09:39:00,52.2,47.2,30.08,East,94,0.0,7.0,83,0.00,,---,0.00,VWS V14.01,2013-05-03 13:39:00,
2013-05-03 09:40:00,52.2,47.2,30.08,East,82,4.0,7.0,83,0.00,,---,0.00,VWS V14.01,2013-05-03 13:40:00,
2013-05-03 09:41:00,52.2,46.9,30.08,ESE,113,5.0,8.0,82,0.00,,---,0.00,VWS V14.01,2013-05-03 13:41:00,
2013-05-03 09:42:00,52.2,46.9,30.08,East,94,0.0,8.0,82,0.00,,---,0.00,VWS V14.01,2013-05-03 13:42:00,
2013-05-03 09:43:00,52.2,46.9,30.08,East,100,2.0,8.0,82,0.00,,---,0.00,VWS V14.01,2013-05-03 13:43:00,
2013-05-03 09:44:00,52.2,46.9,30.08,East,100,2.0,8.0,82,0.00,,---,0.00,VWS V14.01,2013-05-03 13:44:00,
2013-05-03 09:45:00,52.2,46.9,30.08,East,93,3.0,8.0,82,0.00,,---,0.00,VWS V14.01,2013-05-03 13:45:00,
2013-05-03 09:46:00,52.2,46.9,30.08,ESE,103,2.0,8.0,82,0.00,,---,0.00,VWS V14.01,2013-05-03 13:46:00,
2013-05-03 09:47:00,52.2,46.9,30.08,ESE,103,2.0,8.0,82,0.00,,---,0.00,VWS V14.01,2013-05-03 13:47:00,
2013-05-03 09:48:00,52.2,46.9,30.08,East,100,3.0,8.0,82,0.00,,---,0.00,VWS V14.01,2013-05-03 13:48:00,
2013-05-03 09:49:00,52.2,46.9,30.08,East,100,3.0,8.0,82,0.00,,---,0.00,VWS V14.01,2013-05-03 13:49:00,
2013-05-03 09:50:00,52.2,46.9,30.08,East,93,0.0,8.0,82,0.00,,---,0.00,VWS V14.01,2013-05-03 13:50:00,
2013-05-03 09:51:00,52.2,46.9,30.08,East,93,0.0,0.0,82,0.00,,---,0.00,VWS V14.01,2013-05-03 13:51:00,
2013-05-03 09:52:00,52.2,46.9,30.08,SE,141,3.0,3.0,82,0.00,,---,0.00,VWS V14.01,2013-05-03 13:52:00,
2013-05-03 09:53:00,52.2,46.9,30.08,East,96,3.0,3.0,82,0.00,,---,0.00,VWS V14.01,2013-05-03 13:53:00,
2013-05-03 09:54:00,52.2,46.9,30.08,East,96,3.0,3.0,82,0.00,,---,0.00,VWS V14.01,2013-05-03 13:54:00,
2013-05-03 09:55:00,52.2,46.9,30.08,East,96,3.0,3.0,82,0.00,,---,0.00,VWS V14.01,2013-05-03 13:55:00,
2013-05-03 09:56:00,52.2,47.2,30.08,East,97,0.0,3.0,83,0.00,,---,0.00,VWS V14.01,2013-05-03 13:56:00,
2013-05-03 09:57:00,52.2,47.2,30.08,East,100,0.0,3.0,83,0.00,,---,0.00,VWS V14.01,2013-05-03 13:57:00,
2013-05-03 09:58:00,52.2,47.2,30.08,ESE,111,4.0,4.0,83,0.00,,---,0.00,VWS V14.01,2013-05-03 13:58:00,
2013-05-03 09:59:00,52.2,47.2,30.08,East,94,2.0,6.0,83,0.00,,---,0.00,VWS V14.01,2013-05-03 13:59:00,
2013-05-03 10:00:00,52.2,47.2,30.08,East,90,5.0,6.0,83,0.00,,---,0.00,VWS V14.01,2013-05-03 14:00:00,
2013-05-03 10:01:00,52.2,47.2,30.08,ESE,104,0.0,8.0,83,0.00,,---,0.00,VWS V14.01,2013-05-03 14:01:00,
2013-05-03 10:02:00,52.2,47.2,30.08,East,96,5.0,8.0,83,0.00,,---,0.00,VWS V14.01,2013-05-03 14:02:00,
2013-05-03 10:03:00,52.2,47.2,30.08,ESE,106,0.0,8.0,83,0.00,,---,0.00,VWS V14.01,2013-05-03 14:03:00,
2013-05-03 10:04:00,52.2,47.2,30.08,East,100,0.0,8.0,83,0.00,,---,0.00,VWS V14.01,2013-05-03 14:04:00,
2013-05-03 10:05:00,52.2,47.2,30.08,ESE,121,1.0,8.0,83,0.00,,---,0.00,VWS V14.01,2013-05-03 14:05:00,
2013-05-03 10:06:00,52.2,47.2,30.08,SE,131,2.0,8.0,83,0.00,,---,0.00,VWS V14.01,2013-05-03 14:06:00,
2013-05-03 10:07:00,52.2,47.2,30.08,East,86,6.0,8.0,83,0.00,,---,0.00,VWS V14.01,2013-05-03 14:07:00,
2013-05-03 10:08:00,52.2,47.2,30.08,ESE,107,2.0,8.0,83,0.00,,---,0.00,VWS V14.01,2013-05-03 14:08:00,
2013-05-03 10:09:00,52.2,47.2,30.08,East,98,1.0,8.0,83,0.00,,---,0.00,VWS V14.01,2013-05-03 14:09:00,
2013-05-03 10:10:00,52.2,47.2,30.08,East,80,6.0,8.0,83,0.00,,---,0.00,VWS V14.01,2013-05-03 14:10:00,
2013-05-03 10:11:00,52.2,47.2,30.08,East,98,1.0,2.0,83,0.00,,---,0.00,VWS V14.01,2013-05-03 14:11:00,
2013-05-03 10:12:00,52.2,47.2,30.08,East,96,5.0,5.0,83,0.00,,---,0.00,VWS V14.01,2013-05-03 14:12:00,
2013-05-03 10:13:00,52.2,47.2,30.08,East,83,5.0,6.0,83,0.00,,---,0.00,VWS V14.01,2013-05-03 14:13:00,
2013-05-03 10:14:00,52.2,47.2,30.08,East,98,3.0,7.0,83,0.00,,---,0.00,VWS V14.01,2013-05-03 14:14:00,
2013-05-03 10:15:00,52.2,47.2,30.08,East,100,0.0,7.0,83,0.00,,---,0.00,VWS V14.01,2013-05-03 14:15:00,
2013-05-03 10:16:00,52.2,47.2,30.08,East,89,5.0,7.0,83,0.00,,---,0.00,VWS V14.01,2013-05-03 14:16:00,
2013-05-03 10:17:00,52.2,47.2,30.08,East,96,5.0,7.0,83,0.00,,---,0.00,VWS V14.01,2013-05-03 14:17:00,
2013-05-03 10:18:00,52.2,47.2,30.08,East,101,2.0,7.0,83,0.00,,---,0.00,VWS V14.01,2013-05-03 14:18:00,
2013-05-03 10:19:00,52.2,47.2,30.08,East,98,2.0,7.0,83,0.00,,---,0.00,VWS V14.01,2013-05-03 14:19:00,
2013-05-03 10:20:00,52.2,47.2,30.08,East,97,2.0,7.0,83,0.00,,---,0.00,VWS V14.01,2013-05-03 14:20:00,
2013-05-03 10:21:00,52.2,47.2,30.08,ESE,103,2.0,6.0,83,0.00,,---,0.00,VWS V14.01,2013-05-03 14:21:00,
2013-05-03 10:22:00,52.2,47.2,30.08,ENE,76,6.0,6.0,83,0.00,,---,0.00,VWS V14.01,2013-05-03 14:22:00,
2013-05-03 10:23:00,52.2,47.2,30.08,East,90,0.0,6.0,83,0.00,,---,0.00,VWS V14.01,2013-05-03 14:23:00,
2013-05-03 10:24:00,52.2,47.2,30.08,East,97,0.0,6.0,83,0.00,,---,0.00,VWS V14.01,2013-05-03 14:24:00,
2013-05-03 10:25:00,52.2,47.2,30.08,East,96,0.0,6.0,83,0.00,,---,0.00,VWS V14.01,2013-05-03 14:25:00,
2013-05-03 10:26:00,52.2,47.2,30.08,East,101,0.0,6.0,83,0.00,,---,0.00,VWS V14.01,2013-05-03 14:26:00,
2013-05-03 10:27:00,52.2,47.2,30.08,East,101,0.0,6.0,83,0.00,,---,0.00,VWS V14.01,2013-05-03 14:27:00,
2013-05-03 10:28:00,52.2,47.2,30.08,East,93,0.0,6.0,83,0.00,,---,0.00,VWS V14.01,2013-05-03 14:28:00,
2013-05-03 10:29:00,52.2,47.2,30.08,ENE,76,5.0,7.0,83,0.00,,---,0.00,VWS V14.01,2013-05-03 14:29:00,
2013-05-03 10:30:00,52.2,47.2,30.08,ESE,103,5.0,7.0,83,0.00,,---,0.00,VWS V14.01,2013-05-03 14:30:00,
2013-05-03 10:31:00,52.2,47.2,30.08,ESE,110,0.0,5.0,83,0.00,,---,0.00,VWS V14.01,2013-05-03 14:31:00,
2013-05-03 10:32:00,52.2,47.2,30.08,East,82,5.0,5.0,83,0.00,,---,0.00,VWS V14.01,2013-05-03 14:32:00,
2013-05-03 10:33:00,52.2,47.2,30.08,ESE,106,2.0,5.0,83,0.00,,---,0.00,VWS V14.01,2013-05-03 14:33:00,
2013-05-03 10:34:00,52.2,47.2,30.08,ESE,106,3.0,5.0,83,0.00,,---,0.00,VWS V14.01,2013-05-03 14:34:00,
2013-05-03 10:35:00,52.2,47.2,30.08,ESE,115,4.0,5.0,83,0.00,,---,0.00,VWS V14.01,2013-05-03 14:35:00,
2013-05-03 10:36:00,52.2,47.2,30.08,East,94,2.0,5.0,83,0.00,,---,0.00,VWS V14.01,2013-05-03 14:36:00,
2013-05-03 10:37:00,52.2,47.2,30.08,East,84,0.0,5.0,83,0.00,,---,0.00,VWS V14.01,2013-05-03 14:37:00,
2013-05-03 10:38:00,52.2,47.2,30.08,East,89,0.0,5.0,83,0.00,,---,0.00,VWS V14.01,2013-05-03 14:38:00,
2013-05-03 10:39:00,52.2,47.2,30.08,East,101,1.0,5.0,83,0.00,,---,0.00,VWS V14.01,2013-05-03 14:39:00,
2013-05-03 10:40:00,52.2,47.2,30.08,East,100,0.0,5.0,83,0.00,,---,0.00,VWS V14.01,2013-05-03 14:40:00,
2013-05-03 10:41:00,52.2,47.2,30.08,East,86,2.0,2.0,83,0.00,,---,0.00,VWS V14.01,2013-05-03 14:41:00,
2013-05-03 10:42:00,52.2,47.2,30.08,East,90,6.0,6.0,83,0.00,,---,0.00,VWS V14.01,2013-05-03 14:42:00,
2013-05-03 10:43:00,52.2,47.2,30.08,ENE,69,3.0,6.0,83,0.00,,---,0.00,VWS V14.01,2013-05-03 14:43:00,
2013-05-03 10:44:00,52.2,47.2,30.08,East,94,3.0,6.0,83,0.00,,---,0.00,VWS V14.01,2013-05-03 14:44:00,
2013-05-03 10:45:00,52.2,47.2,30.07,East,93,5.0,6.0,83,0.00,,---,0.00,VWS V14.01,2013-05-03 14:45:00,
2013-05-03 10:46:00,52.2,47.2,30.07,East,96,6.0,6.0,83,0.00,,---,0.00,VWS V14.01,2013-05-03 14:46:00,
2013-05-03 10:47:00,52.2,47.2,30.07,East,87,3.0,8.0,83,0.00,,---,0.00,VWS V14.01,2013-05-03 14:47:00,
2013-05-03 10:48:00,52.2,47.2,30.07,East,97,0.0,8.0,83,0.00,,---,0.00,VWS V14.01,2013-05-03 14:48:00,
2013-05-03 10:49:00,52.2,47.2,30.07,East,94,0.0,8.0,83,0.00,,---,0.00,VWS V14.01,2013-05-03 14:49:00,
2013-05-03 10:50:00,52.2,47.2,30.07,East,96,0.0,8.0,83,0.00,,---,0.00,VWS V14.01,2013-05-03 14:50:00,
2013-05-03 10:51:00,52.2,47.2,30.07,East,83,2.0,3.0,83,0.00,,---,0.00,VWS V14.01,2013-05-03 14:51:00,
2013-05-03 10:52:00,52.2,47.2,30.07,East,83,2.0,3.0,83,0.00,,---,0.00,VWS V14.01,2013-05-03 14:52:00,
2013-05-03 10:53:00,52.2,47.2,30.07,East,83,2.0,3.0,83,0.00,,---,0.00,VWS V14.01,2013-05-03 14:53:00,
2013-05-03 10:54:00,52.2,47.5,30.07,East,83,6.0,8.0,84,0.00,,---,0.00,VWS V14.01,2013-05-03 14:54:00,
2013-05-03 10:55:00,52.2,47.5,30.07,East,93,3.0,8.0,84,0.00,,---,0.00,VWS V14.01,2013-05-03 14:55:00,
2013-05-03 10:56:00,52.2,47.5,30.07,East,93,3.0,8.0,84,0.00,,---,0.00,VWS V14.01,2013-05-03 14:56:00,
2013-05-03 10:57:00,52.2,47.5,30.07,East,97,2.0,8.0,84,0.00,,---,0.00,VWS V14.01,2013-05-03 14:57:00,
2013-05-03 10:58:00,52.2,47.5,30.07,East,91,6.0,8.0,84,0.00,,---,0.00,VWS V14.01,2013-05-03 14:58:00,
2013-05-03 10:59:00,52.0,47.3,30.07,East,96,6.0,8.0,84,0.00,,---,0.00,VWS V14.01,2013-05-03 14:59:00,
2013-05-03 11:00:00,52.0,47.3,30.07,East,101,5.0,8.0,84,0.00,,---,0.00,VWS V14.01,2013-05-03 15:00:00,
2013-05-03 11:01:00,52.0,47.3,30.07,East,100,0.0,5.0,84,0.00,,---,0.00,VWS V14.01,2013-05-03 15:01:00,
2013-05-03 11:02:00,52.0,47.3,30.07,ESE,103,0.0,5.0,84,0.00,,---,0.00,VWS V14.01,2013-05-03 15:02:00,
2013-05-03 11:03:00,52.0,47.3,30.07,East,94,3.0,5.0,84,0.00,,---,0.00,VWS V14.01,2013-05-03 15:03:00,
2013-05-03 11:04:00,52.0,47.3,30.07,ESE,108,8.0,8.0,84,0.00,,---,0.00,VWS V14.01,2013-05-03 15:04:00,
2013-05-03 11:05:00,52.0,47.3,30.07,ESE,107,5.0,8.0,84,0.00,,---,0.00,VWS V14.01,2013-05-03 15:05:00,
2013-05-03 11:06:00,52.0,47.3,30.07,East,98,1.0,8.0,84,0.00,,---,0.00,VWS V14.01,2013-05-03 15:06:00,
2013-05-03 11:07:00,52.0,47.3,30.07,ESE,104,2.0,8.0,84,0.00,,---,0.00,VWS V14.01,2013-05-03 15:07:00,
2013-05-03 11:08:00,52.0,47.3,30.07,East,93,5.0,8.0,84,0.00,,---,0.00,VWS V14.01,2013-05-03 15:08:00,
2013-05-03 11:09:00,52.0,47.3,30.07,East,97,4.0,8.0,84,0.00,,---,0.00,VWS V14.01,2013-05-03 15:09:00,
2013-05-03 11:10:00,52.0,47.3,30.07,East,94,4.0,8.0,84,0.00,,---,0.00,VWS V14.01,2013-05-03 15:10:00,
2013-05-03 11:11:00,52.0,47.3,30.07,ENE,74,5.0,5.0,84,0.00,,---,0.00,VWS V14.01,2013-05-03 15:11:00,
2013-05-03 11:12:00,52.0,47.3,30.07,ENE,77,0.0,5.0,84,0.00,,---,0.00,VWS V14.01,2013-05-03 15:12:00,
2013-05-03 11:13:00,52.0,47.3,30.07,East,79,0.0,5.0,84,0.00,,---,0.00,VWS V14.01,2013-05-03 15:13:00,
2013-05-03 11:14:00,52.0,47.3,30.07,East,100,0.0,5.0,84,0.00,,---,0.00,VWS V14.01,2013-05-03 15:14:00,
2013-05-03 11:15:00,52.0,47.3,30.06,East,83,11.0,11.0,84,0.00,,---,0.00,VWS V14.01,2013-05-03 15:15:00,
2013-05-03 11:16:00,52.0,47.3,30.06,ESE,106,0.0,11.0,84,0.00,,---,0.00,VWS V14.01,2013-05-03 15:16:00,
2013-05-03 11:17:00,52.0,47.3,30.06,East,97,2.0,11.0,84,0.00,,---,0.00,VWS V14.01,2013-05-03 15:17:00,
2013-05-03 11:18:00,52.0,47.3,30.06,East,97,3.0,11.0,84,0.00,,---,0.00,VWS V14.01,2013-05-03 15:18:00,
2013-05-03 11:19:00,52.0,47.3,30.06,East,97,0.0,11.0,84,0.00,,---,0.00,VWS V14.01,2013-05-03 15:19:00,
2013-05-03 11:20:00,52.0,47.3,30.06,East,97,0.0,11.0,84,0.00,,---,0.00,VWS V14.01,2013-05-03 15:20:00,
2013-05-03 11:21:00,52.0,47.3,30.06,SE,125,6.0,6.0,84,0.00,,---,0.00,VWS V14.01,2013-05-03 15:21:00,
2013-05-03 11:22:00,52.0,47.3,30.06,East,101,2.0,6.0,84,0.00,,---,0.00,VWS V14.01,2013-05-03 15:22:00,
2013-05-03 11:23:00,52.0,47.3,30.06,East,87,4.0,6.0,84,0.00,,---,0.00,VWS V14.01,2013-05-03 15:23:00,
2013-05-03 11:24:00,52.0,47.3,30.06,ESE,103,2.0,6.0,84,0.00,,---,0.00,VWS V14.01,2013-05-03 15:24:00,
2013-05-03 11:25:00,51.9,47.2,30.06,East,84,0.0,6.0,84,0.00,,---,0.00,VWS V14.01,2013-05-03 15:25:00,
2013-05-03 11:26:00,51.9,47.2,30.06,East,91,0.0,6.0,84,0.00,,---,0.00,VWS V14.01,2013-05-03 15:26:00,
2013-05-03 11:27:00,51.9,47.2,30.06,East,93,1.0,6.0,84,0.00,,---,0.00,VWS V14.01,2013-05-03 15:27:00,
2013-05-03 11:28:00,51.9,47.2,30.06,East,94,3.0,6.0,84,0.00,,---,0.00,VWS V14.01,2013-05-03 15:28:00,
2013-05-03 11:29:00,51.9,47.2,30.06,East,100,7.0,7.0,84,0.00,,---,0.00,VWS V14.01,2013-05-03 15:29:00,
2013-05-03 11:30:00,52.0,47.3,30.05,East,84,6.0,7.0,84,0.00,,---,0.00,VWS V14.01,2013-05-03 15:30:00,
2013-05-03 11:31:00,52.0,47.3,30.05,East,82,8.0,8.0,84,0.00,,---,0.00,VWS V14.01,2013-05-03 15:31:00,
2013-05-03 11:32:00,52.0,47.3,30.05,ESE,104,2.0,8.0,84,0.00,,---,0.00,VWS V14.01,2013-05-03 15:32:00,
2013-05-03 11:33:00,52.0,47.3,30.05,East,90,4.0,8.0,84,0.00,,---,0.00,VWS V14.01,2013-05-03 15:33:00,
2013-05-03 11:34:00,52.0,47.3,30.05,East,89,0.0,8.0,84,0.00,,---,0.00,VWS V14.01,2013-05-03 15:34:00,
2013-05-03 11:35:00,52.0,47.3,30.05,East,100,2.0,8.0,84,0.00,,---,0.00,VWS V14.01,2013-05-03 15:35:00,
2013-05-03 11:36:00,52.0,47.3,30.05,East,94,0.0,8.0,84,0.00,,---,0.00,VWS V14.01,2013-05-03 15:36:00,
2013-05-03 11:37:00,52.0,47.3,30.05,ENE,74,3.0,8.0,84,0.00,,---,0.00,VWS V14.01,2013-05-03 15:37:00,
2013-05-03 11:38:00,52.0,47.3,30.05,East,94,0.0,8.0,84,0.00,,---,0.00,VWS V14.01,2013-05-03 15:38:00,
2013-05-03 11:39:00,52.0,47.3,30.05,East,96,0.0,8.0,84,0.00,,---,0.00,VWS V14.01,2013-05-03 15:39:00,
2013-05-03 11:40:00,52.0,47.3,30.05,East,97,0.0,8.0,84,0.00,,---,0.00,VWS V14.01,2013-05-03 15:40:00,
2013-05-03 11:41:00,52.0,47.3,30.05,East,97,0.0,0.0,84,0.00,,---,0.00,VWS V14.01,2013-05-03 15:41:00,
2013-05-03 11:42:00,52.0,47.3,30.05,East,96,2.0,6.0,84,0.00,,---,0.00,VWS V14.01,2013-05-03 15:42:00,
2013-05-03 11:43:00,52.0,47.3,30.05,ESE,114,5.0,6.0,84,0.00,,---,0.00,VWS V14.01,2013-05-03 15:43:00,
2013-05-03 11:44:00,52.0,47.3,30.05,ESE,110,3.0,6.0,84,0.00,,---,0.00,VWS V14.01,2013-05-03 15:44:00,
2013-05-03 11:45:00,52.0,47.3,30.05,East,100,0.0,6.0,84,0.00,,---,0.00,VWS V14.01,2013-05-03 15:45:00,
2013-05-03 11:46:00,52.0,47.3,30.05,East,100,0.0,6.0,84,0.00,,---,0.00,VWS V14.01,2013-05-03 15:46:00,
2013-05-03 11:47:00,52.0,47.3,30.05,East,100,0.0,6.0,84,0.00,,---,0.00,VWS V14.01,2013-05-03 15:47:00,
2013-05-03 11:48:00,52.0,47.3,30.05,East,100,0.0,6.0,84,0.00,,---,0.00,VWS V14.01,2013-05-03 15:48:00,
2013-05-03 11:49:00,52.0,47.6,30.05,East,101,0.0,6.0,85,0.00,,---,0.00,VWS V14.01,2013-05-03 15:49:00,
2013-05-03 11:50:00,51.9,47.5,30.05,East,94,0.0,6.0,85,0.00,,---,0.00,VWS V14.01,2013-05-03 15:50:00,
2013-05-03 11:51:00,51.9,47.5,30.05,East,94,0.0,0.0,85,0.00,,---,0.00,VWS V14.01,2013-05-03 15:51:00,
2013-05-03 11:52:00,51.9,47.5,30.05,East,90,5.0,6.0,85,0.00,,---,0.00,VWS V14.01,2013-05-03 15:52:00,
2013-05-03 11:53:00,51.9,47.5,30.05,East,91,2.0,6.0,85,0.00,,---,0.00,VWS V14.01,2013-05-03 15:53:00,
2013-05-03 11:54:00,51.9,47.5,30.05,East,98,3.0,6.0,85,0.00,,---,0.00,VWS V14.01,2013-05-03 15:54:00,
2013-05-03 11:55:00,51.9,47.5,30.05,East,98,3.0,6.0,85,0.00,,---,0.00,VWS V14.01,2013-05-03 15:55:00,
2013-05-03 11:56:00,51.9,47.5,30.05,East,100,6.0,6.0,85,0.00,,---,0.00,VWS V14.01,2013-05-03 15:56:00,
2013-05-03 11:57:00,51.9,47.5,30.05,East,82,3.0,6.0,85,0.00,,---,0.00,VWS V14.01,2013-05-03 15:57:00,
2013-05-03 11:58:00,51.9,47.5,30.05,ESE,122,6.0,6.0,85,0.00,,---,0.00,VWS V14.01,2013-05-03 15:58:00,
2013-05-03 11:59:00,51.9,47.5,30.05,East,84,4.0,6.0,85,0.00,,---,0.00,VWS V14.01,2013-05-03 15:59:00,
2013-05-03 12:00:00,51.7,47.3,30.05,East,94,5.0,6.0,85,0.00,,---,0.00,VWS V14.01,2013-05-03 16:00:00,
2013-05-03 12:01:00,51.7,47.3,30.05,East,93,0.0,5.0,85,0.00,,---,0.00,VWS V14.01,2013-05-03 16:01:00,
2013-05-03 12:02:00,51.7,47.3,30.05,East,97,2.0,5.0,85,0.00,,---,0.00,VWS V14.01,2013-05-03 16:02:00,
2013-05-03 12:03:00,51.7,47.3,30.05,East,97,1.0,5.0,85,0.00,,---,0.00,VWS V14.01,2013-05-03 16:03:00,
2013-05-03 12:04:00,51.7,47.3,30.05,East,97,0.0,5.0,85,0.00,,---,0.00,VWS V14.01,2013-05-03 16:04:00,
2013-05-03 12:05:00,51.7,47.3,30.05,East,97,0.0,5.0,85,0.00,,---,0.00,VWS V14.01,2013-05-03 16:05:00,
2013-05-03 12:06:00,51.7,47.3,30.05,East,100,0.0,5.0,85,0.00,,---,0.00,VWS V14.01,2013-05-03 16:06:00,
2013-05-03 12:07:00,51.7,47.3,30.05,East,101,4.0,5.0,85,0.00,,---,0.00,VWS V14.01,2013-05-03 16:07:00,
2013-05-03 12:08:00,51.7,47.3,30.05,East,98,3.0,5.0,85,0.00,,---,0.00,VWS V14.01,2013-05-03 16:08:00,
2013-05-03 12:09:00,51.7,47.3,30.05,East,98,3.0,5.0,85,0.00,,---,0.00,VWS V14.01,2013-05-03 16:09:00,
2013-05-03 12:10:00,51.7,47.3,30.05,East,96,6.0,6.0,85,0.00,,---,0.00,VWS V14.01,2013-05-03 16:10:00,
2013-05-03 12:11:00,51.7,47.3,30.05,East,94,0.0,6.0,85,0.00,,---,0.00,VWS V14.01,2013-05-03 16:11:00,
2013-05-03 12:12:00,51.7,47.3,30.05,East,94,0.0,6.0,85,0.00,,---,0.00,VWS V14.01,2013-05-03 16:12:00,
2013-05-03 12:13:00,51.7,47.3,30.05,East,94,0.0,6.0,85,0.00,,---,0.00,VWS V14.01,2013-05-03 16:13:00,
2013-05-03 12:14:00,51.7,47.3,30.05,ESE,103,3.0,6.0,85,0.00,,---,0.00,VWS V14.01,2013-05-03 16:14:00,
2013-05-03 12:15:00,51.7,47.3,30.05,ESE,107,6.0,6.0,85,0.00,,---,0.00,VWS V14.01,2013-05-03 16:15:00,
2013-05-03 12:16:00,51.7,47.3,30.05,East,83,0.0,6.0,85,0.00,,---,0.00,VWS V14.01,2013-05-03 16:16:00,
2013-05-03 12:17:00,51.7,47.3,30.05,East,93,5.0,6.0,85,0.00,,---,0.00,VWS V14.01,2013-05-03 16:17:00,
2013-05-03 12:18:00,51.7,47.3,30.05,East,93,5.0,6.0,85,0.00,,---,0.00,VWS V14.01,2013-05-03 16:18:00,
2013-05-03 12:19:00,51.7,47.3,30.05,East,101,2.0,6.0,85,0.00,,---,0.00,VWS V14.01,2013-05-03 16:19:00,
2013-05-03 12:20:00,51.7,47.3,30.05,East,98,4.0,8.0,85,0.00,,---,0.00,VWS V14.01,2013-05-03 16:20:00,
2013-05-03 12:21:00,51.7,47.3,30.05,SE,127,1.0,3.0,85,0.00,,---,0.00,VWS V14.01,2013-05-03 16:21:00,
2013-05-03 12:22:00,51.7,47.0,30.05,East,90,6.0,7.0,84,0.00,,---,0.00,VWS V14.01,2013-05-03 16:22:00,
2013-05-03 12:23:00,51.7,47.0,30.05,ESE,121,6.0,7.0,84,0.00,,---,0.00,VWS V14.01,2013-05-03 16:23:00,
2013-05-03 12:24:00,51.7,47.0,30.05,East,96,5.0,7.0,84,0.00,,---,0.00,VWS V14.01,2013-05-03 16:24:00,
2013-05-03 12:25:00,51.7,47.0,30.05,East,80,4.0,7.0,84,0.00,,---,0.00,VWS V14.01,2013-05-03 16:25:00,
2013-05-03 12:26:00,51.7,47.0,30.05,East,101,0.0,7.0,84,0.00,,---,0.00,VWS V14.01,2013-05-03 16:26:00,
2013-05-03 12:27:00,51.7,47.0,30.05,East,100,1.0,7.0,84,0.00,,---,0.00,VWS V14.01,2013-05-03 16:27:00,
2013-05-03 12:28:00,51.7,47.0,30.05,East,93,0.0,7.0,84,0.00,,---,0.00,VWS V14.01,2013-05-03 16:28:00,
2013-05-03 12:29:00,51.7,47.0,30.05,East,94,2.0,7.0,84,0.00,,---,0.00,VWS V14.01,2013-05-03 16:29:00,
2013-05-03 12:30:00,51.7,47.0,30.05,East,94,2.0,7.0,84,0.00,,---,0.00,VWS V14.01,2013-05-03 16:30:00,
2013-05-03 12:31:00,51.7,47.0,30.05,East,98,5.0,5.0,84,0.00,,---,0.00,VWS V14.01,2013-05-03 16:31:00,
2013-05-03 12:32:00,51.7,47.0,30.05,East,98,5.0,5.0,84,0.00,,---,0.00,VWS V14.01,2013-05-03 16:32:00,
2013-05-03 12:33:00,51.7,47.0,30.05,ESE,104,5.0,5.0,84,0.00,,---,0.00,VWS V14.01,2013-05-03 16:33:00,
2013-05-03 12:34:00,51.6,46.9,30.05,ESE,113,3.0,5.0,84,0.00,,---,0.00,VWS V14.01,2013-05-03 16:34:00,
2013-05-03 12:35:00,51.6,46.9,30.05,East,91,5.0,7.0,84,0.00,,---,0.00,VWS V14.01,2013-05-03 16:35:00,
2013-05-03 12:36:00,51.6,46.9,30.05,ESE,118,0.0,7.0,84,0.00,,---,0.00,VWS V14.01,2013-05-03 16:36:00,
2013-05-03 12:37:00,51.6,46.9,30.05,East,97,0.0,7.0,84,0.00,,---,0.00,VWS V14.01,2013-05-03 16:37:00,
2013-05-03 12:38:00,51.6,46.9,30.05,ESE,108,2.0,7.0,84,0.00,,---,0.00,VWS V14.01,2013-05-03 16:38:00,
2013-05-03 12:39:00,51.6,46.6,30.05,East,98,3.0,7.0,83,0.00,,---,0.00,VWS V14.01,2013-05-03 16:39:00,
2013-05-03 12:40:00,51.4,46.4,30.05,East,93,2.0,8.0,83,0.00,,---,0.00,VWS V14.01,2013-05-03 16:40:00,
2013-05-03 12:41:00,51.4,46.4,30.05,East,100,5.0,7.0,83,0.00,,---,0.00,VWS V14.01,2013-05-03 16:41:00,
2013-05-03 12:42:00,51.4,46.4,30.05,East,97,0.0,7.0,83,0.00,,---,0.00,VWS V14.01,2013-05-03 16:42:00,
2013-05-03 12:43:00,51.4,46.4,30.05,ESE,104,2.0,7.0,83,0.00,,---,0.00,VWS V14.01,2013-05-03 16:43:00,
2013-05-03 12:44:00,51.4,46.4,30.05,East,101,3.0,7.0,83,0.00,,---,0.00,VWS V14.01,2013-05-03 16:44:00,
2013-05-03 12:45:00,51.4,46.4,30.04,ESE,103,3.0,7.0,83,0.00,,---,0.00,VWS V14.01,2013-05-03 16:45:00,
2013-05-03 12:46:00,51.4,46.4,30.04,East,97,5.0,7.0,83,0.00,,---,0.00,VWS V14.01,2013-05-03 16:46:00,
2013-05-03 12:47:00,51.3,46.3,30.04,East,83,1.0,7.0,83,0.00,,---,0.00,VWS V14.01,2013-05-03 16:47:00,
2013-05-03 12:48:00,51.3,46.3,30.04,East,98,3.0,7.0,83,0.00,,---,0.00,VWS V14.01,2013-05-03 16:48:00,
2013-05-03 12:49:00,51.3,46.3,30.04,East,96,6.0,7.0,83,0.00,,---,0.00,VWS V14.01,2013-05-03 16:49:00,
2013-05-03 12:50:00,51.3,46.3,30.04,East,91,7.0,8.0,83,0.00,,---,0.00,VWS V14.01,2013-05-03 16:50:00,
2013-05-03 12:51:00,51.3,46.3,30.04,SE,128,6.0,7.0,83,0.00,,---,0.00,VWS V14.01,2013-05-03 16:51:00,
2013-05-03 12:52:00,51.3,46.3,30.04,SE,127,0.0,7.0,83,0.00,,---,0.00,VWS V14.01,2013-05-03 16:52:00,
2013-05-03 12:53:00,51.1,46.1,30.04,East,94,1.0,7.0,83,0.00,,---,0.00,VWS V14.01,2013-05-03 16:53:00,
2013-05-03 12:54:00,51.1,46.1,30.04,East,94,1.0,7.0,83,0.00,,---,0.00,VWS V14.01,2013-05-03 16:54:00,
2013-05-03 12:55:00,51.1,46.1,30.04,East,96,4.0,7.0,83,0.00,,---,0.00,VWS V14.01,2013-05-03 16:55:00,
2013-05-03 12:56:00,51.1,46.1,30.04,East,97,6.0,7.0,83,0.00,,---,0.00,VWS V14.01,2013-05-03 16:56:00,
2013-05-03 12:57:00,51.1,46.1,30.04,ESE,104,6.0,7.0,83,0.00,,---,0.00,VWS V14.01,2013-05-03 16:57:00,
2013-05-03 12:58:00,51.1,46.1,30.04,ESE,121,5.0,7.0,83,0.00,,---,0.00,VWS V14.01,2013-05-03 16:58:00,
2013-05-03 12:59:00,51.1,45.8,30.04,ENE,65,2.0,7.0,82,0.00,,---,0.00,VWS V14.01,2013-05-03 16:59:00,
2013-05-03 13:00:00,51.1,45.8,30.05,ESE,111,1.0,7.0,82,0.00,,---,0.00,VWS V14.01,2013-05-03 17:00:00,
2013-05-03 13:01:00,51.1,45.8,30.05,SE,127,1.0,1.0,82,0.00,,---,0.00,VWS V14.01,2013-05-03 17:01:00,
2013-05-03 13:02:00,51.1,45.8,30.05,ESE,107,0.0,1.0,82,0.00,,---,0.00,VWS V14.01,2013-05-03 17:02:00,
2013-05-03 13:03:00,51.1,45.8,30.05,East,100,2.0,2.0,82,0.00,,---,0.00,VWS V14.01,2013-05-03 17:03:00,
2013-05-03 13:04:00,51.0,45.7,30.05,East,101,0.0,2.0,82,0.00,,---,0.00,VWS V14.01,2013-05-03 17:04:00,
2013-05-03 13:05:00,51.0,45.7,30.05,East,98,2.0,5.0,82,0.00,,---,0.00,VWS V14.01,2013-05-03 17:05:00,
2013-05-03 13:06:00,51.0,45.7,30.05,ESE,104,3.0,5.0,82,0.00,,---,0.00,VWS V14.01,2013-05-03 17:06:00,
2013-05-03 13:07:00,51.0,45.7,30.05,East,89,2.0,5.0,82,0.00,,---,0.00,VWS V14.01,2013-05-03 17:07:00,
2013-05-03 13:08:00,51.0,45.7,30.05,East,93,7.0,7.0,82,0.00,,---,0.00,VWS V14.01,2013-05-03 17:08:00,
2013-05-03 13:09:00,51.0,45.7,30.05,East,93,7.0,7.0,82,0.00,,---,0.00,VWS V14.01,2013-05-03 17:09:00,
2013-05-03 13:10:00,51.0,45.7,30.05,East,94,0.0,7.0,82,0.00,,---,0.00,VWS V14.01,2013-05-03 17:10:00,
2013-05-03 13:11:00,51.0,45.7,30.05,East,96,0.0,0.0,82,0.00,,---,0.00,VWS V14.01,2013-05-03 17:11:00,
2013-05-03 13:12:00,51.0,45.7,30.05,East,101,0.0,4.0,82,0.00,,---,0.00,VWS V14.01,2013-05-03 17:12:00,
2013-05-03 13:13:00,51.0,45.7,30.05,East,94,0.0,4.0,82,0.00,,---,0.00,VWS V14.01,2013-05-03 17:13:00,
2013-05-03 13:14:00,51.0,45.7,30.05,East,94,0.0,4.0,82,0.00,,---,0.00,VWS V14.01,2013-05-03 17:14:00,
2013-05-03 13:15:00,50.8,45.5,30.04,East,94,0.0,4.0,82,0.00,,---,0.00,VWS V14.01,2013-05-03 17:15:00,
2013-05-03 13:16:00,50.8,45.5,30.04,East,94,0.0,4.0,82,0.00,,---,0.00,VWS V14.01,2013-05-03 17:16:00,
2013-05-03 13:17:00,50.7,45.4,30.04,East,86,5.0,5.0,82,0.00,,---,0.00,VWS V14.01,2013-05-03 17:17:00,
2013-05-03 13:18:00,50.7,45.4,30.04,East,79,4.0,6.0,82,0.00,,---,0.00,VWS V14.01,2013-05-03 17:18:00,
2013-05-03 13:19:00,50.5,45.2,30.04,East,89,3.0,7.0,82,0.00,,---,0.00,VWS V14.01,2013-05-03 17:19:00,
2013-05-03 13:20:00,50.5,45.2,30.04,East,84,2.0,8.0,82,0.00,,---,0.00,VWS V14.01,2013-05-03 17:20:00,
2013-05-03 13:21:00,50.4,45.1,30.04,East,100,2.0,3.0,82,0.00,,---,0.00,VWS V14.01,2013-05-03 17:21:00,
2013-05-03 13:22:00,50.4,45.4,30.04,East,89,3.0,5.0,83,0.00,,---,0.00,VWS V14.01,2013-05-03 17:22:00,
2013-05-03 13:23:00,50.2,45.2,30.04,East,94,3.0,5.0,83,0.00,,---,0.00,VWS V14.01,2013-05-03 17:23:00,
2013-05-03 13:24:00,50.2,45.2,30.04,East,96,3.0,5.0,83,0.00,,---,0.00,VWS V14.01,2013-05-03 17:24:00,
2013-05-03 13:25:00,50.2,45.2,30.04,East,96,3.0,6.0,83,0.00,,---,0.00,VWS V14.01,2013-05-03 17:25:00,
2013-05-03 13:26:00,50.1,45.2,30.04,ENE,66,5.0,6.0,83,0.00,,---,0.00,VWS V14.01,2013-05-03 17:26:00,
2013-05-03 13:27:00,50.1,45.2,30.04,East,100,2.0,6.0,83,0.00,,---,0.00,VWS V14.01,2013-05-03 17:27:00,
2013-05-03 13:28:00,49.9,45.0,30.04,East,98,7.0,7.0,83,0.00,,---,0.00,VWS V14.01,2013-05-03 17:28:00,
2013-05-03 13:29:00,49.9,45.0,30.04,East,87,2.0,7.0,83,0.00,,---,0.00,VWS V14.01,2013-05-03 17:29:00,
2013-05-03 13:30:00,49.9,45.3,30.04,ESE,103,5.0,7.0,84,0.00,,---,0.00,VWS V14.01,2013-05-03 17:30:00,
2013-05-03 13:31:00,49.9,45.3,30.04,East,91,0.0,5.0,84,0.00,,---,0.00,VWS V14.01,2013-05-03 17:31:00,
2013-05-03 13:32:00,49.9,45.3,30.04,East,91,6.0,6.0,84,0.00,,---,0.00,VWS V14.01,2013-05-03 17:32:00,
2013-05-03 13:33:00,49.9,45.3,30.04,East,100,5.0,6.0,84,0.00,,---,0.00,VWS V14.01,2013-05-03 17:33:00,
2013-05-03 13:34:00,49.8,45.2,30.04,ENE,73,5.0,6.0,84,0.00,,---,0.00,VWS V14.01,2013-05-03 17:34:00,
2013-05-03 13:35:00,49.8,45.2,30.04,East,97,8.0,8.0,84,0.00,,---,0.00,VWS V14.01,2013-05-03 17:35:00,
2013-05-03 13:36:00,49.8,45.2,30.04,East,84,4.0,8.0,84,0.00,,---,0.00,VWS V14.01,2013-05-03 17:36:00,
2013-05-03 13:37:00,49.8,45.2,30.04,East,91,6.0,8.0,84,0.00,,---,0.00,VWS V14.01,2013-05-03 17:37:00,
2013-05-03 13:38:00,49.8,45.2,30.04,East,89,2.0,8.0,84,0.00,,---,0.00,VWS V14.01,2013-05-03 17:38:00,
2013-05-03 13:39:00,49.8,45.2,30.04,East,86,3.0,8.0,84,0.00,,---,0.00,VWS V14.01,2013-05-03 17:39:00,
2013-05-03 13:40:00,49.8,45.2,30.04,ESE,104,1.0,8.0,84,0.00,,---,0.00,VWS V14.01,2013-05-03 17:40:00,
2013-05-03 13:41:00,49.8,45.2,30.04,East,91,5.0,7.0,84,0.00,,---,0.00,VWS V14.01,2013-05-03 17:41:00,
2013-05-03 13:42:00,49.8,45.2,30.04,East,94,5.0,7.0,84,0.00,,---,0.00,VWS V14.01,2013-05-03 17:42:00,
2013-05-03 13:43:00,49.8,45.2,30.04,East,91,3.0,7.0,84,0.00,,---,0.00,VWS V14.01,2013-05-03 17:43:00,
2013-05-03 13:44:00,49.6,45.0,30.04,East,100,0.0,7.0,84,0.00,,---,0.00,VWS V14.01,2013-05-03 17:44:00,
2013-05-03 13:45:00,49.6,45.0,30.03,ESE,111,2.0,7.0,84,0.00,,---,0.00,VWS V14.01,2013-05-03 17:45:00,
2013-05-03 13:46:00,49.6,45.0,30.03,East,97,4.0,7.0,84,0.00,,---,0.00,VWS V14.01,2013-05-03 17:46:00,
2013-05-03 13:47:00,49.6,45.0,30.03,East,96,6.0,7.0,84,0.00,,---,0.00,VWS V14.01,2013-05-03 17:47:00,
2013-05-03 13:48:00,49.6,45.0,30.03,ESE,103,0.0,7.0,84,0.00,,---,0.00,VWS V14.01,2013-05-03 17:48:00,
2013-05-03 13:49:00,49.6,45.0,30.03,East,96,1.0,7.0,84,0.00,,---,0.00,VWS V14.01,2013-05-03 17:49:00,
2013-05-03 13:50:00,49.6,45.0,30.03,East,101,0.0,7.0,84,0.00,,---,0.00,VWS V14.01,2013-05-03 17:50:00,
2013-05-03 13:51:00,49.6,45.0,30.03,East,87,0.0,0.0,84,0.00,,---,0.00,VWS V14.01,2013-05-03 17:51:00,
2013-05-03 13:52:00,49.6,45.0,30.03,East,91,2.0,6.0,84,0.00,,---,0.00,VWS V14.01,2013-05-03 17:52:00,
2013-05-03 13:53:00,49.6,45.0,30.03,ESE,104,5.0,7.0,84,0.00,,---,0.00,VWS V14.01,2013-05-03 17:53:00,
2013-05-03 13:54:00,49.6,45.0,30.03,East,91,4.0,7.0,84,0.00,,---,0.00,VWS V14.01,2013-05-03 17:54:00,
2013-05-03 13:55:00,49.6,45.0,30.03,East,97,4.0,7.0,84,0.00,,---,0.00,VWS V14.01,2013-05-03 17:55:00,
2013-05-03 13:56:00,49.6,45.0,30.03,East,94,1.0,7.0,84,0.00,,---,0.00,VWS V14.01,2013-05-03 17:56:00,
2013-05-03 13:57:00,49.6,45.0,30.03,East,96,2.0,7.0,84,0.00,,---,0.00,VWS V14.01,2013-05-03 17:57:00,
2013-05-03 13:58:00,49.5,44.9,30.03,East,96,3.0,7.0,84,0.00,,---,0.00,VWS V14.01,2013-05-03 17:58:00,
2013-05-03 13:59:00,49.5,44.9,30.03,East,97,4.0,7.0,84,0.00,,---,0.00,VWS V14.01,2013-05-03 17:59:00,
2013-05-03 14:00:00,49.5,44.9,30.02,East,101,3.0,7.0,84,0.00,,---,0.00,VWS V14.01,2013-05-03 18:00:00,
2013-05-03 14:01:00,49.5,44.9,30.02,ESE,106,1.0,3.0,84,0.00,,---,0.00,VWS V14.01,2013-05-03 18:01:00,
2013-05-03 14:02:00,49.5,44.9,30.02,ESE,104,2.0,3.0,84,0.00,,---,0.00,VWS V14.01,2013-05-03 18:02:00,
2013-05-03 14:03:00,49.5,44.9,30.02,East,91,3.0,3.0,84,0.00,,---,0.00,VWS V14.01,2013-05-03 18:03:00,
2013-05-03 14:04:00,49.5,44.9,30.02,East,101,0.0,3.0,84,0.00,,---,0.00,VWS V14.01,2013-05-03 18:04:00,
2013-05-03 14:05:00,49.5,44.9,30.02,East,100,5.0,5.0,84,0.00,,---,0.00,VWS V14.01,2013-05-03 18:05:00,
2013-05-03 14:06:00,49.5,44.9,30.02,East,98,0.0,5.0,84,0.00,,---,0.00,VWS V14.01,2013-05-03 18:06:00,
2013-05-03 14:07:00,49.5,44.9,30.02,ESE,111,0.0,5.0,84,0.00,,---,0.00,VWS V14.01,2013-05-03 18:07:00,
2013-05-03 14:08:00,49.5,44.2,30.02,East,97,2.0,5.0,82,0.00,,---,0.00,VWS V14.01,2013-05-03 18:08:00,
2013-05-03 14:09:00,49.4,44.1,30.02,East,89,6.0,7.0,82,0.00,,---,0.00,VWS V14.01,2013-05-03 18:09:00,
2013-05-03 14:10:00,49.4,44.1,30.02,East,97,0.0,7.0,82,0.00,,---,0.00,VWS V14.01,2013-05-03 18:10:00,
2013-05-03 14:11:00,49.4,44.1,30.02,East,97,0.0,0.0,82,0.00,,---,0.00,VWS V14.01,2013-05-03 18:11:00,
2013-05-03 14:12:00,49.4,44.1,30.02,East,97,0.0,0.0,82,0.00,,---,0.00,VWS V14.01,2013-05-03 18:12:00,
2013-05-03 14:13:00,49.2,44.0,30.02,ESE,111,0.0,6.0,82,0.00,,---,0.00,VWS V14.01,2013-05-03 18:13:00,
2013-05-03 14:14:00,49.2,44.0,30.02,ESE,108,0.0,6.0,82,0.00,,---,0.00,VWS V14.01,2013-05-03 18:14:00,
2013-05-03 14:15:00,49.2,44.0,30.02,ESE,115,2.0,6.0,82,0.00,,---,0.00,VWS V14.01,2013-05-03 18:15:00,
2013-05-03 14:16:00,49.2,44.0,30.02,ESE,110,4.0,6.0,82,0.00,,---,0.00,VWS V14.01,2013-05-03 18:16:00,
2013-05-03 14:17:00,49.2,44.0,30.02,East,96,1.0,6.0,82,0.00,,---,0.00,VWS V14.01,2013-05-03 18:17:00,
2013-05-03 14:18:00,49.2,43.6,30.02,East,94,1.0,6.0,81,0.00,,---,0.00,VWS V14.01,2013-05-03 18:18:00,
2013-05-03 14:19:00,49.2,43.6,30.02,East,94,1.0,6.0,81,0.00,,---,0.00,VWS V14.01,2013-05-03 18:19:00,
2013-05-03 14:20:00,49.2,43.6,30.02,East,89,3.0,6.0,81,0.00,,---,0.00,VWS V14.01,2013-05-03 18:20:00,
2013-05-03 14:21:00,49.2,43.6,30.02,East,90,6.0,6.0,81,0.00,,---,0.00,VWS V14.01,2013-05-03 18:21:00,
2013-05-03 14:22:00,49.2,43.6,30.02,ENE,76,5.0,6.0,81,0.00,,---,0.00,VWS V14.01,2013-05-03 18:22:00,
2013-05-03 14:23:00,49.1,43.5,30.02,East,98,1.0,6.0,81,0.00,,---,0.00,VWS V14.01,2013-05-03 18:23:00,
2013-05-03 14:24:00,49.1,43.5,30.02,ESE,104,0.0,6.0,81,0.00,,---,0.00,VWS V14.01,2013-05-03 18:24:00,
2013-05-03 14:25:00,49.1,43.5,30.02,East,97,3.0,6.0,81,0.00,,---,0.00,VWS V14.01,2013-05-03 18:25:00,
2013-05-03 14:26:00,49.1,43.5,30.02,East,87,0.0,6.0,81,0.00,,---,0.00,VWS V14.01,2013-05-03 18:26:00,
2013-05-03 14:27:00,49.1,43.5,30.02,East,87,0.0,6.0,81,0.00,,---,0.00,VWS V14.01,2013-05-03 18:27:00,
2013-05-03 14:28:00,49.1,43.5,30.02,East,87,0.0,6.0,81,0.00,,---,0.00,VWS V14.01,2013-05-03 18:28:00,
2013-05-03 14:29:00,49.1,43.5,30.02,East,101,0.0,6.0,81,0.00,,---,0.00,VWS V14.01,2013-05-03 18:29:00,
2013-05-03 14:30:00,49.1,43.5,30.02,East,91,2.0,6.0,81,0.00,,---,0.00,VWS V14.01,2013-05-03 18:30:00,
2013-05-03 14:31:00,49.1,43.5,30.02,East,89,0.0,5.0,81,0.00,,---,0.00,VWS V14.01,2013-05-03 18:31:00,
2013-05-03 14:32:00,48.9,43.3,30.02,East,83,3.0,5.0,81,0.00,,---,0.00,VWS V14.01,2013-05-03 18:32:00,
2013-05-03 14:33:00,48.9,43.3,30.02,East,94,0.0,5.0,81,0.00,,---,0.00,VWS V14.01,2013-05-03 18:33:00,
2013-05-03 14:34:00,48.9,43.3,30.02,East,84,6.0,6.0,81,0.00,,---,0.00,VWS V14.01,2013-05-03 18:34:00,
2013-05-03 14:35:00,48.9,43.3,30.02,East,97,0.0,6.0,81,0.00,,---,0.00,VWS V14.01,2013-05-03 18:35:00,
2013-05-03 14:36:00,48.9,43.3,30.02,NE,45,0.0,6.0,81,0.00,,---,0.00,VWS V14.01,2013-05-03 18:36:00,
2013-05-03 14:37:00,48.9,43.3,30.02,ENE,63,5.0,7.0,81,0.00,,---,0.00,VWS V14.01,2013-05-03 18:37:00,
2013-05-03 14:38:00,48.8,43.2,30.02,ESE,107,0.0,7.0,81,0.00,,---,0.00,VWS V14.01,2013-05-03 18:38:00,
2013-05-03 14:39:00,48.8,43.2,30.02,East,83,1.0,7.0,81,0.00,,---,0.00,VWS V14.01,2013-05-03 18:39:00,
2013-05-03 14:40:00,48.8,43.2,30.02,ENE,77,2.0,7.0,81,0.00,,---,0.00,VWS V14.01,2013-05-03 18:40:00,
2013-05-03 14:41:00,48.8,43.2,30.02,East,94,2.0,2.0,81,0.00,,---,0.00,VWS V14.01,2013-05-03 18:41:00,
2013-05-03 14:42:00,48.8,43.2,30.02,ESE,103,1.0,2.0,81,0.00,,---,0.00,VWS V14.01,2013-05-03 18:42:00,
2013-05-03 14:43:00,48.8,43.2,30.02,East,91,6.0,6.0,81,0.00,,---,0.00,VWS V14.01,2013-05-03 18:43:00,
2013-05-03 14:44:00,48.8,43.2,30.02,East,90,3.0,6.0,81,0.00,,---,0.00,VWS V14.01,2013-05-03 18:44:00,
2013-05-03 14:45:00,48.8,43.2,30.02,SE,124,0.0,6.0,81,0.00,,---,0.00,VWS V14.01,2013-05-03 18:45:00,
2013-05-03 14:46:00,48.6,43.0,30.02,East,98,6.0,6.0,81,0.00,,---,0.00,VWS V14.01,2013-05-03 18:46:00,
2013-05-03 14:47:00,48.6,43.0,30.02,ESE,104,5.0,6.0,81,0.00,,---,0.00,VWS V14.01,2013-05-03 18:47:00,
2013-05-03 14:48:00,48.6,43.0,30.02,East,86,5.0,6.0,81,0.00,,---,0.00,VWS V14.01,2013-05-03 18:48:00,
2013-05-03 14:49:00,48.6,43.0,30.02,East,101,2.0,6.0,81,0.00,,---,0.00,VWS V14.01,2013-05-03 18:49:00,
2013-05-03 14:50:00,48.6,43.0,30.02,East,91,4.0,6.0,81,0.00,,---,0.00,VWS V14.01,2013-05-03 18:50:00,
2013-05-03 14:51:00,48.5,43.0,30.02,East,101,2.0,6.0,81,0.00,,---,0.00,VWS V14.01,2013-05-03 18:51:00,
2013-05-03 14:52:00,48.5,43.0,30.02,East,94,3.0,6.0,81,0.00,,---,0.00,VWS V14.01,2013-05-03 18:52:00,
2013-05-03 14:53:00,48.5,43.0,30.02,East,96,1.0,6.0,81,0.00,,---,0.00,VWS V14.01,2013-05-03 18:53:00,
2013-05-03 14:54:00,48.5,43.0,30.02,East,90,5.0,10.0,81,0.00,,---,0.00,VWS V14.01,2013-05-03 18:54:00,
2013-05-03 14:55:00,48.3,42.8,30.02,East,90,3.0,10.0,81,0.00,,---,0.00,VWS V14.01,2013-05-03 18:55:00,
2013-05-03 14:56:00,48.3,42.8,30.02,East,91,0.0,10.0,81,0.00,,---,0.00,VWS V14.01,2013-05-03 18:56:00,
2013-05-03 14:57:00,48.3,42.8,30.02,East,94,5.0,10.0,81,0.00,,---,0.00,VWS V14.01,2013-05-03 18:57:00,
2013-05-03 14:58:00,48.3,42.4,30.02,East,91,5.0,10.0,80,0.00,,---,0.00,VWS V14.01,2013-05-03 18:58:00,
2013-05-03 14:59:00,48.2,42.3,30.02,ESE,106,4.0,10.0,80,0.00,,---,0.00,VWS V14.01,2013-05-03 18:59:00,
2013-05-03 15:00:00,48.2,42.0,30.03,East,101,6.0,11.0,79,0.00,,---,0.00,VWS V14.01,2013-05-03 19:00:00,
2013-05-03 15:01:00,48.2,42.0,30.03,East,100,7.0,7.0,79,0.00,,---,0.00,VWS V14.01,2013-05-03 19:01:00,
2013-05-03 15:02:00,48.2,42.0,30.03,ESE,122,5.0,7.0,79,0.00,,---,0.00,VWS V14.01,2013-05-03 19:02:00,
2013-05-03 15:03:00,48.0,41.8,30.03,ENE,76,0.0,7.0,79,0.00,,---,0.00,VWS V14.01,2013-05-03 19:03:00,
2013-05-03 15:04:00,48.0,41.8,30.03,East,97,7.0,7.0,79,0.00,,---,0.00,VWS V14.01,2013-05-03 19:04:00,
2013-05-03 15:05:00,48.0,41.8,30.03,ENE,77,8.0,8.0,79,0.00,,---,0.00,VWS V14.01,2013-05-03 19:05:00,
2013-05-03 15:06:00,48.0,41.8,30.03,East,97,7.0,8.0,79,0.00,,---,0.00,VWS V14.01,2013-05-03 19:06:00,
2013-05-03 15:07:00,47.9,41.7,30.03,East,83,9.0,12.0,79,0.00,,---,0.00,VWS V14.01,2013-05-03 19:07:00,
2013-05-03 15:08:00,47.9,41.7,30.03,East,94,5.0,12.0,79,0.00,,---,0.00,VWS V14.01,2013-05-03 19:08:00,
2013-05-03 15:09:00,47.9,41.7,30.03,ESE,108,8.0,12.0,79,0.00,,---,0.00,VWS V14.01,2013-05-03 19:09:00,
2013-05-03 15:10:00,47.9,41.7,30.03,East,91,5.0,12.0,79,0.00,,---,0.00,VWS V14.01,2013-05-03 19:10:00,
2013-05-03 15:11:00,47.7,41.5,30.03,ENE,74,12.0,12.0,79,0.00,,---,0.00,VWS V14.01,2013-05-03 19:11:00,
2013-05-03 15:12:00,47.7,41.5,30.03,East,94,5.0,12.0,79,0.00,,---,0.00,VWS V14.01,2013-05-03 19:12:00,
2013-05-03 15:13:00,47.7,41.5,30.03,East,86,6.0,12.0,79,0.00,,---,0.00,VWS V14.01,2013-05-03 19:13:00,
2013-05-03 15:14:00,47.7,41.5,30.03,East,90,5.0,12.0,79,0.00,,---,0.00,VWS V14.01,2013-05-03 19:14:00,
2013-05-03 15:15:00,47.7,41.5,30.02,East,98,3.0,12.0,79,0.00,,---,0.00,VWS V14.01,2013-05-03 19:15:00,
2013-05-03 15:16:00,47.7,41.5,30.02,East,91,8.0,12.0,79,0.00,,---,0.00,VWS V14.01,2013-05-03 19:16:00,
2013-05-03 15:17:00,47.6,41.4,30.02,East,96,10.0,12.0,79,0.00,,---,0.00,VWS V14.01,2013-05-03 19:17:00,
2013-05-03 15:18:00,47.6,41.4,30.02,East,89,7.0,12.0,79,0.00,,---,0.00,VWS V14.01,2013-05-03 19:18:00,
2013-05-03 15:19:00,47.6,41.4,30.02,East,98,3.0,12.0,79,0.00,,---,0.00,VWS V14.01,2013-05-03 19:19:00,
2013-05-03 15:20:00,47.4,41.2,30.02,East,86,5.0,12.0,79,0.00,,---,0.00,VWS V14.01,2013-05-03 19:20:00,
2013-05-03 15:21:00,47.4,41.2,30.02,East,100,5.0,6.0,79,0.00,,---,0.00,VWS V14.01,2013-05-03 19:21:00,
2013-05-03 15:22:00,47.4,41.2,30.02,East,93,7.0,7.0,79,0.00,,---,0.00,VWS V14.01,2013-05-03 19:22:00,
2013-05-03 15:23:00,47.4,41.2,30.02,East,94,7.0,7.0,79,0.00,,---,0.00,VWS V14.01,2013-05-03 19:23:00,
2013-05-03 15:24:00,47.4,41.2,30.02,East,84,6.0,8.0,79,0.00,,---,0.00,VWS V14.01,2013-05-03 19:24:00,
2013-05-03 15:25:00,47.3,41.1,30.02,ESE,106,5.0,8.0,79,0.00,,---,0.00,VWS V14.01,2013-05-03 19:25:00,
2013-05-03 15:26:00,47.3,41.1,30.02,East,86,0.0,8.0,79,0.00,,---,0.00,VWS V14.01,2013-05-03 19:26:00,
2013-05-03 15:27:00,47.3,41.1,30.02,East,101,4.0,8.0,79,0.00,,---,0.00,VWS V14.01,2013-05-03 19:27:00,
2013-05-03 15:28:00,47.3,41.1,30.02,East,96,6.0,8.0,79,0.00,,---,0.00,VWS V14.01,2013-05-03 19:28:00,
2013-05-03 15:29:00,47.1,40.9,30.02,ESE,113,6.0,8.0,79,0.00,,---,0.00,VWS V14.01,2013-05-03 19:29:00,
2013-05-03 15:30:00,47.1,41.3,30.01,East,94,5.0,8.0,80,0.00,,---,0.00,VWS V14.01,2013-05-03 19:30:00,
2013-05-03 15:31:00,47.1,41.3,30.01,East,80,11.0,13.0,80,0.00,,---,0.00,VWS V14.01,2013-05-03 19:31:00,
2013-05-03 15:32:00,47.0,41.2,30.01,ENE,73,6.0,13.0,80,0.00,,---,0.00,VWS V14.01,2013-05-03 19:32:00,
2013-05-03 15:33:00,47.0,41.2,30.01,ESE,118,4.0,13.0,80,0.00,,---,0.00,VWS V14.01,2013-05-03 19:33:00,
2013-05-03 15:34:00,47.0,41.2,30.01,ENE,77,6.0,13.0,80,0.00,,---,0.00,VWS V14.01,2013-05-03 19:34:00,
2013-05-03 15:35:00,47.0,41.2,30.01,ESE,114,5.0,13.0,80,0.00,,---,0.00,VWS V14.01,2013-05-03 19:35:00,
2013-05-03 15:36:00,47.0,41.2,30.01,ESE,120,7.0,13.0,80,0.00,,---,0.00,VWS V14.01,2013-05-03 19:36:00,
2013-05-03 15:37:00,47.0,41.2,30.01,ENE,67,6.0,13.0,80,0.00,,---,0.00,VWS V14.01,2013-05-03 19:37:00,
2013-05-03 15:38:00,46.8,40.6,30.01,East,90,5.0,13.0,79,0.00,,---,0.00,VWS V14.01,2013-05-03 19:38:00,
2013-05-03 15:39:00,46.7,40.5,30.01,East,89,5.0,13.0,79,0.00,,---,0.00,VWS V14.01,2013-05-03 19:39:00,
2013-05-03 15:40:00,46.7,40.5,30.01,East,89,6.0,13.0,79,0.00,,---,0.00,VWS V14.01,2013-05-03 19:40:00,
2013-05-03 15:41:00,46.7,40.5,30.01,East,89,6.0,6.0,79,0.00,,---,0.00,VWS V14.01,2013-05-03 19:41:00,
2013-05-03 15:42:00,46.5,40.3,30.01,East,83,5.0,7.0,79,0.00,,---,0.00,VWS V14.01,2013-05-03 19:42:00,
2013-05-03 15:43:00,46.5,40.3,30.01,East,98,6.0,8.0,79,0.00,,---,0.00,VWS V14.01,2013-05-03 19:43:00,
2013-05-03 15:44:00,46.5,40.3,30.01,ESE,107,6.0,8.0,79,0.00,,---,0.00,VWS V14.01,2013-05-03 19:44:00,
2013-05-03 15:45:00,46.5,40.3,30.02,ESE,103,3.0,8.0,79,0.00,,---,0.00,VWS V14.01,2013-05-03 19:45:00,
2013-05-03 15:46:00,46.5,40.3,30.02,ESE,103,3.0,8.0,79,0.00,,---,0.00,VWS V14.01,2013-05-03 19:46:00,
2013-05-03 15:47:00,46.4,40.2,30.02,SE,124,6.0,8.0,79,0.00,,---,0.00,VWS V14.01,2013-05-03 19:47:00,
2013-05-03 15:48:00,46.4,40.2,30.02,East,100,7.0,8.0,79,0.00,,---,0.00,VWS V14.01,2013-05-03 19:48:00,
2013-05-03 15:49:00,46.4,40.2,30.02,East,100,7.0,8.0,79,0.00,,---,0.00,VWS V14.01,2013-05-03 19:49:00,
2013-05-03 15:50:00,46.4,40.2,30.02,East,90,2.0,8.0,79,0.00,,---,0.00,VWS V14.01,2013-05-03 19:50:00,
2013-05-03 15:51:00,46.4,40.2,30.02,East,90,2.0,2.0,79,0.00,,---,0.00,VWS V14.01,2013-05-03 19:51:00,
2013-05-03 15:52:00,46.4,40.2,30.02,East,90,2.0,2.0,79,0.00,,---,0.00,VWS V14.01,2013-05-03 19:52:00,
2013-05-03 15:53:00,46.2,40.1,30.02,East,93,4.0,7.0,79,0.00,,---,0.00,VWS V14.01,2013-05-03 19:53:00,
2013-05-03 15:54:00,46.2,40.1,30.02,East,93,2.0,7.0,79,0.00,,---,0.00,VWS V14.01,2013-05-03 19:54:00,
2013-05-03 15:55:00,46.2,40.1,30.02,East,93,2.0,7.0,79,0.00,,---,0.00,VWS V14.01,2013-05-03 19:55:00,
2013-05-03 15:56:00,46.1,40.0,30.02,East,89,7.0,11.0,79,0.00,,---,0.00,VWS V14.01,2013-05-03 19:56:00,
2013-05-03 15:57:00,46.1,40.0,30.02,East,98,1.0,11.0,79,0.00,,---,0.00,VWS V14.01,2013-05-03 19:57:00,
2013-05-03 15:58:00,46.1,40.0,30.02,ESE,117,2.0,11.0,79,0.00,,---,0.00,VWS V14.01,2013-05-03 19:58:00,
2013-05-03 15:59:00,46.1,40.0,30.02,ENE,69,10.0,11.0,79,0.00,,---,0.00,VWS V14.01,2013-05-03 19:59:00,
2013-05-03 16:00:00,46.1,40.0,30.02,ESE,117,4.0,11.0,79,0.00,,---,0.00,VWS V14.01,2013-05-03 20:00:00,
2013-05-03 16:01:00,46.1,40.0,30.02,ESE,117,1.0,1.0,79,0.00,,---,0.00,VWS V14.01,2013-05-03 20:01:00,
2013-05-03 16:02:00,46.0,39.9,30.02,ESE,103,3.0,3.0,79,0.00,,---,0.00,VWS V14.01,2013-05-03 20:02:00,
2013-05-03 16:03:00,46.0,39.9,30.02,ESE,106,0.0,6.0,79,0.00,,---,0.00,VWS V14.01,2013-05-03 20:03:00,
2013-05-03 16:04:00,46.0,39.9,30.02,ESE,110,6.0,6.0,79,0.00,,---,0.00,VWS V14.01,2013-05-03 20:04:00,
2013-05-03 16:05:00,46.0,39.9,30.02,ESE,104,1.0,6.0,79,0.00,,---,0.00,VWS V14.01,2013-05-03 20:05:00,
2013-05-03 16:06:00,46.0,39.9,30.02,ENE,73,2.0,6.0,79,0.00,,---,0.00,VWS V14.01,2013-05-03 20:06:00,
2013-05-03 16:07:00,46.0,39.9,30.02,SE,125,3.0,6.0,79,0.00,,---,0.00,VWS V14.01,2013-05-03 20:07:00,
2013-05-03 16:08:00,45.8,39.7,30.02,East,94,9.0,10.0,79,0.00,,---,0.00,VWS V14.01,2013-05-03 20:08:00,
2013-05-03 16:09:00,45.8,39.7,30.02,East,84,5.0,10.0,79,0.00,,---,0.00,VWS V14.01,2013-05-03 20:09:00,
2013-05-03 16:10:00,45.8,39.7,30.02,ESE,106,4.0,10.0,79,0.00,,---,0.00,VWS V14.01,2013-05-03 20:10:00,
2013-05-03 16:11:00,45.8,39.7,30.02,East,100,5.0,11.0,79,0.00,,---,0.00,VWS V14.01,2013-05-03 20:11:00,
2013-05-03 16:12:00,45.8,39.7,30.02,East,100,5.0,11.0,79,0.00,,---,0.00,VWS V14.01,2013-05-03 20:12:00,
2013-05-03 16:13:00,45.8,39.7,30.02,ESE,106,4.0,11.0,79,0.00,,---,0.00,VWS V14.01,2013-05-03 20:13:00,
2013-05-03 16:14:00,45.7,39.6,30.02,NE,48,2.0,11.0,79,0.00,,---,0.00,VWS V14.01,2013-05-03 20:14:00,
2013-05-03 16:15:00,45.7,40.5,30.01,ESE,111,6.0,11.0,82,0.00,,---,0.00,VWS V14.01,2013-05-03 20:15:00,
2013-05-03 16:16:00,45.5,40.3,30.01,SE,124,10.0,11.0,82,0.00,,---,0.00,VWS V14.01,2013-05-03 20:16:00,
2013-05-03 16:17:00,45.5,40.3,30.01,East,94,10.0,11.0,82,0.00,,---,0.00,VWS V14.01,2013-05-03 20:17:00,
2013-05-03 16:18:00,45.4,40.2,30.01,ESE,106,7.0,11.0,82,0.00,,---,0.00,VWS V14.01,2013-05-03 20:18:00,
2013-05-03 16:19:00,45.4,40.2,30.01,East,98,5.0,11.0,82,0.00,,---,0.00,VWS V14.01,2013-05-03 20:19:00,
2013-05-03 16:20:00,45.4,40.2,30.01,ESE,117,6.0,11.0,82,0.00,,---,0.00,VWS V14.01,2013-05-03 20:20:00,
2013-05-03 16:21:00,45.2,40.0,30.01,SE,124,6.0,7.0,82,0.00,,---,0.00,VWS V14.01,2013-05-03 20:21:00,
2013-05-03 16:22:00,45.2,40.0,30.01,East,90,4.0,7.0,82,0.00,,---,0.00,VWS V14.01,2013-05-03 20:22:00,
2013-05-03 16:23:00,45.2,40.0,30.01,ESE,106,3.0,7.0,82,0.00,,---,0.00,VWS V14.01,2013-05-03 20:23:00,
2013-05-03 16:24:00,45.2,39.7,30.01,ESE,107,7.0,7.0,81,0.00,,---,0.00,VWS V14.01,2013-05-03 20:24:00,
2013-05-03 16:25:00,45.1,39.6,30.01,East,97,4.0,7.0,81,0.00,,---,0.00,VWS V14.01,2013-05-03 20:25:00,
2013-05-03 16:26:00,45.1,39.6,30.01,East,98,6.0,7.0,81,0.00,,---,0.00,VWS V14.01,2013-05-03 20:26:00,
2013-05-03 16:27:00,45.1,39.6,30.01,East,101,5.0,8.0,81,0.00,,---,0.00,VWS V14.01,2013-05-03 20:27:00,
2013-05-03 16:28:00,45.1,39.6,30.01,ESE,106,3.0,8.0,81,0.00,,---,0.00,VWS V14.01,2013-05-03 20:28:00,
2013-05-03 16:29:00,44.9,39.4,30.01,ESE,104,3.0,8.0,81,0.00,,---,0.00,VWS V14.01,2013-05-03 20:29:00,
2013-05-03 16:30:00,44.9,39.4,30.02,ESE,114,7.0,10.0,81,0.00,,---,0.00,VWS V14.01,2013-05-03 20:30:00,
2013-05-03 16:31:00,44.9,39.4,30.02,East,86,6.0,8.0,81,0.00,,---,0.00,VWS V14.01,2013-05-03 20:31:00,
2013-05-03 16:32:00,44.9,39.4,30.02,ESE,122,3.0,8.0,81,0.00,,---,0.00,VWS V14.01,2013-05-03 20:32:00,
2013-05-03 16:33:00,44.9,39.4,30.02,SE,138,8.0,8.0,81,0.00,,---,0.00,VWS V14.01,2013-05-03 20:33:00,
2013-05-03 16:34:00,44.8,39.7,30.02,ESE,117,7.0,8.0,82,0.00,,---,0.00,VWS V14.01,2013-05-03 20:34:00,
2013-05-03 16:35:00,44.8,39.7,30.02,SE,127,2.0,8.0,82,0.00,,---,0.00,VWS V14.01,2013-05-03 20:35:00,
2013-05-03 16:36:00,44.8,39.7,30.02,ESE,104,4.0,8.0,82,0.00,,---,0.00,VWS V14.01,2013-05-03 20:36:00,
2013-05-03 16:37:00,44.6,39.5,30.02,ESE,107,0.0,8.0,82,0.00,,---,0.00,VWS V14.01,2013-05-03 20:37:00,
2013-05-03 16:38:00,44.6,39.5,30.02,East,80,3.0,8.0,82,0.00,,---,0.00,VWS V14.01,2013-05-03 20:38:00,
2013-05-03 16:39:00,44.6,39.5,30.02,East,96,3.0,8.0,82,0.00,,---,0.00,VWS V14.01,2013-05-03 20:39:00,
2013-05-03 16:40:00,44.6,39.5,30.02,ESE,107,10.0,10.0,82,0.00,,---,0.00,VWS V14.01,2013-05-03 20:40:00,
2013-05-03 16:41:00,44.6,39.5,30.02,ESE,121,7.0,10.0,82,0.00,,---,0.00,VWS V14.01,2013-05-03 20:41:00,
2013-05-03 16:42:00,44.6,39.5,30.02,ESE,104,10.0,10.0,82,0.00,,---,0.00,VWS V14.01,2013-05-03 20:42:00,
2013-05-03 16:43:00,44.6,39.5,30.02,ESE,114,2.0,10.0,82,0.00,,---,0.00,VWS V14.01,2013-05-03 20:43:00,
2013-05-03 16:44:00,44.5,39.4,30.02,ENE,77,6.0,10.0,82,0.00,,---,0.00,VWS V14.01,2013-05-03 20:44:00,
2013-05-03 16:45:00,44.5,39.4,30.02,ESE,103,5.0,10.0,82,0.00,,---,0.00,VWS V14.01,2013-05-03 20:45:00,
2013-05-03 16:46:00,44.5,39.4,30.02,East,87,7.0,10.0,82,0.00,,---,0.00,VWS V14.01,2013-05-03 20:46:00,
2013-05-03 16:47:00,44.5,39.4,30.02,East,97,8.0,13.0,82,0.00,,---,0.00,VWS V14.01,2013-05-03 20:47:00,
2013-05-03 16:48:00,44.5,39.4,30.02,ENE,74,1.0,13.0,82,0.00,,---,0.00,VWS V14.01,2013-05-03 20:48:00,
2013-05-03 16:49:00,44.5,39.4,30.02,ESE,106,8.0,13.0,82,0.00,,---,0.00,VWS V14.01,2013-05-03 20:49:00,
2013-05-03 16:50:00,44.5,39.4,30.02,ENE,67,3.0,13.0,82,0.00,,---,0.00,VWS V14.01,2013-05-03 20:50:00,
2013-05-03 16:51:00,44.5,39.4,30.02,ESE,111,6.0,7.0,82,0.00,,---,0.00,VWS V14.01,2013-05-03 20:51:00,
2013-05-03 16:52:00,44.5,39.4,30.02,ESE,107,2.0,7.0,82,0.00,,---,0.00,VWS V14.01,2013-05-03 20:52:00,
2013-05-03 16:53:00,44.5,39.4,30.02,East,83,7.0,10.0,82,0.00,,---,0.00,VWS V14.01,2013-05-03 20:53:00,
2013-05-03 16:54:00,44.5,39.4,30.02,ESE,110,6.0,10.0,82,0.00,,---,0.00,VWS V14.01,2013-05-03 20:54:00,
2013-05-03 16:55:00,44.5,39.4,30.02,ESE,104,5.0,10.0,82,0.00,,---,0.00,VWS V14.01,2013-05-03 20:55:00,
2013-05-03 16:56:00,44.3,39.2,30.02,East,101,8.0,10.0,82,0.00,,---,0.00,VWS V14.01,2013-05-03 20:56:00,
2013-05-03 16:57:00,44.3,39.2,30.02,East,87,3.0,10.0,82,0.00,,---,0.00,VWS V14.01,2013-05-03 20:57:00,
2013-05-03 16:58:00,44.3,39.2,30.02,ESE,104,1.0,10.0,82,0.00,,---,0.00,VWS V14.01,2013-05-03 20:58:00,
2013-05-03 16:59:00,44.3,39.2,30.02,ESE,113,0.0,10.0,82,0.00,,---,0.00,VWS V14.01,2013-05-03 20:59:00,
2013-05-03 17:00:00,44.3,39.2,30.03,ENE,73,6.0,10.0,82,0.00,,---,0.00,VWS V14.01,2013-05-03 21:00:00,
2013-05-03 17:01:00,44.3,39.2,30.03,ENE,76,6.0,10.0,82,0.00,,---,0.00,VWS V14.01,2013-05-03 21:01:00,
2013-05-03 17:02:00,44.2,39.1,30.03,East,83,6.0,10.0,82,0.00,,---,0.00,VWS V14.01,2013-05-03 21:02:00,
2013-05-03 17:03:00,44.2,39.1,30.03,East,96,4.0,10.0,82,0.00,,---,0.00,VWS V14.01,2013-05-03 21:03:00,
2013-05-03 17:04:00,44.2,39.1,30.03,East,86,13.0,13.0,82,0.00,,---,0.00,VWS V14.01,2013-05-03 21:04:00,
2013-05-03 17:05:00,44.2,39.1,30.03,East,100,10.0,13.0,82,0.00,,---,0.00,VWS V14.01,2013-05-03 21:05:00,
2013-05-03 17:06:00,44.2,39.1,30.03,East,100,7.0,13.0,82,0.00,,---,0.00,VWS V14.01,2013-05-03 21:06:00,
2013-05-03 17:07:00,44.2,39.1,30.03,East,98,6.0,13.0,82,0.00,,---,0.00,VWS V14.01,2013-05-03 21:07:00,
2013-05-03 17:08:00,44.1,39.0,30.03,East,96,3.0,13.0,82,0.00,,---,0.00,VWS V14.01,2013-05-03 21:08:00,
2013-05-03 17:09:00,44.1,39.0,30.03,East,98,4.0,13.0,82,0.00,,---,0.00,VWS V14.01,2013-05-03 21:09:00,
2013-05-03 17:10:00,44.1,39.0,30.03,East,83,5.0,13.0,82,0.00,,---,0.00,VWS V14.01,2013-05-03 21:10:00,
2013-05-03 17:11:00,44.1,39.0,30.03,ESE,114,7.0,7.0,82,0.00,,---,0.00,VWS V14.01,2013-05-03 21:11:00,
2013-05-03 17:12:00,44.1,39.3,30.03,ESE,110,3.0,7.0,83,0.00,,---,0.00,VWS V14.01,2013-05-03 21:12:00,
2013-05-03 17:13:00,44.1,39.3,30.03,ESE,108,8.0,8.0,83,0.00,,---,0.00,VWS V14.01,2013-05-03 21:13:00,
2013-05-03 17:14:00,44.1,39.3,30.03,East,94,2.0,8.0,83,0.00,,---,0.00,VWS V14.01,2013-05-03 21:14:00,
2013-05-03 17:15:00,43.9,39.1,30.02,East,87,5.0,8.0,83,0.00,,---,0.00,VWS V14.01,2013-05-03 21:15:00,
2013-05-03 17:16:00,43.9,39.1,30.02,ESE,104,7.0,8.0,83,0.00,,---,0.00,VWS V14.01,2013-05-03 21:16:00,
2013-05-03 17:17:00,43.9,39.1,30.02,ESE,110,0.0,8.0,83,0.00,,---,0.00,VWS V14.01,2013-05-03 21:17:00,
2013-05-03 17:18:00,43.9,39.1,30.02,East,86,2.0,8.0,83,0.00,,---,0.00,VWS V14.01,2013-05-03 21:18:00,
2013-05-03 17:19:00,43.9,39.4,30.02,East,87,9.0,14.0,84,0.00,,---,0.00,VWS V14.01,2013-05-03 21:19:00,
2013-05-03 17:20:00,43.8,39.3,30.02,ESE,110,5.0,14.0,84,0.00,,---,0.00,VWS V14.01,2013-05-03 21:20:00,
2013-05-03 17:21:00,43.8,39.0,30.02,ESE,118,5.0,11.0,83,0.00,,---,0.00,VWS V14.01,2013-05-03 21:21:00,
2013-05-03 17:22:00,43.8,39.0,30.02,East,79,3.0,11.0,83,0.00,,---,0.00,VWS V14.01,2013-05-03 21:22:00,
2013-05-03 17:23:00,43.8,39.0,30.02,SE,127,11.0,11.0,83,0.00,,---,0.00,VWS V14.01,2013-05-03 21:23:00,
2013-05-03 17:24:00,43.6,39.1,30.02,ENE,66,0.0,11.0,84,0.00,,---,0.00,VWS V14.01,2013-05-03 21:24:00,
2013-05-03 17:25:00,43.6,39.1,30.02,East,98,5.0,11.0,84,0.00,,---,0.00,VWS V14.01,2013-05-03 21:25:00,
2013-05-03 17:26:00,43.6,39.1,30.02,East,91,6.0,11.0,84,0.00,,---,0.00,VWS V14.01,2013-05-03 21:26:00,
2013-05-03 17:27:00,43.6,39.1,30.02,SE,144,9.0,11.0,84,0.00,,---,0.00,VWS V14.01,2013-05-03 21:27:00,
2013-05-03 17:28:00,43.6,39.1,30.02,SSE,155,7.0,11.0,84,0.00,,---,0.00,VWS V14.01,2013-05-03 21:28:00,
2013-05-03 17:29:00,43.6,39.1,30.02,East,84,6.0,11.0,84,0.00,,---,0.00,VWS V14.01,2013-05-03 21:29:00,
2013-05-03 17:30:00,43.6,39.1,30.02,NE,43,7.0,11.0,84,0.00,,---,0.00,VWS V14.01,2013-05-03 21:30:00,
2013-05-03 17:31:00,43.6,39.1,30.02,East,80,4.0,7.0,84,0.00,,---,0.00,VWS V14.01,2013-05-03 21:31:00,
2013-05-03 17:32:00,43.6,39.1,30.02,East,87,10.0,11.0,84,0.00,,---,0.00,VWS V14.01,2013-05-03 21:32:00,
2013-05-03 17:33:00,43.5,39.0,30.02,East,89,0.0,11.0,84,0.00,,---,0.00,VWS V14.01,2013-05-03 21:33:00,
2013-05-03 17:34:00,43.5,39.3,30.02,ESE,120,3.0,11.0,85,0.00,,---,0.00,VWS V14.01,2013-05-03 21:34:00,
2013-05-03 17:35:00,43.5,39.3,30.02,ESE,118,3.0,11.0,85,0.00,,---,0.00,VWS V14.01,2013-05-03 21:35:00,
2013-05-03 17:36:00,43.5,39.3,30.02,East,93,4.0,11.0,85,0.00,,---,0.00,VWS V14.01,2013-05-03 21:36:00,
2013-05-03 17:37:00,43.5,39.3,30.02,ESE,122,7.0,11.0,85,0.00,,---,0.00,VWS V14.01,2013-05-03 21:37:00,
2013-05-03 17:38:00,43.5,39.3,30.02,ESE,115,6.0,11.0,85,0.00,,---,0.00,VWS V14.01,2013-05-03 21:38:00,
2013-05-03 17:39:00,43.5,39.3,30.02,ESE,115,6.0,11.0,85,0.00,,---,0.00,VWS V14.01,2013-05-03 21:39:00,
2013-05-03 17:40:00,43.5,39.3,30.02,ESE,103,7.0,11.0,85,0.00,,---,0.00,VWS V14.01,2013-05-03 21:40:00,
2013-05-03 17:41:00,43.3,39.1,30.02,East,79,0.0,7.0,85,0.00,,---,0.00,VWS V14.01,2013-05-03 21:41:00,
2013-05-03 17:42:00,43.3,39.1,30.02,East,79,0.0,7.0,85,0.00,,---,0.00,VWS V14.01,2013-05-03 21:42:00,
2013-05-03 17:43:00,43.3,39.1,30.02,East,79,0.0,7.0,85,0.00,,---,0.00,VWS V14.01,2013-05-03 21:43:00,
2013-05-03 17:44:00,43.2,39.0,30.02,ENE,70,8.0,11.0,85,0.00,,---,0.00,VWS V14.01,2013-05-03 21:44:00,
2013-05-03 17:45:00,43.2,39.0,30.02,ESE,103,5.0,11.0,85,0.00,,---,0.00,VWS V14.01,2013-05-03 21:45:00,
2013-05-03 17:46:00,43.2,39.0,30.02,ENE,73,5.0,11.0,85,0.00,,---,0.00,VWS V14.01,2013-05-03 21:46:00,
2013-05-03 17:47:00,43.2,39.0,30.02,ESE,114,6.0,11.0,85,0.00,,---,0.00,VWS V14.01,2013-05-03 21:47:00,
2013-05-03 17:48:00,43.2,39.0,30.02,ESE,107,2.0,11.0,85,0.00,,---,0.00,VWS V14.01,2013-05-03 21:48:00,
2013-05-03 17:49:00,43.1,38.9,30.02,ENE,76,0.0,11.0,85,0.00,,---,0.00,VWS V14.01,2013-05-03 21:49:00,
2013-05-03 17:50:00,43.1,38.9,30.02,East,90,6.0,11.0,85,0.00,,---,0.00,VWS V14.01,2013-05-03 21:50:00,
2013-05-03 17:51:00,43.1,38.9,30.02,East,96,6.0,6.0,85,0.00,,---,0.00,VWS V14.01,2013-05-03 21:51:00,
2013-05-03 17:52:00,43.1,38.9,30.02,East,96,6.0,6.0,85,0.00,,---,0.00,VWS V14.01,2013-05-03 21:52:00,
2013-05-03 17:53:00,43.1,38.9,30.02,ESE,113,3.0,6.0,85,0.00,,---,0.00,VWS V14.01,2013-05-03 21:53:00,
2013-05-03 17:54:00,43.1,38.9,30.02,East,91,5.0,6.0,85,0.00,,---,0.00,VWS V14.01,2013-05-03 21:54:00,
2013-05-03 17:55:00,43.1,38.9,30.02,East,94,2.0,6.0,85,0.00,,---,0.00,VWS V14.01,2013-05-03 21:55:00,
2013-05-03 17:56:00,43.1,38.9,30.02,ESE,107,2.0,10.0,85,0.00,,---,0.00,VWS V14.01,2013-05-03 21:56:00,
2013-05-03 17:57:00,43.1,38.9,30.02,ENE,69,8.0,10.0,85,0.00,,---,0.00,VWS V14.01,2013-05-03 21:57:00,
2013-05-03 17:58:00,43.1,38.9,30.02,East,94,10.0,10.0,85,0.00,,---,0.00,VWS V14.01,2013-05-03 21:58:00,
2013-05-03 17:59:00,43.1,38.9,30.02,ESE,113,6.0,10.0,85,0.00,,---,0.00,VWS V14.01,2013-05-03 21:59:00,
2013-05-03 18:00:00,42.9,38.7,30.03,SE,134,5.0,10.0,85,0.00,,---,0.00,VWS V14.01,2013-05-03 22:00:00,
2013-05-03 18:01:00,42.9,38.7,30.03,East,98,3.0,7.0,85,0.00,,---,0.00,VWS V14.01,2013-05-03 22:01:00,
2013-05-03 18:02:00,42.9,38.7,30.03,East,91,4.0,10.0,85,0.00,,---,0.00,VWS V14.01,2013-05-03 22:02:00,
2013-05-03 18:03:00,42.9,38.7,30.03,East,97,4.0,10.0,85,0.00,,---,0.00,VWS V14.01,2013-05-03 22:03:00,
2013-05-03 18:04:00,42.9,38.7,30.03,East,83,6.0,10.0,85,0.00,,---,0.00,VWS V14.01,2013-05-03 22:04:00,
2013-05-03 18:05:00,42.9,38.7,30.03,East,83,6.0,10.0,85,0.00,,---,0.00,VWS V14.01,2013-05-03 22:05:00,
2013-05-03 18:06:00,42.9,38.7,30.03,ESE,120,2.0,10.0,85,0.00,,---,0.00,VWS V14.01,2013-05-03 22:06:00,
2013-05-03 18:07:00,42.9,38.7,30.03,East,93,5.0,10.0,85,0.00,,---,0.00,VWS V14.01,2013-05-03 22:07:00,
2013-05-03 18:08:00,42.9,38.7,30.03,East,91,5.0,10.0,85,0.00,,---,0.00,VWS V14.01,2013-05-03 22:08:00,
2013-05-03 18:09:00,42.9,38.7,30.03,ESE,104,5.0,10.0,85,0.00,,---,0.00,VWS V14.01,2013-05-03 22:09:00,
2013-05-03 18:10:00,42.9,38.7,30.03,ESE,107,10.0,10.0,85,0.00,,---,0.00,VWS V14.01,2013-05-03 22:10:00,
2013-05-03 18:11:00,42.9,38.7,30.03,East,90,6.0,10.0,85,0.00,,---,0.00,VWS V14.01,2013-05-03 22:11:00,
2013-05-03 18:12:00,42.9,39.0,30.03,ESE,104,3.0,10.0,86,0.00,,---,0.00,VWS V14.01,2013-05-03 22:12:00,
2013-05-03 18:13:00,42.9,39.0,30.03,East,100,0.0,10.0,86,0.00,,---,0.00,VWS V14.01,2013-05-03 22:13:00,
2013-05-03 18:14:00,42.9,39.0,30.03,East,98,2.0,10.0,86,0.00,,---,0.00,VWS V14.01,2013-05-03 22:14:00,
2013-05-03 18:15:00,42.9,39.0,30.03,ESE,121,7.0,10.0,86,0.00,,---,0.00,VWS V14.01,2013-05-03 22:15:00,
2013-05-03 18:16:00,42.9,39.0,30.03,East,90,7.0,10.0,86,0.00,,---,0.00,VWS V14.01,2013-05-03 22:16:00,
2013-05-03 18:17:00,42.9,39.0,30.03,ESE,107,3.0,10.0,86,0.00,,---,0.00,VWS V14.01,2013-05-03 22:17:00,
2013-05-03 18:18:00,42.9,39.0,30.03,East,101,2.0,10.0,86,0.00,,---,0.00,VWS V14.01,2013-05-03 22:18:00,
2013-05-03 18:19:00,42.9,39.0,30.03,ESE,104,2.0,10.0,86,0.00,,---,0.00,VWS V14.01,2013-05-03 22:19:00,
2013-05-03 18:20:00,42.9,39.0,30.03,East,84,5.0,10.0,86,0.00,,---,0.00,VWS V14.01,2013-05-03 22:20:00,
2013-05-03 18:21:00,42.9,39.0,30.03,SE,125,2.0,5.0,86,0.00,,---,0.00,VWS V14.01,2013-05-03 22:21:00,
2013-05-03 18:22:00,42.9,39.0,30.03,SE,125,2.0,5.0,86,0.00,,---,0.00,VWS V14.01,2013-05-03 22:22:00,
2013-05-03 18:23:00,42.9,39.0,30.03,East,100,2.0,5.0,86,0.00,,---,0.00,VWS V14.01,2013-05-03 22:23:00,
2013-05-03 18:24:00,42.8,38.9,30.03,SE,135,1.0,8.0,86,0.00,,---,0.00,VWS V14.01,2013-05-03 22:24:00,
2013-05-03 18:25:00,42.8,38.9,30.03,East,93,7.0,8.0,86,0.00,,---,0.00,VWS V14.01,2013-05-03 22:25:00,
2013-05-03 18:26:00,42.8,38.9,30.03,East,91,2.0,8.0,86,0.00,,---,0.00,VWS V14.01,2013-05-03 22:26:00,
2013-05-03 18:27:00,42.8,38.9,30.03,East,91,5.0,8.0,86,0.00,,---,0.00,VWS V14.01,2013-05-03 22:27:00,
2013-05-03 18:28:00,42.6,38.7,30.03,ENE,63,12.0,12.0,86,0.00,,---,0.00,VWS V14.01,2013-05-03 22:28:00,
2013-05-03 18:29:00,42.6,38.7,30.03,ENE,66,5.0,12.0,86,0.00,,---,0.00,VWS V14.01,2013-05-03 22:29:00,
2013-05-03 18:30:00,42.6,38.7,30.04,ESE,103,6.0,12.0,86,0.00,,---,0.00,VWS V14.01,2013-05-03 22:30:00,
2013-05-03 18:31:00,42.5,38.6,30.04,ESE,115,0.0,6.0,86,0.00,,---,0.00,VWS V14.01,2013-05-03 22:31:00,
2013-05-03 18:32:00,42.5,38.6,30.04,East,93,6.0,7.0,86,0.00,,---,0.00,VWS V14.01,2013-05-03 22:32:00,
2013-05-03 18:33:00,42.5,38.6,30.04,SE,131,3.0,7.0,86,0.00,,---,0.00,VWS V14.01,2013-05-03 22:33:00,
2013-05-03 18:34:00,42.5,38.6,30.04,SE,127,2.0,7.0,86,0.00,,---,0.00,VWS V14.01,2013-05-03 22:34:00,
2013-05-03 18:35:00,42.5,38.6,30.04,ESE,108,3.0,7.0,86,0.00,,---,0.00,VWS V14.01,2013-05-03 22:35:00,
2013-05-03 18:36:00,42.5,38.6,30.04,ESE,122,8.0,8.0,86,0.00,,---,0.00,VWS V14.01,2013-05-03 22:36:00,
2013-05-03 18:37:00,42.3,38.4,30.04,East,87,5.0,8.0,86,0.00,,---,0.00,VWS V14.01,2013-05-03 22:37:00,
2013-05-03 18:38:00,42.3,38.4,30.04,ESE,114,4.0,8.0,86,0.00,,---,0.00,VWS V14.01,2013-05-03 22:38:00,
2013-05-03 18:39:00,42.3,38.4,30.04,East,83,2.0,8.0,86,0.00,,---,0.00,VWS V14.01,2013-05-03 22:39:00,
2013-05-03 18:40:00,42.3,38.4,30.04,East,101,2.0,8.0,86,0.00,,---,0.00,VWS V14.01,2013-05-03 22:40:00,
2013-05-03 18:41:00,42.3,38.4,30.04,ESE,120,5.0,8.0,86,0.00,,---,0.00,VWS V14.01,2013-05-03 22:41:00,
2013-05-03 18:42:00,42.2,38.3,30.04,ESE,113,5.0,10.0,86,0.00,,---,0.00,VWS V14.01,2013-05-03 22:42:00,
2013-05-03 18:43:00,42.2,38.3,30.04,ESE,110,2.0,10.0,86,0.00,,---,0.00,VWS V14.01,2013-05-03 22:43:00,
2013-05-03 18:44:00,42.2,38.3,30.04,East,93,8.0,10.0,86,0.00,,---,0.00,VWS V14.01,2013-05-03 22:44:00,
2013-05-03 18:45:00,42.2,38.3,30.05,ESE,110,2.0,10.0,86,0.00,,---,0.00,VWS V14.01,2013-05-03 22:45:00,
2013-05-03 18:46:00,42.2,38.3,30.05,ESE,110,2.0,10.0,86,0.00,,---,0.00,VWS V14.01,2013-05-03 22:46:00,
2013-05-03 18:47:00,42.2,38.3,30.05,ESE,110,2.0,10.0,86,0.00,,---,0.00,VWS V14.01,2013-05-03 22:47:00,
2013-05-03 18:48:00,42.2,38.3,30.05,ESE,115,2.0,10.0,86,0.00,,---,0.00,VWS V14.01,2013-05-03 22:48:00,
2013-05-03 18:49:00,42.2,38.3,30.05,ESE,115,3.0,10.0,86,0.00,,---,0.00,VWS V14.01,2013-05-03 22:49:00,
2013-05-03 18:50:00,42.2,38.3,30.05,East,83,0.0,10.0,86,0.00,,---,0.00,VWS V14.01,2013-05-03 22:50:00,
2013-05-03 18:51:00,42.2,38.3,30.05,East,86,0.0,2.0,86,0.00,,---,0.00,VWS V14.01,2013-05-03 22:51:00,
2013-05-03 18:52:00,42.2,38.3,30.05,East,87,6.0,6.0,86,0.00,,---,0.00,VWS V14.01,2013-05-03 22:52:00,
2013-05-03 18:53:00,42.1,38.2,30.05,ESE,106,1.0,7.0,86,0.00,,---,0.00,VWS V14.01,2013-05-03 22:53:00,
2013-05-03 18:54:00,42.1,38.2,30.05,SE,130,3.0,7.0,86,0.00,,---,0.00,VWS V14.01,2013-05-03 22:54:00,
2013-05-03 18:55:00,42.1,38.2,30.05,East,84,4.0,7.0,86,0.00,,---,0.00,VWS V14.01,2013-05-03 22:55:00,
2013-05-03 18:56:00,42.1,38.2,30.05,East,84,4.0,7.0,86,0.00,,---,0.00,VWS V14.01,2013-05-03 22:56:00,
2013-05-03 18:57:00,42.1,38.2,30.05,SE,128,6.0,7.0,86,0.00,,---,0.00,VWS V14.01,2013-05-03 22:57:00,
2013-05-03 18:58:00,42.1,38.2,30.05,ESE,104,3.0,7.0,86,0.00,,---,0.00,VWS V14.01,2013-05-03 22:58:00,
2013-05-03 18:59:00,42.1,38.2,30.05,ESE,104,3.0,7.0,86,0.00,,---,0.00,VWS V14.01,2013-05-03 22:59:00,
2013-05-03 19:00:00,42.1,38.2,30.05,East,97,6.0,7.0,86,0.00,,---,0.00,VWS V14.01,2013-05-03 23:00:00,
2013-05-03 19:01:00,42.1,38.2,30.05,East,101,3.0,6.0,86,0.00,,---,0.00,VWS V14.01,2013-05-03 23:01:00,
2013-05-03 19:02:00,42.1,38.2,30.05,East,84,3.0,6.0,86,0.00,,---,0.00,VWS V14.01,2013-05-03 23:02:00,
2013-05-03 19:03:00,42.1,38.2,30.05,ESE,107,4.0,6.0,86,0.00,,---,0.00,VWS V14.01,2013-05-03 23:03:00,
2013-05-03 19:04:00,42.1,38.2,30.05,East,97,3.0,6.0,86,0.00,,---,0.00,VWS V14.01,2013-05-03 23:04:00,
2013-05-03 19:05:00,42.1,38.2,30.05,East,100,6.0,7.0,86,0.00,,---,0.00,VWS V14.01,2013-05-03 23:05:00,
2013-05-03 19:06:00,41.9,38.0,30.05,East,97,6.0,10.0,86,0.00,,---,0.00,VWS V14.01,2013-05-03 23:06:00,
2013-05-03 19:07:00,41.9,38.0,30.05,East,96,2.0,10.0,86,0.00,,---,0.00,VWS V14.01,2013-05-03 23:07:00,
2013-05-03 19:08:00,41.9,38.0,30.05,East,97,3.0,10.0,86,0.00,,---,0.00,VWS V14.01,2013-05-03 23:08:00,
2013-05-03 19:09:00,41.9,38.0,30.05,East,97,3.0,10.0,86,0.00,,---,0.00,VWS V14.01,2013-05-03 23:09:00,
2013-05-03 19:10:00,41.9,38.0,30.05,ESE,111,2.0,10.0,86,0.00,,---,0.00,VWS V14.01,2013-05-03 23:10:00,
2013-05-03 19:11:00,41.9,38.0,30.05,ESE,107,4.0,7.0,86,0.00,,---,0.00,VWS V14.01,2013-05-03 23:11:00,
2013-05-03 19:12:00,41.9,38.3,30.05,East,87,3.0,13.0,87,0.00,,---,0.00,VWS V14.01,2013-05-03 23:12:00,
2013-05-03 19:13:00,41.9,38.3,30.05,East,96,4.0,13.0,87,0.00,,---,0.00,VWS V14.01,2013-05-03 23:13:00,
2013-05-03 19:14:00,41.9,38.3,30.05,East,96,4.0,13.0,87,0.00,,---,0.00,VWS V14.01,2013-05-03 23:14:00,
2013-05-03 19:15:00,41.9,38.3,30.05,ESE,111,3.0,13.0,87,0.00,,---,0.00,VWS V14.01,2013-05-03 23:15:00,
2013-05-03 19:16:00,41.9,38.3,30.05,ESE,111,3.0,13.0,87,0.00,,---,0.00,VWS V14.01,2013-05-03 23:16:00,
2013-05-03 19:17:00,41.9,38.3,30.05,ESE,111,3.0,13.0,87,0.00,,---,0.00,VWS V14.01,2013-05-03 23:17:00,
2013-05-03 19:18:00,41.9,38.3,30.05,East,90,4.0,13.0,87,0.00,,---,0.00,VWS V14.01,2013-05-03 23:18:00,
2013-05-03 19:19:00,41.9,38.3,30.05,East,89,2.0,13.0,87,0.00,,---,0.00,VWS V14.01,2013-05-03 23:19:00,
2013-05-03 19:20:00,41.9,38.3,30.05,ESE,117,4.0,13.0,87,0.00,,---,0.00,VWS V14.01,2013-05-03 23:20:00,
2013-05-03 19:21:00,41.9,38.3,30.05,ENE,69,6.0,6.0,87,0.00,,---,0.00,VWS V14.01,2013-05-03 23:21:00,
2013-05-03 19:22:00,41.9,38.3,30.05,SE,130,7.0,7.0,87,0.00,,---,0.00,VWS V14.01,2013-05-03 23:22:00,
2013-05-03 19:23:00,41.9,38.3,30.05,ESE,107,2.0,7.0,87,0.00,,---,0.00,VWS V14.01,2013-05-03 23:23:00,
2013-05-03 19:24:00,41.9,38.6,30.05,ESE,111,2.0,7.0,88,0.00,,---,0.00,VWS V14.01,2013-05-03 23:24:00,
2013-05-03 19:25:00,41.9,38.6,30.05,ESE,113,1.0,7.0,88,0.00,,---,0.00,VWS V14.01,2013-05-03 23:25:00,
2013-05-03 19:26:00,41.9,38.6,30.05,East,91,0.0,7.0,88,0.00,,---,0.00,VWS V14.01,2013-05-03 23:26:00,
2013-05-03 19:27:00,41.9,38.6,30.05,NE,45,2.0,7.0,88,0.00,,---,0.00,VWS V14.01,2013-05-03 23:27:00,
2013-05-03 19:28:00,41.9,38.6,30.05,ESE,107,11.0,11.0,88,0.00,,---,0.00,VWS V14.01,2013-05-03 23:28:00,
2013-05-03 19:29:00,41.9,38.6,30.05,East,100,4.0,11.0,88,0.00,,---,0.00,VWS V14.01,2013-05-03 23:29:00,
2013-05-03 19:30:00,41.9,38.6,30.06,East,90,6.0,11.0,88,0.00,,---,0.00,VWS V14.01,2013-05-03 23:30:00,
2013-05-03 19:31:00,41.9,38.6,30.06,East,91,5.0,6.0,88,0.00,,---,0.00,VWS V14.01,2013-05-03 23:31:00,
2013-05-03 19:32:00,41.9,38.6,30.06,East,90,2.0,6.0,88,0.00,,---,0.00,VWS V14.01,2013-05-03 23:32:00,
2013-05-03 19:33:00,41.9,38.6,30.06,East,86,0.0,6.0,88,0.00,,---,0.00,VWS V14.01,2013-05-03 23:33:00,
2013-05-03 19:34:00,41.9,38.6,30.06,ESE,115,6.0,6.0,88,0.00,,---,0.00,VWS V14.01,2013-05-03 23:34:00,
2013-05-03 19:35:00,41.9,38.6,30.06,East,93,0.0,7.0,88,0.00,,---,0.00,VWS V14.01,2013-05-03 23:35:00,
2013-05-03 19:36:00,41.9,38.6,30.06,ESE,108,6.0,7.0,88,0.00,,---,0.00,VWS V14.01,2013-05-03 23:36:00,
2013-05-03 19:37:00,41.9,38.6,30.06,East,96,4.0,7.0,88,0.00,,---,0.00,VWS V14.01,2013-05-03 23:37:00,
2013-05-03 19:38:00,41.9,38.6,30.06,East,96,4.0,7.0,88,0.00,,---,0.00,VWS V14.01,2013-05-03 23:38:00,
2013-05-03 19:39:00,41.9,38.6,30.06,ESE,110,0.0,7.0,88,0.00,,---,0.00,VWS V14.01,2013-05-03 23:39:00,
2013-05-03 19:40:00,41.9,38.6,30.06,SE,131,10.0,10.0,88,0.00,,---,0.00,VWS V14.01,2013-05-03 23:40:00,
2013-05-03 19:41:00,41.9,38.6,30.06,ESE,110,5.0,10.0,88,0.00,,---,0.00,VWS V14.01,2013-05-03 23:41:00,
2013-05-03 19:42:00,42.1,38.8,30.06,ESE,115,2.0,10.0,88,0.00,,---,0.00,VWS V14.01,2013-05-03 23:42:00,
2013-05-03 19:43:00,42.1,38.8,30.06,ENE,77,3.0,10.0,88,0.00,,---,0.00,VWS V14.01,2013-05-03 23:43:00,
2013-05-03 19:44:00,41.9,38.6,30.06,East,89,2.0,10.0,88,0.00,,---,0.00,VWS V14.01,2013-05-03 23:44:00,
2013-05-03 19:45:00,41.9,38.6,30.06,East,86,2.0,10.0,88,0.00,,---,0.00,VWS V14.01,2013-05-03 23:45:00,
2013-05-03 19:46:00,41.9,38.6,30.06,East,89,0.0,10.0,88,0.00,,---,0.00,VWS V14.01,2013-05-03 23:46:00,
2013-05-03 19:47:00,41.9,38.6,30.06,ESE,111,0.0,10.0,88,0.00,,---,0.00,VWS V14.01,2013-05-03 23:47:00,
2013-05-03 19:48:00,41.9,38.6,30.06,East,94,0.0,10.0,88,0.00,,---,0.00,VWS V14.01,2013-05-03 23:48:00,
2013-05-03 19:49:00,41.9,38.6,30.06,East,94,0.0,10.0,88,0.00,,---,0.00,VWS V14.01,2013-05-03 23:49:00,
2013-05-03 19:50:00,42.1,39.1,30.06,East,90,2.0,10.0,89,0.00,,---,0.00,VWS V14.01,2013-05-03 23:50:00,
2013-05-03 19:51:00,42.1,39.1,30.06,ESE,106,3.0,3.0,89,0.00,,---,0.00,VWS V14.01,2013-05-03 23:51:00,
2013-05-03 19:52:00,42.1,39.1,30.06,ESE,107,0.0,3.0,89,0.00,,---,0.00,VWS V14.01,2013-05-03 23:52:00,
2013-05-03 19:53:00,42.1,39.1,30.06,ESE,104,0.0,3.0,89,0.00,,---,0.00,VWS V14.01,2013-05-03 23:53:00,
2013-05-03 19:54:00,42.1,39.1,30.06,ESE,104,0.0,3.0,89,0.00,,---,0.00,VWS V14.01,2013-05-03 23:54:00,
2013-05-03 19:55:00,42.1,39.1,30.06,ESE,103,0.0,3.0,89,0.00,,---,0.00,VWS V14.01,2013-05-03 23:55:00,
2013-05-03 19:56:00,42.1,39.1,30.06,East,80,2.0,3.0,89,0.00,,---,0.00,VWS V14.01,2013-05-03 23:56:00,
2013-05-03 19:57:00,42.1,39.1,30.06,East,80,2.0,3.0,89,0.00,,---,0.00,VWS V14.01,2013-05-03 23:57:00,
2013-05-03 19:58:00,42.1,39.1,30.06,ESE,108,0.0,3.0,89,0.00,,---,0.00,VWS V14.01,2013-05-03 23:58:00,
2013-05-03 19:59:00,42.1,39.1,30.06,ESE,104,0.0,3.0,89,0.00,,---,0.00,VWS V14.01,2013-05-03 23:59:00,
2013-05-03 20:00:00,42.1,39.1,30.06,ESE,108,7.0,7.0,89,0.00,,---,0.00,VWS V14.01,2013-05-04 00:00:00,
2013-05-03 20:01:00,42.1,39.1,30.06,ESE,115,3.0,6.0,89,0.00,,---,0.00,VWS V14.01,2013-05-04 00:01:00,
2013-05-03 20:02:00,42.1,39.1,30.06,East,98,2.0,6.0,89,0.00,,---,0.00,VWS V14.01,2013-05-04 00:02:00,
2013-05-03 20:03:00,42.1,39.1,30.06,ENE,69,2.0,6.0,89,0.00,,---,0.00,VWS V14.01,2013-05-04 00:03:00,
2013-05-03 20:04:00,42.1,39.1,30.06,ESE,117,4.0,6.0,89,0.00,,---,0.00,VWS V14.01,2013-05-04 00:04:00,
2013-05-03 20:05:00,42.1,39.1,30.06,ESE,107,2.0,6.0,89,0.00,,---,0.00,VWS V14.01,2013-05-04 00:05:00,
2013-05-03 20:06:00,42.1,39.1,30.06,ESE,118,6.0,6.0,89,0.00,,---,0.00,VWS V14.01,2013-05-04 00:06:00,
2013-05-03 20:07:00,42.1,39.1,30.06,ESE,108,2.0,6.0,89,0.00,,---,0.00,VWS V14.01,2013-05-04 00:07:00,
2013-05-03 20:08:00,42.1,39.1,30.06,East,100,4.0,6.0,89,0.00,,---,0.00,VWS V14.01,2013-05-04 00:08:00,
2013-05-03 20:09:00,42.1,39.1,30.06,East,84,5.0,6.0,89,0.00,,---,0.00,VWS V14.01,2013-05-04 00:09:00,
2013-05-03 20:10:00,42.1,39.1,30.06,ESE,118,3.0,6.0,89,0.00,,---,0.00,VWS V14.01,2013-05-04 00:10:00,
2013-05-03 20:11:00,42.1,39.1,30.06,ESE,103,8.0,8.0,89,0.00,,---,0.00,VWS V14.01,2013-05-04 00:11:00,
2013-05-03 20:12:00,42.1,39.1,30.06,East,91,3.0,8.0,89,0.00,,---,0.00,VWS V14.01,2013-05-04 00:12:00,
2013-05-03 20:13:00,42.1,39.1,30.06,East,90,6.0,10.0,89,0.00,,---,0.00,VWS V14.01,2013-05-04 00:13:00,
2013-05-03 20:14:00,41.9,38.9,30.06,East,91,2.0,10.0,89,0.00,,---,0.00,VWS V14.01,2013-05-04 00:14:00,
2013-05-03 20:15:00,41.9,38.9,30.06,ESE,104,3.0,10.0,89,0.00,,---,0.00,VWS V14.01,2013-05-04 00:15:00,
2013-05-03 20:16:00,41.9,38.9,30.06,ESE,106,4.0,10.0,89,0.00,,---,0.00,VWS V14.01,2013-05-04 00:16:00,
2013-05-03 20:17:00,41.9,38.9,30.06,East,91,3.0,10.0,89,0.00,,---,0.00,VWS V14.01,2013-05-04 00:17:00,
2013-05-03 20:18:00,41.9,38.9,30.06,SE,124,4.0,10.0,89,0.00,,---,0.00,VWS V14.01,2013-05-04 00:18:00,
2013-05-03 20:19:00,41.9,38.9,30.06,ESE,106,5.0,10.0,89,0.00,,---,0.00,VWS V14.01,2013-05-04 00:19:00,
2013-05-03 20:20:00,41.9,38.9,30.06,ESE,110,0.0,10.0,89,0.00,,---,0.00,VWS V14.01,2013-05-04 00:20:00,
2013-05-03 20:21:00,41.9,38.9,30.06,East,82,2.0,2.0,89,0.00,,---,0.00,VWS V14.01,2013-05-04 00:21:00,
2013-05-03 20:22:00,41.9,38.9,30.06,East,97,4.0,5.0,89,0.00,,---,0.00,VWS V14.01,2013-05-04 00:22:00,
2013-05-03 20:23:00,41.9,38.9,30.06,East,97,5.0,5.0,89,0.00,,---,0.00,VWS V14.01,2013-05-04 00:23:00,
2013-05-03 20:24:00,41.9,38.9,30.06,SE,144,7.0,7.0,89,0.00,,---,0.00,VWS V14.01,2013-05-04 00:24:00,
2013-05-03 20:25:00,41.9,38.9,30.06,SE,144,7.0,7.0,89,0.00,,---,0.00,VWS V14.01,2013-05-04 00:25:00,
2013-05-03 20:26:00,41.9,38.9,30.06,East,97,6.0,7.0,89,0.00,,---,0.00,VWS V14.01,2013-05-04 00:26:00,
2013-05-03 20:27:00,41.9,38.9,30.06,ESE,113,1.0,7.0,89,0.00,,---,0.00,VWS V14.01,2013-05-04 00:27:00,
2013-05-03 20:28:00,41.9,38.9,30.06,ESE,113,1.0,7.0,89,0.00,,---,0.00,VWS V14.01,2013-05-04 00:28:00,
2013-05-03 20:29:00,41.9,38.9,30.06,East,101,2.0,7.0,89,0.00,,---,0.00,VWS V14.01,2013-05-04 00:29:00,
2013-05-03 20:30:00,41.9,38.9,30.05,ESE,104,0.0,7.0,89,0.00,,---,0.00,VWS V14.01,2013-05-04 00:30:00,
2013-05-03 20:31:00,41.9,38.9,30.05,East,100,5.0,5.0,89,0.00,,---,0.00,VWS V14.01,2013-05-04 00:31:00,
2013-05-03 20:32:00,41.9,39.2,30.05,SE,127,5.0,5.0,90,0.00,,---,0.00,VWS V14.01,2013-05-04 00:32:00,
2013-05-03 20:33:00,41.9,39.2,30.05,ESE,122,6.0,6.0,90,0.00,,---,0.00,VWS V14.01,2013-05-04 00:33:00,
2013-05-03 20:34:00,41.9,39.2,30.05,SE,124,4.0,6.0,90,0.00,,---,0.00,VWS V14.01,2013-05-04 00:34:00,
2013-05-03 20:35:00,41.9,39.2,30.05,ESE,122,0.0,6.0,90,0.00,,---,0.00,VWS V14.01,2013-05-04 00:35:00,
2013-05-03 20:36:00,41.9,39.2,30.05,East,101,2.0,6.0,90,0.00,,---,0.00,VWS V14.01,2013-05-04 00:36:00,
2013-05-03 20:37:00,41.9,39.2,30.05,ESE,107,0.0,6.0,90,0.00,,---,0.00,VWS V14.01,2013-05-04 00:37:00,
2013-05-03 20:38:00,41.9,39.2,30.05,East,90,5.0,6.0,90,0.00,,---,0.00,VWS V14.01,2013-05-04 00:38:00,
2013-05-03 20:39:00,42.1,39.4,30.05,East,97,2.0,6.0,90,0.00,,---,0.00,VWS V14.01,2013-05-04 00:39:00,
2013-05-03 20:40:00,42.1,39.4,30.05,SE,124,2.0,6.0,90,0.00,,---,0.00,VWS V14.01,2013-05-04 00:40:00,
2013-05-03 20:41:00,42.1,39.4,30.05,SE,124,2.0,2.0,90,0.00,,---,0.00,VWS V14.01,2013-05-04 00:41:00,
2013-05-03 20:42:00,42.1,39.4,30.05,ESE,103,3.0,6.0,90,0.00,,---,0.00,VWS V14.01,2013-05-04 00:42:00,
2013-05-03 20:43:00,42.1,39.4,30.05,ESE,107,2.0,6.0,90,0.00,,---,0.00,VWS V14.01,2013-05-04 00:43:00,
2013-05-03 20:44:00,42.1,39.4,30.05,ESE,107,2.0,6.0,90,0.00,,---,0.00,VWS V14.01,2013-05-04 00:44:00,
2013-05-03 20:45:00,42.1,39.4,30.05,SE,134,6.0,6.0,90,0.00,,---,0.00,VWS V14.01,2013-05-04 00:45:00,
2013-05-03 20:46:00,42.1,39.4,30.05,SE,134,2.0,6.0,90,0.00,,---,0.00,VWS V14.01,2013-05-04 00:46:00,
2013-05-03 20:47:00,42.1,39.4,30.05,ESE,108,5.0,6.0,90,0.00,,---,0.00,VWS V14.01,2013-05-04 00:47:00,
2013-05-03 20:48:00,42.1,39.4,30.05,ESE,108,2.0,6.0,90,0.00,,---,0.00,VWS V14.01,2013-05-04 00:48:00,
2013-05-03 20:49:00,42.1,39.4,30.05,ESE,108,2.0,6.0,90,0.00,,---,0.00,VWS V14.01,2013-05-04 00:49:00,
2013-05-03 20:50:00,42.1,39.4,30.05,ESE,104,0.0,6.0,90,0.00,,---,0.00,VWS V14.01,2013-05-04 00:50:00,
2013-05-03 20:51:00,42.1,39.4,30.05,ESE,118,2.0,2.0,90,0.00,,---,0.00,VWS V14.01,2013-05-04 00:51:00,
2013-05-03 20:52:00,42.1,39.4,30.05,ESE,118,2.0,2.0,90,0.00,,---,0.00,VWS V14.01,2013-05-04 00:52:00,
2013-05-03 20:53:00,42.1,39.4,30.05,East,83,2.0,2.0,90,0.00,,---,0.00,VWS V14.01,2013-05-04 00:53:00,
2013-05-03 20:54:00,42.1,39.4,30.05,ESE,108,0.0,2.0,90,0.00,,---,0.00,VWS V14.01,2013-05-04 00:54:00,
2013-05-03 20:55:00,42.1,39.4,30.05,ESE,106,6.0,6.0,90,0.00,,---,0.00,VWS V14.01,2013-05-04 00:55:00,
2013-05-03 20:56:00,42.1,39.4,30.05,East,98,5.0,6.0,90,0.00,,---,0.00,VWS V14.01,2013-05-04 00:56:00,
2013-05-03 20:57:00,42.1,39.4,30.05,East,101,5.0,6.0,90,0.00,,---,0.00,VWS V14.01,2013-05-04 00:57:00,
2013-05-03 20:58:00,42.1,39.4,30.05,East,101,5.0,6.0,90,0.00,,---,0.00,VWS V14.01,2013-05-04 00:58:00,
2013-05-03 20:59:00,42.1,39.4,30.05,East,101,5.0,6.0,90,0.00,,---,0.00,VWS V14.01,2013-05-04 00:59:00,
2013-05-03 21:00:00,42.1,39.4,30.05,East,101,5.0,6.0,90,0.00,,---,0.00,VWS V14.01,2013-05-04 01:00:00,
2013-05-03 21:01:00,42.1,39.4,30.05,East,100,7.0,7.0,90,0.00,,---,0.00,VWS V14.01,2013-05-04 01:01:00,
2013-05-03 21:02:00,42.1,39.4,30.05,East,100,7.0,7.0,90,0.00,,---,0.00,VWS V14.01,2013-05-04 01:02:00,
2013-05-03 21:03:00,42.1,39.4,30.05,East,100,7.0,7.0,90,0.00,,---,0.00,VWS V14.01,2013-05-04 01:03:00,
2013-05-03 21:04:00,42.1,39.4,30.05,East,90,0.0,7.0,90,0.00,,---,0.00,VWS V14.01,2013-05-04 01:04:00,
2013-05-03 21:05:00,42.1,39.4,30.05,East,91,0.0,7.0,90,0.00,,---,0.00,VWS V14.01,2013-05-04 01:05:00,
2013-05-03 21:06:00,42.1,39.4,30.05,ESE,120,0.0,7.0,90,0.00,,---,0.00,VWS V14.01,2013-05-04 01:06:00,
2013-05-03 21:07:00,42.1,39.4,30.05,ESE,120,0.0,7.0,90,0.00,,---,0.00,VWS V14.01,2013-05-04 01:07:00,
2013-05-03 21:08:00,42.1,39.4,30.05,East,79,0.0,7.0,90,0.00,,---,0.00,VWS V14.01,2013-05-04 01:08:00,
2013-05-03 21:09:00,42.1,39.7,30.05,ESE,111,3.0,7.0,91,0.00,,---,0.00,VWS V14.01,2013-05-04 01:09:00,
2013-05-03 21:10:00,42.1,39.7,30.05,ESE,111,2.0,7.0,91,0.00,,---,0.00,VWS V14.01,2013-05-04 01:10:00,
2013-05-03 21:11:00,42.1,39.7,30.05,ESE,111,2.0,2.0,91,0.00,,---,0.00,VWS V14.01,2013-05-04 01:11:00,
2013-05-03 21:12:00,42.1,39.7,30.05,ESE,111,2.0,2.0,91,0.00,,---,0.00,VWS V14.01,2013-05-04 01:12:00,
2013-05-03 21:13:00,42.1,39.7,30.05,ESE,118,3.0,3.0,91,0.00,,---,0.00,VWS V14.01,2013-05-04 01:13:00,
2013-05-03 21:14:00,42.1,39.7,30.05,ESE,107,0.0,3.0,91,0.00,,---,0.00,VWS V14.01,2013-05-04 01:14:00,
2013-05-03 21:15:00,42.1,39.7,30.05,SE,125,6.0,6.0,91,0.00,,---,0.00,VWS V14.01,2013-05-04 01:15:00,
2013-05-03 21:16:00,42.1,39.7,30.05,ESE,115,0.0,6.0,91,0.00,,---,0.00,VWS V14.01,2013-05-04 01:16:00,
2013-05-03 21:17:00,42.1,39.7,30.05,East,82,3.0,6.0,91,0.00,,---,0.00,VWS V14.01,2013-05-04 01:17:00,
2013-05-03 21:18:00,42.1,39.7,30.05,ESE,121,6.0,6.0,91,0.00,,---,0.00,VWS V14.01,2013-05-04 01:18:00,
2013-05-03 21:19:00,42.1,39.7,30.05,ESE,121,5.0,6.0,91,0.00,,---,0.00,VWS V14.01,2013-05-04 01:19:00,
2013-05-03 21:20:00,42.1,39.7,30.05,ESE,115,5.0,6.0,91,0.00,,---,0.00,VWS V14.01,2013-05-04 01:20:00,
2013-05-03 21:21:00,42.1,39.7,30.05,ESE,114,2.0,10.0,91,0.00,,---,0.00,VWS V14.01,2013-05-04 01:21:00,
2013-05-03 21:22:00,42.1,39.7,30.05,East,94,5.0,10.0,91,0.00,,---,0.00,VWS V14.01,2013-05-04 01:22:00,
2013-05-03 21:23:00,42.1,39.7,30.05,ESE,114,2.0,10.0,91,0.00,,---,0.00,VWS V14.01,2013-05-04 01:23:00,
2013-05-03 21:24:00,42.1,39.7,30.05,East,96,6.0,10.0,91,0.00,,---,0.00,VWS V14.01,2013-05-04 01:24:00,
2013-05-03 21:25:00,42.1,39.7,30.05,ESE,118,3.0,10.0,91,0.00,,---,0.00,VWS V14.01,2013-05-04 01:25:00,
2013-05-03 21:26:00,42.1,40.0,30.05,ESE,115,0.0,10.0,92,0.00,,---,0.00,VWS V14.01,2013-05-04 01:26:00,
2013-05-03 21:27:00,42.1,40.0,30.05,ESE,104,5.0,10.0,92,0.00,,---,0.00,VWS V14.01,2013-05-04 01:27:00,
2013-05-03 21:28:00,42.1,40.0,30.05,East,94,0.0,10.0,92,0.00,,---,0.00,VWS V14.01,2013-05-04 01:28:00,
2013-05-03 21:29:00,42.1,40.0,30.05,ESE,107,3.0,10.0,92,0.00,,---,0.00,VWS V14.01,2013-05-04 01:29:00,
2013-05-03 21:30:00,42.1,40.0,30.05,ESE,118,0.0,10.0,92,0.00,,---,0.00,VWS V14.01,2013-05-04 01:30:00,
2013-05-03 21:31:00,42.1,40.0,30.05,ESE,118,0.0,0.0,92,0.00,,---,0.00,VWS V14.01,2013-05-04 01:31:00,
2013-05-03 21:32:00,42.1,40.0,30.05,East,98,2.0,4.0,92,0.00,,---,0.00,VWS V14.01,2013-05-04 01:32:00,
2013-05-03 21:33:00,42.1,40.0,30.05,East,98,2.0,4.0,92,0.00,,---,0.00,VWS V14.01,2013-05-04 01:33:00,
2013-05-03 21:34:00,42.1,40.0,30.05,ESE,107,0.0,4.0,92,0.00,,---,0.00,VWS V14.01,2013-05-04 01:34:00,
2013-05-03 21:35:00,42.1,40.0,30.05,ESE,104,5.0,5.0,92,0.00,,---,0.00,VWS V14.01,2013-05-04 01:35:00,
2013-05-03 21:36:00,42.1,40.0,30.05,ESE,117,2.0,5.0,92,0.00,,---,0.00,VWS V14.01,2013-05-04 01:36:00,
2013-05-03 21:37:00,42.1,40.0,30.05,East,93,0.0,5.0,92,0.00,,---,0.00,VWS V14.01,2013-05-04 01:37:00,
2013-05-03 21:38:00,42.2,40.0,30.05,ESE,118,3.0,5.0,92,0.00,,---,0.00,VWS V14.01,2013-05-04 01:38:00,
2013-05-03 21:39:00,42.2,40.0,30.05,ESE,118,0.0,5.0,92,0.00,,---,0.00,VWS V14.01,2013-05-04 01:39:00,
2013-05-03 21:40:00,42.2,40.0,30.05,ESE,114,1.0,5.0,92,0.00,,---,0.00,VWS V14.01,2013-05-04 01:40:00,
2013-05-03 21:41:00,42.2,40.0,30.05,ESE,122,3.0,6.0,92,0.00,,---,0.00,VWS V14.01,2013-05-04 01:41:00,
2013-05-03 21:42:00,42.2,40.0,30.05,SE,124,5.0,6.0,92,0.00,,---,0.00,VWS V14.01,2013-05-04 01:42:00,
2013-05-03 21:43:00,42.2,40.0,30.05,ESE,106,0.0,6.0,92,0.00,,---,0.00,VWS V14.01,2013-05-04 01:43:00,
2013-05-03 21:44:00,42.2,40.0,30.05,ESE,106,0.0,6.0,92,0.00,,---,0.00,VWS V14.01,2013-05-04 01:44:00,
2013-05-03 21:45:00,42.2,40.0,30.05,East,84,7.0,7.0,92,0.00,,---,0.00,VWS V14.01,2013-05-04 01:45:00,
2013-05-03 21:46:00,42.2,40.0,30.05,ESE,115,4.0,7.0,92,0.00,,---,0.00,VWS V14.01,2013-05-04 01:46:00,
2013-05-03 21:47:00,42.2,40.0,30.05,East,100,2.0,7.0,92,0.00,,---,0.00,VWS V14.01,2013-05-04 01:47:00,
2013-05-03 21:48:00,42.2,40.0,30.05,East,87,2.0,7.0,92,0.00,,---,0.00,VWS V14.01,2013-05-04 01:48:00,
2013-05-03 21:49:00,42.2,40.0,30.05,East,98,6.0,7.0,92,0.00,,---,0.00,VWS V14.01,2013-05-04 01:49:00,
2013-05-03 21:50:00,42.2,40.0,30.05,East,90,0.0,7.0,92,0.00,,---,0.00,VWS V14.01,2013-05-04 01:50:00,
2013-05-03 21:51:00,42.2,40.0,30.05,East,90,0.0,0.0,92,0.00,,---,0.00,VWS V14.01,2013-05-04 01:51:00,
2013-05-03 21:52:00,42.2,40.0,30.05,ESE,108,5.0,5.0,92,0.00,,---,0.00,VWS V14.01,2013-05-04 01:52:00,
2013-05-03 21:53:00,42.2,40.0,30.05,ESE,108,5.0,5.0,92,0.00,,---,0.00,VWS V14.01,2013-05-04 01:53:00,
2013-05-03 21:54:00,42.2,40.0,30.05,East,94,6.0,6.0,92,0.00,,---,0.00,VWS V14.01,2013-05-04 01:54:00,
2013-05-03 21:55:00,42.2,40.0,30.05,East,94,6.0,6.0,92,0.00,,---,0.00,VWS V14.01,2013-05-04 01:55:00,
2013-05-03 21:56:00,42.2,40.0,30.05,East,90,0.0,6.0,92,0.00,,---,0.00,VWS V14.01,2013-05-04 01:56:00,
2013-05-03 21:57:00,42.2,40.0,30.05,ESE,111,0.0,6.0,92,0.00,,---,0.00,VWS V14.01,2013-05-04 01:57:00,
2013-05-03 21:58:00,42.2,40.0,30.05,ESE,111,0.0,6.0,92,0.00,,---,0.00,VWS V14.01,2013-05-04 01:58:00,
2013-05-03 21:59:00,42.3,40.4,30.05,ENE,77,5.0,6.0,93,0.00,,---,0.00,VWS V14.01,2013-05-04 01:59:00,
2013-05-03 22:00:00,42.3,40.4,30.05,East,96,3.0,6.0,93,0.00,,---,0.00,VWS V14.01,2013-05-04 02:00:00,
2013-05-03 22:01:00,42.3,40.4,30.05,SE,142,6.0,6.0,93,0.00,,---,0.00,VWS V14.01,2013-05-04 02:01:00,
2013-05-03 22:02:00,42.3,40.4,30.05,East,91,1.0,6.0,93,0.00,,---,0.00,VWS V14.01,2013-05-04 02:02:00,
2013-05-03 22:03:00,42.3,40.4,30.05,SE,135,0.0,6.0,93,0.00,,---,0.00,VWS V14.01,2013-05-04 02:03:00,
2013-05-03 22:04:00,42.3,40.4,30.05,SE,135,0.0,6.0,93,0.00,,---,0.00,VWS V14.01,2013-05-04 02:04:00,
2013-05-03 22:05:00,42.3,40.4,30.05,East,93,2.0,6.0,93,0.00,,---,0.00,VWS V14.01,2013-05-04 02:05:00,
2013-05-03 22:06:00,42.3,40.4,30.05,East,93,0.0,6.0,93,0.00,,---,0.00,VWS V14.01,2013-05-04 02:06:00,
2013-05-03 22:07:00,42.3,40.4,30.05,ESE,103,2.0,7.0,93,0.00,,---,0.00,VWS V14.01,2013-05-04 02:07:00,
2013-05-03 22:08:00,42.3,40.4,30.05,ESE,103,0.0,7.0,93,0.00,,---,0.00,VWS V14.01,2013-05-04 02:08:00,
2013-05-03 22:09:00,42.3,40.4,30.05,East,83,0.0,7.0,93,0.00,,---,0.00,VWS V14.01,2013-05-04 02:09:00,
2013-05-03 22:10:00,42.3,40.4,30.05,ESE,111,0.0,7.0,93,0.00,,---,0.00,VWS V14.01,2013-05-04 02:10:00,
2013-05-03 22:11:00,42.3,40.4,30.05,East,97,2.0,5.0,93,0.00,,---,0.00,VWS V14.01,2013-05-04 02:11:00,
2013-05-03 22:12:00,42.3,40.4,30.05,East,97,0.0,5.0,93,0.00,,---,0.00,VWS V14.01,2013-05-04 02:12:00,
2013-05-03 22:13:00,42.3,40.4,30.05,East,98,0.0,5.0,93,0.00,,---,0.00,VWS V14.01,2013-05-04 02:13:00,
2013-05-03 22:14:00,42.3,40.4,30.05,NE,43,7.0,8.0,93,0.00,,---,0.00,VWS V14.01,2013-05-04 02:14:00,
2013-05-03 22:15:00,42.3,40.4,30.04,East,98,2.0,8.0,93,0.00,,---,0.00,VWS V14.01,2013-05-04 02:15:00,
2013-05-03 22:16:00,42.3,40.4,30.04,East,98,0.0,8.0,93,0.00,,---,0.00,VWS V14.01,2013-05-04 02:16:00,
2013-05-03 22:17:00,42.3,40.4,30.04,East,98,0.0,8.0,93,0.00,,---,0.00,VWS V14.01,2013-05-04 02:17:00,
2013-05-03 22:18:00,42.3,40.4,30.04,SE,125,0.0,8.0,93,0.00,,---,0.00,VWS V14.01,2013-05-04 02:18:00,
2013-05-03 22:19:00,42.5,40.6,30.04,ESE,106,3.0,8.0,93,0.00,,---,0.00,VWS V14.01,2013-05-04 02:19:00,
2013-05-03 22:20:00,42.5,40.6,30.04,ESE,106,2.0,8.0,93,0.00,,---,0.00,VWS V14.01,2013-05-04 02:20:00,
2013-05-03 22:21:00,42.5,40.6,30.04,East,97,5.0,5.0,93,0.00,,---,0.00,VWS V14.01,2013-05-04 02:21:00,
2013-05-03 22:22:00,42.5,40.6,30.04,ESE,114,5.0,5.0,93,0.00,,---,0.00,VWS V14.01,2013-05-04 02:22:00,
2013-05-03 22:23:00,42.5,40.6,30.04,East,97,2.0,5.0,93,0.00,,---,0.00,VWS V14.01,2013-05-04 02:23:00,
2013-05-03 22:24:00,42.5,40.6,30.04,ESE,118,5.0,5.0,93,0.00,,---,0.00,VWS V14.01,2013-05-04 02:24:00,
2013-05-03 22:25:00,42.5,40.6,30.04,East,97,4.0,5.0,93,0.00,,---,0.00,VWS V14.01,2013-05-04 02:25:00,
2013-05-03 22:26:00,42.3,40.4,30.04,East,96,5.0,5.0,93,0.00,,---,0.00,VWS V14.01,2013-05-04 02:26:00,
2013-05-03 22:27:00,42.3,40.4,30.04,ESE,103,3.0,5.0,93,0.00,,---,0.00,VWS V14.01,2013-05-04 02:27:00,
2013-05-03 22:28:00,42.3,40.4,30.04,ESE,107,2.0,5.0,93,0.00,,---,0.00,VWS V14.01,2013-05-04 02:28:00,
2013-05-03 22:29:00,42.3,40.4,30.04,ESE,107,2.0,5.0,93,0.00,,---,0.00,VWS V14.01,2013-05-04 02:29:00,
2013-05-03 22:30:00,42.5,40.6,30.03,East,84,3.0,5.0,93,0.00,,---,0.00,VWS V14.01,2013-05-04 02:30:00,
2013-05-03 22:31:00,42.5,40.6,30.03,East,84,3.0,3.0,93,0.00,,---,0.00,VWS V14.01,2013-05-04 02:31:00,
2013-05-03 22:32:00,42.5,40.6,30.03,East,84,3.0,3.0,93,0.00,,---,0.00,VWS V14.01,2013-05-04 02:32:00,
2013-05-03 22:33:00,42.5,40.6,30.03,East,84,3.0,3.0,93,0.00,,---,0.00,VWS V14.01,2013-05-04 02:33:00,
2013-05-03 22:34:00,42.5,40.6,30.03,East,84,3.0,3.0,93,0.00,,---,0.00,VWS V14.01,2013-05-04 02:34:00,
2013-05-03 22:35:00,42.5,40.6,30.03,East,96,5.0,5.0,93,0.00,,---,0.00,VWS V14.01,2013-05-04 02:35:00,
2013-05-03 22:36:00,42.5,40.6,30.03,ESE,122,7.0,7.0,93,0.00,,---,0.00,VWS V14.01,2013-05-04 02:36:00,
2013-05-03 22:37:00,42.5,40.6,30.03,East,98,6.0,7.0,93,0.00,,---,0.00,VWS V14.01,2013-05-04 02:37:00,
2013-05-03 22:38:00,42.5,40.6,30.03,East,98,6.0,7.0,93,0.00,,---,0.00,VWS V14.01,2013-05-04 02:38:00,
2013-05-03 22:39:00,42.5,40.6,30.03,East,91,5.0,7.0,93,0.00,,---,0.00,VWS V14.01,2013-05-04 02:39:00,
2013-05-03 22:40:00,42.5,40.6,30.03,SE,141,3.0,7.0,93,0.00,,---,0.00,VWS V14.01,2013-05-04 02:40:00,
2013-05-03 22:41:00,42.5,40.6,30.03,SE,141,3.0,3.0,93,0.00,,---,0.00,VWS V14.01,2013-05-04 02:41:00,
2013-05-03 22:42:00,42.5,40.6,30.03,SE,141,3.0,3.0,93,0.00,,---,0.00,VWS V14.01,2013-05-04 02:42:00,
2013-05-03 22:43:00,42.5,40.6,30.03,East,101,5.0,8.0,93,0.00,,---,0.00,VWS V14.01,2013-05-04 02:43:00,
2013-05-03 22:44:00,42.5,40.6,30.03,East,101,5.0,8.0,93,0.00,,---,0.00,VWS V14.01,2013-05-04 02:44:00,
2013-05-03 22:45:00,42.5,40.6,30.04,East,101,5.0,8.0,93,0.00,,---,0.00,VWS V14.01,2013-05-04 02:45:00,
2013-05-03 22:46:00,42.5,40.6,30.04,ESE,108,2.0,8.0,93,0.00,,---,0.00,VWS V14.01,2013-05-04 02:46:00,
2013-05-03 22:47:00,42.5,40.6,30.04,East,101,3.0,8.0,93,0.00,,---,0.00,VWS V14.01,2013-05-04 02:47:00,
2013-05-03 22:48:00,42.5,40.6,30.04,East,101,3.0,8.0,93,0.00,,---,0.00,VWS V14.01,2013-05-04 02:48:00,
2013-05-03 22:49:00,42.3,40.4,30.04,East,93,5.0,8.0,93,0.00,,---,0.00,VWS V14.01,2013-05-04 02:49:00,
2013-05-03 22:50:00,42.3,40.4,30.04,ESE,103,3.0,8.0,93,0.00,,---,0.00,VWS V14.01,2013-05-04 02:50:00,
2013-05-03 22:51:00,42.3,40.4,30.04,ESE,103,3.0,3.0,93,0.00,,---,0.00,VWS V14.01,2013-05-04 02:51:00,
2013-05-03 22:52:00,42.3,40.4,30.04,ESE,117,5.0,7.0,93,0.00,,---,0.00,VWS V14.01,2013-05-04 02:52:00,
2013-05-03 22:53:00,42.3,40.4,30.04,ESE,104,2.0,7.0,93,0.00,,---,0.00,VWS V14.01,2013-05-04 02:53:00,
2013-05-03 22:54:00,42.3,40.4,30.04,ESE,115,5.0,7.0,93,0.00,,---,0.00,VWS V14.01,2013-05-04 02:54:00,
2013-05-03 22:55:00,42.3,40.4,30.04,ESE,107,2.0,7.0,93,0.00,,---,0.00,VWS V14.01,2013-05-04 02:55:00,
2013-05-03 22:56:00,42.3,40.4,30.04,ESE,113,2.0,7.0,93,0.00,,---,0.00,VWS V14.01,2013-05-04 02:56:00,
2013-05-03 22:57:00,42.3,40.4,30.04,ESE,113,5.0,7.0,93,0.00,,---,0.00,VWS V14.01,2013-05-04 02:57:00,
2013-05-03 22:58:00,42.3,40.4,30.04,ESE,108,7.0,7.0,93,0.00,,---,0.00,VWS V14.01,2013-05-04 02:58:00,
2013-05-03 22:59:00,42.3,40.4,30.04,ESE,107,0.0,7.0,93,0.00,,---,0.00,VWS V14.01,2013-05-04 02:59:00,
2013-05-03 23:00:00,42.3,40.4,30.04,ESE,107,0.0,7.0,93,0.00,,---,0.00,VWS V14.01,2013-05-04 03:00:00,
2013-05-03 23:01:00,42.5,40.6,30.04,East,97,5.0,7.0,93,0.00,,---,0.00,VWS V14.01,2013-05-04 03:01:00,
2013-05-03 23:02:00,42.5,40.6,30.04,East,86,7.0,10.0,93,0.00,,---,0.00,VWS V14.01,2013-05-04 03:02:00,
2013-05-03 23:03:00,42.5,40.6,30.04,ESE,122,5.0,10.0,93,0.00,,---,0.00,VWS V14.01,2013-05-04 03:03:00,
2013-05-03 23:04:00,42.5,40.6,30.04,East,91,7.0,10.0,93,0.00,,---,0.00,VWS V14.01,2013-05-04 03:04:00,
2013-05-03 23:05:00,42.5,40.6,30.04,ESE,104,6.0,10.0,93,0.00,,---,0.00,VWS V14.01,2013-05-04 03:05:00,
2013-05-03 23:06:00,42.5,40.6,30.04,ESE,120,5.0,10.0,93,0.00,,---,0.00,VWS V14.01,2013-05-04 03:06:00,
2013-05-03 23:07:00,42.5,40.6,30.04,ESE,107,0.0,10.0,93,0.00,,---,0.00,VWS V14.01,2013-05-04 03:07:00,
2013-05-03 23:08:00,42.5,40.6,30.04,ESE,114,3.0,10.0,93,0.00,,---,0.00,VWS V14.01,2013-05-04 03:08:00,
2013-05-03 23:09:00,42.5,40.6,30.04,ESE,118,5.0,10.0,93,0.00,,---,0.00,VWS V14.01,2013-05-04 03:09:00,
2013-05-03 23:10:00,42.5,40.9,30.04,East,98,6.0,10.0,94,0.00,,---,0.00,VWS V14.01,2013-05-04 03:10:00,
2013-05-03 23:11:00,42.5,40.9,30.04,ESE,110,2.0,8.0,94,0.00,,---,0.00,VWS V14.01,2013-05-04 03:11:00,
2013-05-03 23:12:00,42.5,40.9,30.04,East,97,0.0,8.0,94,0.00,,---,0.00,VWS V14.01,2013-05-04 03:12:00,
2013-05-03 23:13:00,42.5,40.9,30.04,East,97,0.0,8.0,94,0.00,,---,0.00,VWS V14.01,2013-05-04 03:13:00,
2013-05-03 23:14:00,42.5,40.9,30.04,East,90,0.0,8.0,94,0.00,,---,0.00,VWS V14.01,2013-05-04 03:14:00,
2013-05-03 23:15:00,42.5,40.9,30.04,SE,134,5.0,8.0,94,0.00,,---,0.00,VWS V14.01,2013-05-04 03:15:00,
2013-05-03 23:16:00,42.5,40.9,30.04,East,97,7.0,8.0,94,0.00,,---,0.00,VWS V14.01,2013-05-04 03:16:00,
2013-05-03 23:17:00,42.5,40.9,30.04,East,97,7.0,8.0,94,0.00,,---,0.00,VWS V14.01,2013-05-04 03:17:00,
2013-05-03 23:18:00,42.6,41.0,30.04,ESE,103,3.0,8.0,94,0.00,,---,0.00,VWS V14.01,2013-05-04 03:18:00,
2013-05-03 23:19:00,42.6,41.0,30.04,ESE,107,4.0,8.0,94,0.00,,---,0.00,VWS V14.01,2013-05-04 03:19:00,
2013-05-03 23:20:00,42.6,41.0,30.04,East,97,3.0,8.0,94,0.00,,---,0.00,VWS V14.01,2013-05-04 03:20:00,
2013-05-03 23:21:00,42.6,41.0,30.04,SE,124,4.0,4.0,94,0.00,,---,0.00,VWS V14.01,2013-05-04 03:21:00,
2013-05-03 23:22:00,42.6,41.0,30.04,East,91,5.0,5.0,94,0.00,,---,0.00,VWS V14.01,2013-05-04 03:22:00,
2013-05-03 23:23:00,42.6,41.0,30.04,ESE,120,3.0,5.0,94,0.00,,---,0.00,VWS V14.01,2013-05-04 03:23:00,
2013-05-03 23:24:00,42.6,41.0,30.04,ESE,122,4.0,5.0,94,0.00,,---,0.00,VWS V14.01,2013-05-04 03:24:00,
2013-05-03 23:25:00,42.6,41.0,30.04,ESE,107,3.0,8.0,94,0.00,,---,0.00,VWS V14.01,2013-05-04 03:25:00,
2013-05-03 23:26:00,42.6,41.0,30.04,SE,137,4.0,8.0,94,0.00,,---,0.00,VWS V14.01,2013-05-04 03:26:00,
2013-05-03 23:27:00,42.6,41.0,30.04,ESE,111,7.0,8.0,94,0.00,,---,0.00,VWS V14.01,2013-05-04 03:27:00,
2013-05-03 23:28:00,42.6,41.0,30.04,ESE,108,3.0,8.0,94,0.00,,---,0.00,VWS V14.01,2013-05-04 03:28:00,
2013-05-03 23:29:00,42.6,41.0,30.04,ESE,122,6.0,8.0,94,0.00,,---,0.00,VWS V14.01,2013-05-04 03:29:00,
2013-05-03 23:30:00,42.8,41.2,30.04,ESE,115,3.0,8.0,94,0.00,,---,0.00,VWS V14.01,2013-05-04 03:30:00,
2013-05-03 23:31:00,42.8,41.2,30.04,ENE,72,8.0,11.0,94,0.00,,---,0.00,VWS V14.01,2013-05-04 03:31:00,
2013-05-03 23:32:00,42.8,41.2,30.04,ENE,72,8.0,11.0,94,0.00,,---,0.00,VWS V14.01,2013-05-04 03:32:00,
2013-05-03 23:33:00,42.8,41.2,30.04,ESE,120,5.0,11.0,94,0.00,,---,0.00,VWS V14.01,2013-05-04 03:33:00,
2013-05-03 23:34:00,42.8,41.2,30.04,ESE,111,6.0,11.0,94,0.00,,---,0.00,VWS V14.01,2013-05-04 03:34:00,
2013-05-03 23:35:00,42.8,41.2,30.04,ESE,111,3.0,11.0,94,0.00,,---,0.00,VWS V14.01,2013-05-04 03:35:00,
2013-05-03 23:36:00,42.8,41.2,30.04,ESE,121,5.0,11.0,94,0.00,,---,0.00,VWS V14.01,2013-05-04 03:36:00,
2013-05-03 23:37:00,42.8,41.2,30.04,ESE,121,5.0,11.0,94,0.00,,---,0.00,VWS V14.01,2013-05-04 03:37:00,
2013-05-03 23:38:00,42.8,41.2,30.04,SE,135,11.0,11.0,94,0.00,,---,0.00,VWS V14.01,2013-05-04 03:38:00,
2013-05-03 23:39:00,42.8,41.2,30.04,ESE,122,7.0,11.0,94,0.00,,---,0.00,VWS V14.01,2013-05-04 03:39:00,
2013-05-03 23:40:00,42.8,41.2,30.04,East,97,7.0,11.0,94,0.00,,---,0.00,VWS V14.01,2013-05-04 03:40:00,
2013-05-03 23:41:00,42.8,41.2,30.04,ESE,111,5.0,12.0,94,0.00,,---,0.00,VWS V14.01,2013-05-04 03:41:00,
2013-05-03 23:42:00,42.8,41.2,30.04,ESE,115,2.0,12.0,94,0.00,,---,0.00,VWS V14.01,2013-05-04 03:42:00,
2013-05-03 23:43:00,42.8,41.2,30.04,SE,137,6.0,12.0,94,0.00,,---,0.00,VWS V14.01,2013-05-04 03:43:00,
2013-05-03 23:44:00,42.8,41.2,30.04,SE,137,6.0,12.0,94,0.00,,---,0.00,VWS V14.01,2013-05-04 03:44:00,
2013-05-03 23:45:00,42.8,41.2,30.04,SE,137,6.0,12.0,94,0.00,,---,0.00,VWS V14.01,2013-05-04 03:45:00,
2013-05-03 23:46:00,42.6,41.0,30.04,East,98,6.0,12.0,94,0.00,,---,0.00,VWS V14.01,2013-05-04 03:46:00,
2013-05-03 23:47:00,42.6,41.0,30.04,East,100,2.0,12.0,94,0.00,,---,0.00,VWS V14.01,2013-05-04 03:47:00,
2013-05-03 23:48:00,42.8,41.2,30.04,ESE,122,0.0,12.0,94,0.00,,---,0.00,VWS V14.01,2013-05-04 03:48:00,
2013-05-03 23:49:00,42.8,41.2,30.04,ESE,104,0.0,12.0,94,0.00,,---,0.00,VWS V14.01,2013-05-04 03:49:00,
2013-05-03 23:50:00,42.8,41.2,30.04,East,89,10.0,12.0,94,0.00,,---,0.00,VWS V14.01,2013-05-04 03:50:00,
2013-05-03 23:51:00,42.8,41.2,30.04,East,91,2.0,10.0,94,0.00,,---,0.00,VWS V14.01,2013-05-04 03:51:00,
2013-05-03 23:52:00,42.8,41.2,30.04,SSE,159,2.0,10.0,94,0.00,,---,0.00,VWS V14.01,2013-05-04 03:52:00,
2013-05-03 23:53:00,42.8,41.2,30.04,ESE,111,0.0,10.0,94,0.00,,---,0.00,VWS V14.01,2013-05-04 03:53:00,
2013-05-03 23:54:00,42.8,41.2,30.04,ESE,114,0.0,10.0,94,0.00,,---,0.00,VWS V14.01,2013-05-04 03:54:00,
2013-05-03 23:55:00,42.8,41.2,30.04,East,94,0.0,10.0,94,0.00,,---,0.00,VWS V14.01,2013-05-04 03:55:00,
2013-05-03 23:56:00,42.8,41.2,30.04,East,79,4.0,10.0,94,0.00,,---,0.00,VWS V14.01,2013-05-04 03:56:00,
2013-05-03 23:57:00,42.8,41.2,30.04,ESE,104,2.0,10.0,94,0.00,,---,0.00,VWS V14.01,2013-05-04 03:57:00,
2013-05-03 23:58:00,42.9,41.3,30.04,East,84,4.0,10.0,94,0.00,,---,0.00,VWS V14.01,2013-05-04 03:58:00,
2013-05-03 23:59:00,42.9,41.3,30.04,East,86,7.0,10.0,94,0.00,,---,0.00,VWS V14.01,2013-05-04 03:59:00,